Time,TemperatureF,DewpointF,PressureIn,WindDirection,WindDirectionDegrees,WindSpeedMPH,WindSpeedGustMPH,Humidity,HourlyPrecipIn,Conditions,Clouds,dailyrainin,SoftwareType,DateUTC
2013-03-24 00:00:00,34.6,17.9,30.03,NNW,333,1.0,11.0,50,0.00,,---,0.00,VWS V14.01,2013-03-24 04:00:00,
2013-03-24 00:01:00,34.6,17.9,30.03,NNW,333,0.0,2.0,50,0.00,,---,0.00,VWS V14.01,2013-03-24 04:01:00,
2013-03-24 00:02:00,34.6,17.9,30.03,NNW,333,1.0,4.0,50,0.00,,---,0.00,VWS V14.01,2013-03-24 04:02:00,
2013-03-24 00:03:00,34.6,17.4,30.03,NNW,333,0.0,4.0,49,0.00,,---,0.00,VWS V14.01,2013-03-24 04:03:00,
2013-03-24 00:04:00,34.7,17.5,30.03,NNW,333,1.0,4.0,49,0.00,,---,0.00,VWS V14.01,2013-03-24 04:04:00,
2013-03-24 00:05:00,34.7,17.5,30.03,NNW,334,0.0,4.0,49,0.00,,---,0.00,VWS V14.01,2013-03-24 04:05:00,
2013-03-24 00:06:00,34.7,17.5,30.03,NNW,334,0.0,4.0,49,0.00,,---,0.00,VWS V14.01,2013-03-24 04:06:00,
2013-03-24 00:07:00,34.6,17.9,30.03,NNW,334,0.0,4.0,50,0.00,,---,0.00,VWS V14.01,2013-03-24 04:07:00,
2013-03-24 00:08:00,34.6,17.9,30.03,NNW,334,4.0,4.0,50,0.00,,---,0.00,VWS V14.01,2013-03-24 04:08:00,
2013-03-24 00:09:00,34.6,17.9,30.03,NNW,334,1.0,4.0,50,0.00,,---,0.00,VWS V14.01,2013-03-24 04:09:00,
2013-03-24 00:10:00,34.6,17.9,30.03,NNW,334,0.0,4.0,50,0.00,,---,0.00,VWS V14.01,2013-03-24 04:10:00,
2013-03-24 00:11:00,34.6,17.9,30.03,NNW,334,0.0,4.0,50,0.00,,---,0.00,VWS V14.01,2013-03-24 04:11:00,
2013-03-24 00:12:00,34.6,17.9,30.03,NNW,334,0.0,4.0,50,0.00,,---,0.00,VWS V14.01,2013-03-24 04:12:00,
2013-03-24 00:13:00,34.4,17.7,30.03,NNW,334,0.0,4.0,50,0.00,,---,0.00,VWS V14.01,2013-03-24 04:13:00,
2013-03-24 00:14:00,34.4,17.7,30.03,NNW,334,0.0,4.0,50,0.00,,---,0.00,VWS V14.01,2013-03-24 04:14:00,
2013-03-24 00:15:00,34.4,17.7,30.03,NNW,334,0.0,4.0,50,0.00,,---,0.00,VWS V14.01,2013-03-24 04:15:00,
2013-03-24 00:16:00,34.3,17.6,30.03,NNW,334,2.0,4.0,50,0.00,,---,0.00,VWS V14.01,2013-03-24 04:16:00,
2013-03-24 00:17:00,34.3,18.1,30.03,NNW,334,2.0,4.0,51,0.00,,---,0.00,VWS V14.01,2013-03-24 04:17:00,
2013-03-24 00:18:00,34.1,17.9,30.03,NNW,334,2.0,4.0,51,0.00,,---,0.00,VWS V14.01,2013-03-24 04:18:00,
2013-03-24 00:19:00,34.1,17.9,30.03,NNW,333,5.0,5.0,51,0.00,,---,0.00,VWS V14.01,2013-03-24 04:19:00,
2013-03-24 00:20:00,34.1,17.9,30.03,NNW,333,0.0,5.0,51,0.00,,---,0.00,VWS V14.01,2013-03-24 04:20:00,
2013-03-24 00:21:00,34.1,17.9,30.03,NNW,333,1.0,5.0,51,0.00,,---,0.00,VWS V14.01,2013-03-24 04:21:00,
2013-03-24 00:22:00,34.1,17.9,30.03,NNW,333,0.0,5.0,51,0.00,,---,0.00,VWS V14.01,2013-03-24 04:22:00,
2013-03-24 00:25:00,34.0,17.8,30.03,NNW,333,0.0,5.0,51,0.00,,---,0.00,VWS V14.01,2013-03-24 04:25:00,
2013-03-24 00:26:00,34.0,17.8,30.03,NNW,333,0.0,5.0,51,0.00,,---,0.00,VWS V14.01,2013-03-24 04:26:00,
2013-03-24 00:27:00,34.0,17.8,30.03,NNW,333,0.0,5.0,51,0.00,,---,0.00,VWS V14.01,2013-03-24 04:27:00,
2013-03-24 00:28:00,34.0,17.8,30.03,NNW,333,3.0,5.0,51,0.00,,---,0.00,VWS V14.01,2013-03-24 04:28:00,
2013-03-24 00:29:00,34.0,17.8,30.03,NNW,333,0.0,5.0,51,0.00,,---,0.00,VWS V14.01,2013-03-24 04:29:00,
2013-03-24 00:30:00,34.0,17.8,30.03,NNW,333,2.0,5.0,51,0.00,,---,0.00,VWS V14.01,2013-03-24 04:30:00,
2013-03-24 00:31:00,34.0,18.2,30.03,NNW,333,0.0,2.0,52,0.00,,---,0.00,VWS V14.01,2013-03-24 04:31:00,
2013-03-24 00:32:00,34.0,18.2,30.03,NNW,333,0.0,2.0,52,0.00,,---,0.00,VWS V14.01,2013-03-24 04:32:00,
2013-03-24 00:33:00,34.0,17.8,30.03,NNW,333,1.0,2.0,51,0.00,,---,0.00,VWS V14.01,2013-03-24 04:33:00,
2013-03-24 00:34:00,34.0,18.2,30.03,NNW,333,0.0,5.0,52,0.00,,---,0.00,VWS V14.01,2013-03-24 04:34:00,
2013-03-24 00:35:00,34.0,17.8,30.03,NNW,333,3.0,5.0,51,0.00,,---,0.00,VWS V14.01,2013-03-24 04:35:00,
2013-03-24 00:36:00,34.0,17.8,30.03,NNW,333,5.0,5.0,51,0.00,,---,0.00,VWS V14.01,2013-03-24 04:36:00,
2013-03-24 00:37:00,34.1,17.9,30.03,NNW,336,3.0,6.0,51,0.00,,---,0.00,VWS V14.01,2013-03-24 04:37:00,
2013-03-24 00:39:00,34.1,17.9,30.03,NNW,336,0.0,6.0,51,0.00,,---,0.00,VWS V14.01,2013-03-24 04:39:00,
2013-03-24 00:40:00,34.1,17.9,30.03,NNW,336,0.0,6.0,51,0.00,,---,0.00,VWS V14.01,2013-03-24 04:40:00,
2013-03-24 00:41:00,34.1,17.9,30.03,NNW,336,1.0,6.0,51,0.00,,---,0.00,VWS V14.01,2013-03-24 04:41:00,
2013-03-24 00:42:00,34.1,17.9,30.03,NNW,336,2.0,6.0,51,0.00,,---,0.00,VWS V14.01,2013-03-24 04:42:00,
2013-03-24 00:44:00,34.1,17.9,30.03,NNW,336,0.0,6.0,51,0.00,,---,0.00,VWS V14.01,2013-03-24 04:44:00,
2013-03-24 00:45:00,34.1,17.9,30.03,NNW,336,0.0,6.0,51,0.00,,---,0.00,VWS V14.01,2013-03-24 04:45:00,
2013-03-24 00:46:00,34.1,17.9,30.03,NNW,336,0.0,6.0,51,0.00,,---,0.00,VWS V14.01,2013-03-24 04:46:00,
2013-03-24 00:47:00,34.1,17.9,30.03,NNW,336,0.0,6.0,51,0.00,,---,0.00,VWS V14.01,2013-03-24 04:47:00,
2013-03-24 00:48:00,34.1,17.4,30.03,NNW,336,0.0,6.0,50,0.00,,---,0.00,VWS V14.01,2013-03-24 04:48:00,
2013-03-24 00:49:00,34.1,17.4,30.03,NNW,336,0.0,6.0,50,0.00,,---,0.00,VWS V14.01,2013-03-24 04:49:00,
2013-03-24 00:50:00,34.1,17.4,30.03,NNW,336,0.0,6.0,50,0.00,,---,0.00,VWS V14.01,2013-03-24 04:50:00,
2013-03-24 00:51:00,34.1,17.4,30.03,NNW,336,0.0,6.0,50,0.00,,---,0.00,VWS V14.01,2013-03-24 04:51:00,
2013-03-24 00:52:00,34.1,17.9,30.03,NNW,336,2.0,6.0,51,0.00,,---,0.00,VWS V14.01,2013-03-24 04:52:00,
2013-03-24 00:53:00,34.0,18.2,30.03,NNW,336,1.0,6.0,52,0.00,,---,0.00,VWS V14.01,2013-03-24 04:53:00,
2013-03-24 00:54:00,34.0,18.2,30.03,NNW,336,0.0,6.0,52,0.00,,---,0.00,VWS V14.01,2013-03-24 04:54:00,
2013-03-24 00:55:00,33.8,18.0,30.03,NNW,336,0.0,6.0,52,0.00,,---,0.00,VWS V14.01,2013-03-24 04:55:00,
2013-03-24 00:56:00,33.8,18.0,30.03,NNW,336,0.0,6.0,52,0.00,,---,0.00,VWS V14.01,2013-03-24 04:56:00,
2013-03-24 00:57:00,33.7,18.0,30.03,NNW,336,2.0,6.0,52,0.00,,---,0.00,VWS V14.01,2013-03-24 04:57:00,
2013-03-24 00:58:00,33.7,18.0,30.03,NNW,336,0.0,6.0,52,0.00,,---,0.00,VWS V14.01,2013-03-24 04:58:00,
2013-03-24 00:59:00,33.5,17.8,30.02,NNW,336,0.0,6.0,52,0.00,,---,0.00,VWS V14.01,2013-03-24 04:59:00,
2013-03-24 01:00:00,33.5,17.8,30.02,NNW,336,0.0,6.0,52,0.00,,---,0.00,VWS V14.01,2013-03-24 05:00:00,
2013-03-24 01:01:00,33.5,17.8,30.02,NNW,336,0.0,0.0,52,0.00,,---,0.00,VWS V14.01,2013-03-24 05:01:00,
2013-03-24 01:02:00,33.5,17.8,30.02,NNW,336,0.0,0.0,52,0.00,,---,0.00,VWS V14.01,2013-03-24 05:02:00,
2013-03-24 01:03:00,33.4,17.7,30.02,NNW,336,0.0,0.0,52,0.00,,---,0.00,VWS V14.01,2013-03-24 05:03:00,
2013-03-24 01:04:00,33.4,17.7,30.02,NNW,336,0.0,0.0,52,0.00,,---,0.00,VWS V14.01,2013-03-24 05:04:00,
2013-03-24 01:05:00,33.4,18.1,30.02,NNW,336,0.0,0.0,53,0.00,,---,0.00,VWS V14.01,2013-03-24 05:05:00,
2013-03-24 01:06:00,33.4,18.1,30.02,NNW,336,0.0,0.0,53,0.00,,---,0.00,VWS V14.01,2013-03-24 05:06:00,
2013-03-24 01:07:00,33.2,18.4,30.02,NNW,336,0.0,0.0,54,0.00,,---,0.00,VWS V14.01,2013-03-24 05:07:00,
2013-03-24 01:08:00,33.2,18.4,30.02,NNW,336,0.0,0.0,54,0.00,,---,0.00,VWS V14.01,2013-03-24 05:08:00,
2013-03-24 01:09:00,33.1,18.7,30.02,NNW,336,0.0,0.0,55,0.00,,---,0.00,VWS V14.01,2013-03-24 05:09:00,
2013-03-24 01:10:00,32.9,18.1,30.02,NNW,336,4.0,4.0,54,0.00,,---,0.00,VWS V14.01,2013-03-24 05:10:00,
2013-03-24 01:11:00,32.9,18.1,30.02,NNW,336,0.0,4.0,54,0.00,,---,0.00,VWS V14.01,2013-03-24 05:11:00,
2013-03-24 01:12:00,32.9,18.1,30.02,NNW,336,0.0,4.0,54,0.00,,---,0.00,VWS V14.01,2013-03-24 05:12:00,
2013-03-24 01:13:00,32.9,18.1,30.02,NNW,336,0.0,4.0,54,0.00,,---,0.00,VWS V14.01,2013-03-24 05:13:00,
2013-03-24 01:14:00,32.9,18.1,30.01,NNW,336,0.0,4.0,54,0.00,,---,0.00,VWS V14.01,2013-03-24 05:14:00,
2013-03-24 01:15:00,32.9,17.7,30.01,NNW,336,0.0,4.0,53,0.00,,---,0.00,VWS V14.01,2013-03-24 05:15:00,
2013-03-24 01:16:00,32.9,17.7,30.01,NNW,336,0.0,4.0,53,0.00,,---,0.00,VWS V14.01,2013-03-24 05:16:00,
2013-03-24 01:17:00,32.9,17.7,30.01,NNW,336,0.0,4.0,53,0.00,,---,0.00,VWS V14.01,2013-03-24 05:17:00,
2013-03-24 01:18:00,32.9,17.7,30.01,NNW,336,0.0,4.0,53,0.00,,---,0.00,VWS V14.01,2013-03-24 05:18:00,
2013-03-24 01:19:00,32.9,18.1,30.01,NNW,336,0.0,4.0,54,0.00,,---,0.00,VWS V14.01,2013-03-24 05:19:00,
2013-03-24 01:20:00,32.8,18.0,30.01,NNW,336,0.0,4.0,54,0.00,,---,0.00,VWS V14.01,2013-03-24 05:20:00,
2013-03-24 01:21:00,32.8,18.0,30.01,NNW,336,1.0,4.0,54,0.00,,---,0.00,VWS V14.01,2013-03-24 05:21:00,
2013-03-24 01:22:00,32.8,18.0,30.01,NNW,336,0.0,4.0,54,0.00,,---,0.00,VWS V14.01,2013-03-24 05:22:00,
2013-03-24 01:23:00,32.8,17.6,30.01,NNW,336,0.0,4.0,53,0.00,,---,0.00,VWS V14.01,2013-03-24 05:23:00,
2013-03-24 01:24:00,32.7,17.9,30.01,NNW,336,0.0,4.0,54,0.00,,---,0.00,VWS V14.01,2013-03-24 05:24:00,
2013-03-24 01:28:00,32.5,17.7,30.01,NNW,336,0.0,4.0,54,0.00,,---,0.00,VWS V14.01,2013-03-24 05:28:00,
2013-03-24 01:29:00,32.5,17.7,30.00,NNW,336,0.0,4.0,54,0.00,,---,0.00,VWS V14.01,2013-03-24 05:29:00,
2013-03-24 01:30:00,32.5,17.7,30.00,NNW,336,0.0,4.0,54,0.00,,---,0.00,VWS V14.01,2013-03-24 05:30:00,
2013-03-24 01:31:00,32.5,17.7,30.00,NNW,336,0.0,0.0,54,0.00,,---,0.00,VWS V14.01,2013-03-24 05:31:00,
2013-03-24 01:33:00,32.4,18.5,30.00,NNW,336,0.0,0.0,56,0.00,,---,0.00,VWS V14.01,2013-03-24 05:33:00,
2013-03-24 01:35:00,32.1,18.2,30.00,NNW,336,0.0,0.0,56,0.00,,---,0.00,VWS V14.01,2013-03-24 05:35:00,
2013-03-24 01:36:00,32.1,18.2,30.00,NNW,336,0.0,0.0,56,0.00,,---,0.00,VWS V14.01,2013-03-24 05:36:00,
2013-03-24 01:38:00,31.9,18.0,30.00,NNW,336,0.0,2.0,56,0.00,,---,0.00,VWS V14.01,2013-03-24 05:38:00,
2013-03-24 01:39:00,31.9,18.4,30.00,NNW,336,0.0,2.0,57,0.00,,---,0.00,VWS V14.01,2013-03-24 05:39:00,
2013-03-24 01:40:00,31.8,18.3,30.00,NNW,336,0.0,2.0,57,0.00,,---,0.00,VWS V14.01,2013-03-24 05:40:00,
2013-03-24 01:41:00,31.8,18.3,30.00,NNW,336,0.0,2.0,57,0.00,,---,0.00,VWS V14.01,2013-03-24 05:41:00,
2013-03-24 01:42:00,31.6,18.1,30.00,NNW,336,0.0,2.0,57,0.00,,---,0.00,VWS V14.01,2013-03-24 05:42:00,
2013-03-24 01:43:00,31.6,18.1,30.00,NNW,336,0.0,2.0,57,0.00,,---,0.00,VWS V14.01,2013-03-24 05:43:00,
2013-03-24 01:44:00,31.5,18.0,30.00,NNW,336,0.0,2.0,57,0.00,,---,0.00,VWS V14.01,2013-03-24 05:44:00,
2013-03-24 01:45:00,31.5,18.0,30.02,NNW,336,0.0,2.0,57,0.00,,---,0.00,VWS V14.01,2013-03-24 05:45:00,
2013-03-24 01:46:00,31.5,18.0,30.02,NNW,336,0.0,2.0,57,0.00,,---,0.00,VWS V14.01,2013-03-24 05:46:00,
2013-03-24 01:47:00,31.3,18.2,30.02,NNW,336,0.0,2.0,58,0.00,,---,0.00,VWS V14.01,2013-03-24 05:47:00,
2013-03-24 01:48:00,31.3,18.2,30.02,NNW,336,0.0,2.0,58,0.00,,---,0.00,VWS V14.01,2013-03-24 05:48:00,
2013-03-24 01:49:00,31.3,18.2,30.02,NNW,336,0.0,2.0,58,0.00,,---,0.00,VWS V14.01,2013-03-24 05:49:00,
2013-03-24 01:50:00,31.2,18.2,30.02,NNW,336,0.0,2.0,58,0.00,,---,0.00,VWS V14.01,2013-03-24 05:50:00,
2013-03-24 01:51:00,31.2,18.2,30.02,NNW,336,0.0,2.0,58,0.00,,---,0.00,VWS V14.01,2013-03-24 05:51:00,
2013-03-24 01:52:00,31.2,18.2,30.02,NNW,336,0.0,2.0,58,0.00,,---,0.00,VWS V14.01,2013-03-24 05:52:00,
2013-03-24 01:54:00,31.3,18.2,30.02,NNW,336,0.0,3.0,58,0.00,,---,0.00,VWS V14.01,2013-03-24 05:54:00,
2013-03-24 01:55:00,31.3,18.2,30.02,NNW,336,0.0,3.0,58,0.00,,---,0.00,VWS V14.01,2013-03-24 05:55:00,
2013-03-24 01:56:00,31.3,18.2,30.02,NNW,336,0.0,3.0,58,0.00,,---,0.00,VWS V14.01,2013-03-24 05:56:00,
2013-03-24 01:57:00,31.3,18.2,30.02,NNW,336,0.0,3.0,58,0.00,,---,0.00,VWS V14.01,2013-03-24 05:57:00,
2013-03-24 01:59:00,31.5,18.4,30.02,NNW,336,0.0,3.0,58,0.00,,---,0.00,VWS V14.01,2013-03-24 05:59:00,
2013-03-24 02:00:00,31.5,18.4,30.02,NNW,336,0.0,3.0,58,0.00,,---,0.00,VWS V14.01,2013-03-24 06:00:00,
2013-03-24 02:01:00,31.6,18.5,30.02,NNW,336,0.0,0.0,58,0.00,,---,0.00,VWS V14.01,2013-03-24 06:01:00,
2013-03-24 02:02:00,31.6,18.5,30.02,NNW,336,0.0,0.0,58,0.00,,---,0.00,VWS V14.01,2013-03-24 06:02:00,
2013-03-24 02:03:00,31.6,18.5,30.02,NNW,336,1.0,1.0,58,0.00,,---,0.00,VWS V14.01,2013-03-24 06:03:00,
2013-03-24 02:04:00,31.6,18.5,30.02,NNW,336,0.0,1.0,58,0.00,,---,0.00,VWS V14.01,2013-03-24 06:04:00,
2013-03-24 02:05:00,31.8,18.3,30.02,NNW,336,0.0,1.0,57,0.00,,---,0.00,VWS V14.01,2013-03-24 06:05:00,
2013-03-24 02:06:00,31.9,18.0,30.02,NNW,336,0.0,1.0,56,0.00,,---,0.00,VWS V14.01,2013-03-24 06:06:00,
2013-03-24 02:07:00,31.9,18.0,30.02,NNW,336,0.0,1.0,56,0.00,,---,0.00,VWS V14.01,2013-03-24 06:07:00,
2013-03-24 02:08:00,32.1,18.2,30.02,NNW,336,0.0,1.0,56,0.00,,---,0.00,VWS V14.01,2013-03-24 06:08:00,
2013-03-24 02:09:00,32.1,18.2,30.02,NNW,336,0.0,1.0,56,0.00,,---,0.00,VWS V14.01,2013-03-24 06:09:00,
2013-03-24 02:10:00,32.1,18.6,30.02,NNW,336,0.0,1.0,57,0.00,,---,0.00,VWS V14.01,2013-03-24 06:10:00,
2013-03-24 02:11:00,32.1,18.6,30.02,NNW,336,0.0,1.0,57,0.00,,---,0.00,VWS V14.01,2013-03-24 06:11:00,
2013-03-24 02:12:00,32.1,18.6,30.02,NNW,336,0.0,1.0,57,0.00,,---,0.00,VWS V14.01,2013-03-24 06:12:00,
2013-03-24 02:13:00,32.1,18.6,30.02,NNW,336,0.0,1.0,57,0.00,,---,0.00,VWS V14.01,2013-03-24 06:13:00,
2013-03-24 02:14:00,32.1,19.0,30.03,NNW,336,0.0,1.0,58,0.00,,---,0.00,VWS V14.01,2013-03-24 06:14:00,
2013-03-24 02:15:00,32.1,19.0,30.03,NNW,336,0.0,1.0,58,0.00,,---,0.00,VWS V14.01,2013-03-24 06:15:00,
2013-03-24 02:16:00,32.1,19.0,30.03,NNW,336,0.0,1.0,58,0.00,,---,0.00,VWS V14.01,2013-03-24 06:16:00,
2013-03-24 02:17:00,31.9,19.2,30.03,NNW,336,0.0,1.0,59,0.00,,---,0.00,VWS V14.01,2013-03-24 06:17:00,
2013-03-24 02:18:00,31.9,19.6,30.03,NNW,336,0.0,1.0,60,0.00,,---,0.00,VWS V14.01,2013-03-24 06:18:00,
2013-03-24 02:19:00,31.8,19.9,30.03,NNW,336,0.0,1.0,61,0.00,,---,0.00,VWS V14.01,2013-03-24 06:19:00,
2013-03-24 02:20:00,31.8,19.9,30.03,NNW,336,0.0,1.0,61,0.00,,---,0.00,VWS V14.01,2013-03-24 06:20:00,
2013-03-24 02:21:00,31.8,19.9,30.03,NNW,336,0.0,1.0,61,0.00,,---,0.00,VWS V14.01,2013-03-24 06:21:00,
2013-03-24 02:22:00,31.6,19.7,30.03,NNW,336,0.0,1.0,61,0.00,,---,0.00,VWS V14.01,2013-03-24 06:22:00,
2013-03-24 02:23:00,31.6,19.7,30.03,NNW,336,0.0,1.0,61,0.00,,---,0.00,VWS V14.01,2013-03-24 06:23:00,
2013-03-24 02:24:00,31.6,19.7,30.03,NNW,336,0.0,1.0,61,0.00,,---,0.00,VWS V14.01,2013-03-24 06:24:00,
2013-03-24 02:25:00,31.5,19.2,30.03,NNW,336,0.0,1.0,60,0.00,,---,0.00,VWS V14.01,2013-03-24 06:25:00,
2013-03-24 02:26:00,31.5,19.2,30.03,NNW,336,0.0,1.0,60,0.00,,---,0.00,VWS V14.01,2013-03-24 06:26:00,
2013-03-24 02:27:00,31.5,19.2,30.03,NNW,336,0.0,1.0,60,0.00,,---,0.00,VWS V14.01,2013-03-24 06:27:00,
2013-03-24 02:28:00,31.5,19.2,30.03,NNW,336,0.0,1.0,60,0.00,,---,0.00,VWS V14.01,2013-03-24 06:28:00,
2013-03-24 02:29:00,31.5,19.2,30.03,NNW,336,0.0,1.0,60,0.00,,---,0.00,VWS V14.01,2013-03-24 06:29:00,
2013-03-24 02:30:00,31.5,19.2,30.03,NNW,336,0.0,1.0,60,0.00,,---,0.00,VWS V14.01,2013-03-24 06:30:00,
2013-03-24 02:31:00,31.5,19.6,30.03,NNW,336,0.0,0.0,61,0.00,,---,0.00,VWS V14.01,2013-03-24 06:31:00,
2013-03-24 02:32:00,31.5,19.2,30.03,NNW,336,0.0,0.0,60,0.00,,---,0.00,VWS V14.01,2013-03-24 06:32:00,
2013-03-24 02:33:00,32.7,17.9,30.01,NNW,336,0.0,4.0,54,0.00,,---,0.00,VWS V14.01,2013-03-24 06:33:00,
2013-03-24 02:34:00,31.5,19.6,30.03,NNW,336,0.0,2.0,61,0.00,,---,0.00,VWS V14.01,2013-03-24 06:34:00,
2013-03-24 02:35:00,31.5,19.6,30.03,NNW,336,0.0,2.0,61,0.00,,---,0.00,VWS V14.01,2013-03-24 06:35:00,
2013-03-24 02:36:00,31.3,19.4,30.03,NNW,336,0.0,2.0,61,0.00,,---,0.00,VWS V14.01,2013-03-24 06:36:00,
2013-03-24 02:37:00,31.3,19.4,30.03,NNW,336,0.0,2.0,61,0.00,,---,0.00,VWS V14.01,2013-03-24 06:37:00,
2013-03-24 02:38:00,31.3,19.4,30.03,NNW,336,0.0,2.0,61,0.00,,---,0.00,VWS V14.01,2013-03-24 06:38:00,
2013-03-24 02:39:00,31.5,19.6,30.03,NNW,336,0.0,2.0,61,0.00,,---,0.00,VWS V14.01,2013-03-24 06:39:00,
2013-03-24 02:40:00,31.5,20.0,30.03,NNW,336,0.0,2.0,62,0.00,,---,0.00,VWS V14.01,2013-03-24 06:40:00,
2013-03-24 02:41:00,31.5,20.0,30.03,NNW,336,0.0,2.0,62,0.00,,---,0.00,VWS V14.01,2013-03-24 06:41:00,
2013-03-24 02:42:00,31.5,20.0,30.03,NNW,336,0.0,2.0,62,0.00,,---,0.00,VWS V14.01,2013-03-24 06:42:00,
2013-03-24 02:43:00,31.5,19.6,30.03,NNW,336,0.0,2.0,61,0.00,,---,0.00,VWS V14.01,2013-03-24 06:43:00,
2013-03-24 02:44:00,31.6,19.7,30.02,NNW,336,0.0,2.0,61,0.00,,---,0.00,VWS V14.01,2013-03-24 06:44:00,
2013-03-24 02:45:00,31.6,19.7,30.02,NNW,336,0.0,2.0,61,0.00,,---,0.00,VWS V14.01,2013-03-24 06:45:00,
2013-03-24 02:46:00,31.6,19.3,30.02,NNW,336,0.0,2.0,60,0.00,,---,0.00,VWS V14.01,2013-03-24 06:46:00,
2013-03-24 02:47:00,31.8,19.9,30.02,NNW,336,0.0,2.0,61,0.00,,---,0.00,VWS V14.01,2013-03-24 06:47:00,
2013-03-24 02:50:00,31.8,19.9,30.02,NNW,336,0.0,2.0,61,0.00,,---,0.00,VWS V14.01,2013-03-24 06:50:00,
2013-03-24 02:51:00,31.8,19.9,30.02,NNW,336,0.0,2.0,61,0.00,,---,0.00,VWS V14.01,2013-03-24 06:51:00,
2013-03-24 02:52:00,31.8,19.9,30.02,NNW,336,0.0,2.0,61,0.00,,---,0.00,VWS V14.01,2013-03-24 06:52:00,
2013-03-24 02:53:00,31.8,19.5,30.02,NNW,336,0.0,2.0,60,0.00,,---,0.00,VWS V14.01,2013-03-24 06:53:00,
2013-03-24 02:54:00,31.8,19.5,30.02,NNW,336,0.0,2.0,60,0.00,,---,0.00,VWS V14.01,2013-03-24 06:54:00,
2013-03-24 02:55:00,31.8,19.5,30.02,NNW,336,0.0,2.0,60,0.00,,---,0.00,VWS V14.01,2013-03-24 06:55:00,
2013-03-24 02:56:00,31.8,19.5,30.02,NNW,336,0.0,2.0,60,0.00,,---,0.00,VWS V14.01,2013-03-24 06:56:00,
2013-03-24 02:57:00,31.8,19.5,30.02,NNW,336,0.0,2.0,60,0.00,,---,0.00,VWS V14.01,2013-03-24 06:57:00,
2013-03-24 02:58:00,31.8,19.5,30.02,NNW,336,0.0,2.0,60,0.00,,---,0.00,VWS V14.01,2013-03-24 06:58:00,
2013-03-24 02:59:00,31.8,19.5,30.02,NNW,336,0.0,2.0,60,0.00,,---,0.00,VWS V14.01,2013-03-24 06:59:00,
2013-03-24 03:00:00,31.8,19.9,30.03,NNW,336,0.0,2.0,61,0.00,,---,0.00,VWS V14.01,2013-03-24 07:00:00,
2013-03-24 03:01:00,31.8,19.9,30.03,NNW,336,0.0,0.0,61,0.00,,---,0.00,VWS V14.01,2013-03-24 07:01:00,
2013-03-24 03:02:00,31.8,19.9,30.03,NNW,336,0.0,0.0,61,0.00,,---,0.00,VWS V14.01,2013-03-24 07:02:00,
2013-03-24 03:03:00,31.8,20.3,30.03,NNW,336,0.0,0.0,62,0.00,,---,0.00,VWS V14.01,2013-03-24 07:03:00,
2013-03-24 03:04:00,31.8,20.3,30.03,NNW,336,0.0,0.0,62,0.00,,---,0.00,VWS V14.01,2013-03-24 07:04:00,
2013-03-24 03:05:00,31.8,20.3,30.03,NNW,336,0.0,0.0,62,0.00,,---,0.00,VWS V14.01,2013-03-24 07:05:00,
2013-03-24 03:06:00,31.8,20.7,30.03,NNW,336,0.0,0.0,63,0.00,,---,0.00,VWS V14.01,2013-03-24 07:06:00,
2013-03-24 03:07:00,31.8,20.7,30.03,NNW,336,0.0,0.0,63,0.00,,---,0.00,VWS V14.01,2013-03-24 07:07:00,
2013-03-24 03:09:00,31.8,20.7,30.03,NNW,336,0.0,0.0,63,0.00,,---,0.00,VWS V14.01,2013-03-24 07:09:00,
2013-03-24 03:10:00,31.8,20.3,30.03,NNW,336,0.0,0.0,62,0.00,,---,0.00,VWS V14.01,2013-03-24 07:10:00,
2013-03-24 03:11:00,31.8,19.9,30.03,NNW,336,0.0,0.0,61,0.00,,---,0.00,VWS V14.01,2013-03-24 07:11:00,
2013-03-24 03:12:00,31.8,19.9,30.03,NNW,336,0.0,0.0,61,0.00,,---,0.00,VWS V14.01,2013-03-24 07:12:00,
2013-03-24 03:13:00,31.9,19.6,30.03,NNW,336,0.0,0.0,60,0.00,,---,0.00,VWS V14.01,2013-03-24 07:13:00,
2013-03-24 03:14:00,31.9,19.6,30.03,NNW,336,0.0,0.0,60,0.00,,---,0.00,VWS V14.01,2013-03-24 07:14:00,
2013-03-24 03:15:00,31.9,19.6,30.03,NNW,336,0.0,0.0,60,0.00,,---,0.00,VWS V14.01,2013-03-24 07:15:00,
2013-03-24 03:16:00,31.9,19.6,30.03,NNW,336,0.0,0.0,60,0.00,,---,0.00,VWS V14.01,2013-03-24 07:16:00,
2013-03-24 03:17:00,31.9,19.2,30.03,NNW,336,0.0,0.0,59,0.00,,---,0.00,VWS V14.01,2013-03-24 07:17:00,
2013-03-24 03:18:00,31.9,19.6,30.03,NNW,336,0.0,0.0,60,0.00,,---,0.00,VWS V14.01,2013-03-24 07:18:00,
2013-03-24 03:19:00,31.9,19.6,30.03,NNW,336,0.0,0.0,60,0.00,,---,0.00,VWS V14.01,2013-03-24 07:19:00,
2013-03-24 03:20:00,31.9,19.6,30.03,NNW,336,0.0,0.0,60,0.00,,---,0.00,VWS V14.01,2013-03-24 07:20:00,
2013-03-24 03:21:00,31.9,19.6,30.03,NNW,336,0.0,0.0,60,0.00,,---,0.00,VWS V14.01,2013-03-24 07:21:00,
2013-03-24 03:22:00,31.9,19.6,30.03,NNW,336,0.0,0.0,60,0.00,,---,0.00,VWS V14.01,2013-03-24 07:22:00,
2013-03-24 03:23:00,31.9,19.6,30.03,NNW,336,0.0,0.0,60,0.00,,---,0.00,VWS V14.01,2013-03-24 07:23:00,
2013-03-24 03:24:00,31.9,19.6,30.03,NNW,336,0.0,0.0,60,0.00,,---,0.00,VWS V14.01,2013-03-24 07:24:00,
2013-03-24 03:25:00,31.9,19.6,30.03,NNW,336,0.0,0.0,60,0.00,,---,0.00,VWS V14.01,2013-03-24 07:25:00,
2013-03-24 03:26:00,31.9,19.6,30.03,NNW,336,0.0,0.0,60,0.00,,---,0.00,VWS V14.01,2013-03-24 07:26:00,
2013-03-24 03:27:00,31.8,19.5,30.03,NNW,336,0.0,0.0,60,0.00,,---,0.00,VWS V14.01,2013-03-24 07:27:00,
2013-03-24 03:29:00,31.8,19.5,30.03,NNW,336,0.0,0.0,60,0.00,,---,0.00,VWS V14.01,2013-03-24 07:29:00,
2013-03-24 03:30:00,31.8,19.5,30.03,NNW,336,0.0,0.0,60,0.00,,---,0.00,VWS V14.01,2013-03-24 07:30:00,
2013-03-24 03:31:00,31.6,19.7,30.03,NNW,336,0.0,0.0,61,0.00,,---,0.00,VWS V14.01,2013-03-24 07:31:00,
2013-03-24 03:32:00,31.5,19.2,30.03,NNW,336,0.0,0.0,60,0.00,,---,0.00,VWS V14.01,2013-03-24 07:32:00,
2013-03-24 03:33:00,31.5,19.2,30.03,NNW,336,0.0,0.0,60,0.00,,---,0.00,VWS V14.01,2013-03-24 07:33:00,
2013-03-24 03:34:00,31.3,19.4,30.03,NNW,336,0.0,0.0,61,0.00,,---,0.00,VWS V14.01,2013-03-24 07:34:00,
2013-03-24 03:35:00,31.3,19.4,30.03,NNW,336,0.0,0.0,61,0.00,,---,0.00,VWS V14.01,2013-03-24 07:35:00,
2013-03-24 03:36:00,31.3,19.4,30.03,NNW,336,0.0,0.0,61,0.00,,---,0.00,VWS V14.01,2013-03-24 07:36:00,
2013-03-24 03:37:00,31.2,19.3,30.03,NNW,336,0.0,0.0,61,0.00,,---,0.00,VWS V14.01,2013-03-24 07:37:00,
2013-03-24 03:38:00,31.0,19.1,30.03,NNW,336,0.0,0.0,61,0.00,,---,0.00,VWS V14.01,2013-03-24 07:38:00,
2013-03-24 03:39:00,30.9,19.0,30.03,NNW,336,0.0,0.0,61,0.00,,---,0.00,VWS V14.01,2013-03-24 07:39:00,
2013-03-24 03:40:00,30.9,19.0,30.03,NNW,336,0.0,0.0,61,0.00,,---,0.00,VWS V14.01,2013-03-24 07:40:00,
2013-03-24 03:41:00,30.7,18.9,30.03,NNW,336,0.0,0.0,61,0.00,,---,0.00,VWS V14.01,2013-03-24 07:41:00,
2013-03-24 03:42:00,30.7,18.9,30.03,NNW,336,0.0,0.0,61,0.00,,---,0.00,VWS V14.01,2013-03-24 07:42:00,
2013-03-24 03:43:00,30.6,18.8,30.03,NNW,336,0.0,0.0,61,0.00,,---,0.00,VWS V14.01,2013-03-24 07:43:00,
2013-03-24 03:44:00,30.6,18.8,30.03,NNW,336,0.0,0.0,61,0.00,,---,0.00,VWS V14.01,2013-03-24 07:44:00,
2013-03-24 03:45:00,30.6,18.8,30.03,NNW,336,0.0,0.0,61,0.00,,---,0.00,VWS V14.01,2013-03-24 07:45:00,
2013-03-24 03:46:00,30.4,18.6,30.03,NNW,336,0.0,0.0,61,0.00,,---,0.00,VWS V14.01,2013-03-24 07:46:00,
2013-03-24 03:48:00,30.3,18.9,30.03,NNW,336,0.0,0.0,62,0.00,,---,0.00,VWS V14.01,2013-03-24 07:48:00,
2013-03-24 03:50:00,30.1,18.7,30.03,NNW,336,0.0,0.0,62,0.00,,---,0.00,VWS V14.01,2013-03-24 07:50:00,
2013-03-24 03:51:00,30.1,18.7,30.03,NNW,336,0.0,0.0,62,0.00,,---,0.00,VWS V14.01,2013-03-24 07:51:00,
2013-03-24 03:53:00,30.0,18.6,30.03,NNW,336,0.0,0.0,62,0.00,,---,0.00,VWS V14.01,2013-03-24 07:53:00,
2013-03-24 03:54:00,29.8,18.4,30.03,NNW,336,0.0,0.0,62,0.00,,---,0.00,VWS V14.01,2013-03-24 07:54:00,
2013-03-24 03:55:00,29.8,18.4,30.03,NNW,336,0.0,0.0,62,0.00,,---,0.00,VWS V14.01,2013-03-24 07:55:00,
2013-03-24 03:56:00,29.8,18.4,30.03,NNW,336,0.0,0.0,62,0.00,,---,0.00,VWS V14.01,2013-03-24 07:56:00,
2013-03-24 03:58:00,29.7,18.3,30.03,NNW,336,0.0,0.0,62,0.00,,---,0.00,VWS V14.01,2013-03-24 07:58:00,
2013-03-24 03:59:00,29.8,18.4,30.03,NNW,336,0.0,0.0,62,0.00,,---,0.00,VWS V14.01,2013-03-24 07:59:00,
2013-03-24 04:00:00,29.7,18.3,30.03,NNW,336,0.0,0.0,62,0.00,,---,0.00,VWS V14.01,2013-03-24 08:00:00,
2013-03-24 04:01:00,29.7,18.3,30.03,NNW,336,0.0,0.0,62,0.00,,---,0.00,VWS V14.01,2013-03-24 08:01:00,
2013-03-24 04:02:00,29.5,18.5,30.03,NNW,336,0.0,0.0,63,0.00,,---,0.00,VWS V14.01,2013-03-24 08:02:00,
2013-03-24 04:04:00,29.4,18.4,30.03,NNW,336,0.0,0.0,63,0.00,,---,0.00,VWS V14.01,2013-03-24 08:04:00,
2013-03-24 04:05:00,29.4,18.4,30.03,NNW,336,0.0,0.0,63,0.00,,---,0.00,VWS V14.01,2013-03-24 08:05:00,
2013-03-24 04:06:00,29.4,18.4,30.03,NNW,336,0.0,0.0,63,0.00,,---,0.00,VWS V14.01,2013-03-24 08:06:00,
2013-03-24 04:07:00,29.3,18.3,30.03,NNW,336,0.0,0.0,63,0.00,,---,0.00,VWS V14.01,2013-03-24 08:07:00,
2013-03-24 04:08:00,29.3,18.3,30.03,NNW,336,0.0,0.0,63,0.00,,---,0.00,VWS V14.01,2013-03-24 08:08:00,
2013-03-24 04:09:00,29.1,18.1,30.03,NNW,336,0.0,0.0,63,0.00,,---,0.00,VWS V14.01,2013-03-24 08:09:00,
2013-03-24 04:10:00,29.1,18.5,30.03,NNW,336,0.0,0.0,64,0.00,,---,0.00,VWS V14.01,2013-03-24 08:10:00,
2013-03-24 04:11:00,29.0,18.4,30.03,NNW,336,0.0,0.0,64,0.00,,---,0.00,VWS V14.01,2013-03-24 08:11:00,
2013-03-24 04:12:00,28.8,18.2,30.03,NNW,336,0.0,0.0,64,0.00,,---,0.00,VWS V14.01,2013-03-24 08:12:00,
2013-03-24 04:13:00,28.8,18.2,30.03,NNW,336,0.0,0.0,64,0.00,,---,0.00,VWS V14.01,2013-03-24 08:13:00,
2013-03-24 04:14:00,28.7,18.4,30.05,NNW,336,0.0,0.0,65,0.00,,---,0.00,VWS V14.01,2013-03-24 08:14:00,
2013-03-24 04:15:00,28.5,18.2,30.05,NNW,336,0.0,0.0,65,0.00,,---,0.00,VWS V14.01,2013-03-24 08:15:00,
2013-03-24 04:16:00,28.5,18.2,30.05,NNW,336,0.0,0.0,65,0.00,,---,0.00,VWS V14.01,2013-03-24 08:16:00,
2013-03-24 04:17:00,28.4,18.1,30.05,NNW,336,0.0,0.0,65,0.00,,---,0.00,VWS V14.01,2013-03-24 08:17:00,
2013-03-24 04:18:00,28.4,18.1,30.05,NNW,336,0.0,0.0,65,0.00,,---,0.00,VWS V14.01,2013-03-24 08:18:00,
2013-03-24 04:19:00,28.2,18.0,30.05,NNW,336,0.0,0.0,65,0.00,,---,0.00,VWS V14.01,2013-03-24 08:19:00,
2013-03-24 04:20:00,28.2,18.0,30.05,NNW,336,0.0,0.0,65,0.00,,---,0.00,VWS V14.01,2013-03-24 08:20:00,
2013-03-24 04:21:00,28.2,18.3,30.05,NNW,336,0.0,0.0,66,0.00,,---,0.00,VWS V14.01,2013-03-24 08:21:00,
2013-03-24 04:22:00,28.2,18.3,30.05,NNW,336,0.0,0.0,66,0.00,,---,0.00,VWS V14.01,2013-03-24 08:22:00,
2013-03-24 04:23:00,28.2,18.3,30.05,NNW,336,0.0,0.0,66,0.00,,---,0.00,VWS V14.01,2013-03-24 08:23:00,
2013-03-24 04:24:00,28.4,18.5,30.05,NNW,336,0.0,0.0,66,0.00,,---,0.00,VWS V14.01,2013-03-24 08:24:00,
2013-03-24 04:25:00,28.4,18.1,30.05,NNW,336,0.0,0.0,65,0.00,,---,0.00,VWS V14.01,2013-03-24 08:25:00,
2013-03-24 04:26:00,28.4,18.1,30.05,NNW,336,0.0,0.0,65,0.00,,---,0.00,VWS V14.01,2013-03-24 08:26:00,
2013-03-24 04:27:00,28.4,18.1,30.05,NNW,336,0.0,0.0,65,0.00,,---,0.00,VWS V14.01,2013-03-24 08:27:00,
2013-03-24 04:29:00,28.2,18.3,30.05,NNW,336,0.0,0.0,66,0.00,,---,0.00,VWS V14.01,2013-03-24 08:29:00,
2013-03-24 04:30:00,28.2,18.3,30.05,NNW,336,0.0,0.0,66,0.00,,---,0.00,VWS V14.01,2013-03-24 08:30:00,
2013-03-24 04:31:00,28.2,18.3,30.05,NNW,336,0.0,0.0,66,0.00,,---,0.00,VWS V14.01,2013-03-24 08:31:00,
2013-03-24 04:32:00,28.2,18.3,30.05,NNW,336,0.0,0.0,66,0.00,,---,0.00,VWS V14.01,2013-03-24 08:32:00,
2013-03-24 04:33:00,28.1,18.2,30.05,NNW,336,0.0,0.0,66,0.00,,---,0.00,VWS V14.01,2013-03-24 08:33:00,
2013-03-24 04:35:00,28.1,18.2,30.05,NNW,336,0.0,0.0,66,0.00,,---,0.00,VWS V14.01,2013-03-24 08:35:00,
2013-03-24 04:36:00,28.1,18.2,30.05,NNW,336,0.0,0.0,66,0.00,,---,0.00,VWS V14.01,2013-03-24 08:36:00,
2013-03-24 04:37:00,27.9,18.0,30.05,NNW,336,0.0,0.0,66,0.00,,---,0.00,VWS V14.01,2013-03-24 08:37:00,
2013-03-24 04:38:00,27.9,18.0,30.05,NNW,336,0.0,0.0,66,0.00,,---,0.00,VWS V14.01,2013-03-24 08:38:00,
2013-03-24 04:39:00,27.8,17.9,30.05,NNW,336,0.0,0.0,66,0.00,,---,0.00,VWS V14.01,2013-03-24 08:39:00,
2013-03-24 04:40:00,27.8,18.3,30.05,NNW,336,0.0,0.0,67,0.00,,---,0.00,VWS V14.01,2013-03-24 08:40:00,
2013-03-24 04:41:00,27.6,18.1,30.05,NNW,336,0.0,0.0,67,0.00,,---,0.00,VWS V14.01,2013-03-24 08:41:00,
2013-03-24 04:42:00,27.6,18.1,30.05,NNW,336,0.0,0.0,67,0.00,,---,0.00,VWS V14.01,2013-03-24 08:42:00,
2013-03-24 04:43:00,27.6,18.1,30.05,NNW,336,0.0,0.0,67,0.00,,---,0.00,VWS V14.01,2013-03-24 08:43:00,
2013-03-24 04:44:00,27.6,18.1,30.05,NNW,336,0.0,0.0,67,0.00,,---,0.00,VWS V14.01,2013-03-24 08:44:00,
2013-03-24 04:45:00,27.5,18.0,30.07,NNW,336,0.0,0.0,67,0.00,,---,0.00,VWS V14.01,2013-03-24 08:45:00,
2013-03-24 04:46:00,27.5,18.0,30.07,NNW,336,0.0,0.0,67,0.00,,---,0.00,VWS V14.01,2013-03-24 08:46:00,
2013-03-24 04:47:00,27.5,18.0,30.07,NNW,336,0.0,0.0,67,0.00,,---,0.00,VWS V14.01,2013-03-24 08:47:00,
2013-03-24 04:48:00,27.5,18.3,30.07,NNW,336,0.0,0.0,68,0.00,,---,0.00,VWS V14.01,2013-03-24 08:48:00,
2013-03-24 04:49:00,27.5,18.3,30.07,NNW,336,0.0,0.0,68,0.00,,---,0.00,VWS V14.01,2013-03-24 08:49:00,
2013-03-24 04:50:00,27.3,18.1,30.07,NNW,336,0.0,0.0,68,0.00,,---,0.00,VWS V14.01,2013-03-24 08:50:00,
2013-03-24 04:51:00,27.3,18.1,30.07,NNW,336,0.0,0.0,68,0.00,,---,0.00,VWS V14.01,2013-03-24 08:51:00,
2013-03-24 04:52:00,27.3,18.1,30.07,NNW,336,0.0,0.0,68,0.00,,---,0.00,VWS V14.01,2013-03-24 08:52:00,
2013-03-24 04:54:00,27.2,18.0,30.07,NNW,336,0.0,0.0,68,0.00,,---,0.00,VWS V14.01,2013-03-24 08:54:00,
2013-03-24 04:55:00,27.2,18.0,30.07,NNW,336,0.0,0.0,68,0.00,,---,0.00,VWS V14.01,2013-03-24 08:55:00,
2013-03-24 04:56:00,27.2,18.0,30.07,NNW,336,0.0,0.0,68,0.00,,---,0.00,VWS V14.01,2013-03-24 08:56:00,
2013-03-24 04:57:00,27.0,18.2,30.07,NNW,336,0.0,0.0,69,0.00,,---,0.00,VWS V14.01,2013-03-24 08:57:00,
2013-03-24 04:59:00,26.9,18.1,30.07,NNW,336,0.0,0.0,69,0.00,,---,0.00,VWS V14.01,2013-03-24 08:59:00,
2013-03-24 05:00:00,26.9,18.1,30.07,NNW,336,0.0,0.0,69,0.00,,---,0.00,VWS V14.01,2013-03-24 09:00:00,
2013-03-24 05:01:00,26.7,18.2,30.07,NNW,336,0.0,0.0,70,0.00,,---,0.00,VWS V14.01,2013-03-24 09:01:00,
2013-03-24 05:02:00,26.7,18.2,30.07,NNW,336,0.0,0.0,70,0.00,,---,0.00,VWS V14.01,2013-03-24 09:02:00,
2013-03-24 05:03:00,26.7,18.2,30.07,NNW,336,0.0,0.0,70,0.00,,---,0.00,VWS V14.01,2013-03-24 09:03:00,
2013-03-24 05:04:00,26.6,18.5,30.07,NNW,336,0.0,0.0,71,0.00,,---,0.00,VWS V14.01,2013-03-24 09:04:00,
2013-03-24 05:05:00,26.6,18.5,30.07,NNW,336,0.0,0.0,71,0.00,,---,0.00,VWS V14.01,2013-03-24 09:05:00,
2013-03-24 05:06:00,26.6,18.8,30.07,NNW,336,0.0,0.0,72,0.00,,---,0.00,VWS V14.01,2013-03-24 09:06:00,
2013-03-24 05:07:00,26.4,18.6,30.07,NNW,336,0.0,0.0,72,0.00,,---,0.00,VWS V14.01,2013-03-24 09:07:00,
2013-03-24 05:08:00,26.4,18.6,30.07,NNW,336,0.0,0.0,72,0.00,,---,0.00,VWS V14.01,2013-03-24 09:08:00,
2013-03-24 05:09:00,26.4,18.6,30.07,NNW,336,0.0,0.0,72,0.00,,---,0.00,VWS V14.01,2013-03-24 09:09:00,
2013-03-24 05:10:00,26.4,18.6,30.07,NNW,336,0.0,0.0,72,0.00,,---,0.00,VWS V14.01,2013-03-24 09:10:00,
2013-03-24 05:11:00,26.3,18.5,30.07,NNW,336,0.0,0.0,72,0.00,,---,0.00,VWS V14.01,2013-03-24 09:11:00,
2013-03-24 05:12:00,26.3,18.5,30.07,NNW,336,0.0,0.0,72,0.00,,---,0.00,VWS V14.01,2013-03-24 09:12:00,
2013-03-24 05:13:00,26.3,18.5,30.07,NNW,336,0.0,0.0,72,0.00,,---,0.00,VWS V14.01,2013-03-24 09:13:00,
2013-03-24 05:14:00,26.3,18.5,30.07,NNW,336,0.0,0.0,72,0.00,,---,0.00,VWS V14.01,2013-03-24 09:14:00,
2013-03-24 05:15:00,26.3,18.5,30.07,NNW,336,0.0,0.0,72,0.00,,---,0.00,VWS V14.01,2013-03-24 09:15:00,
2013-03-24 05:16:00,26.3,18.5,30.07,NNW,336,0.0,0.0,72,0.00,,---,0.00,VWS V14.01,2013-03-24 09:16:00,
2013-03-24 05:17:00,26.3,18.5,30.07,NNW,336,0.0,0.0,72,0.00,,---,0.00,VWS V14.01,2013-03-24 09:17:00,
2013-03-24 05:18:00,26.3,18.5,30.07,NNW,336,0.0,0.0,72,0.00,,---,0.00,VWS V14.01,2013-03-24 09:18:00,
2013-03-24 05:19:00,26.3,18.5,30.07,NNW,336,0.0,0.0,72,0.00,,---,0.00,VWS V14.01,2013-03-24 09:19:00,
2013-03-24 05:20:00,26.1,18.3,30.07,NNW,336,0.0,0.0,72,0.00,,---,0.00,VWS V14.01,2013-03-24 09:20:00,
2013-03-24 05:21:00,26.1,18.3,30.07,NNW,336,0.0,0.0,72,0.00,,---,0.00,VWS V14.01,2013-03-24 09:21:00,
2013-03-24 05:22:00,26.1,18.3,30.07,NNW,336,0.0,0.0,72,0.00,,---,0.00,VWS V14.01,2013-03-24 09:22:00,
2013-03-24 05:23:00,26.1,18.3,30.07,NNW,336,0.0,0.0,72,0.00,,---,0.00,VWS V14.01,2013-03-24 09:23:00,
2013-03-24 05:24:00,26.1,18.3,30.07,NNW,336,0.0,0.0,72,0.00,,---,0.00,VWS V14.01,2013-03-24 09:24:00,
2013-03-24 05:25:00,26.1,18.3,30.07,NNW,336,0.0,0.0,72,0.00,,---,0.00,VWS V14.01,2013-03-24 09:25:00,
2013-03-24 05:26:00,26.0,18.2,30.07,NNW,336,0.0,0.0,72,0.00,,---,0.00,VWS V14.01,2013-03-24 09:26:00,
2013-03-24 05:27:00,26.0,18.2,30.07,NNW,336,0.0,0.0,72,0.00,,---,0.00,VWS V14.01,2013-03-24 09:27:00,
2013-03-24 05:28:00,26.0,18.5,30.07,NNW,336,0.0,0.0,73,0.00,,---,0.00,VWS V14.01,2013-03-24 09:28:00,
2013-03-24 05:29:00,26.0,18.5,30.07,NNW,336,0.0,0.0,73,0.00,,---,0.00,VWS V14.01,2013-03-24 09:29:00,
2013-03-24 05:30:00,26.0,18.5,30.07,NNW,336,0.0,0.0,73,0.00,,---,0.00,VWS V14.01,2013-03-24 09:30:00,
2013-03-24 05:31:00,26.0,18.5,30.07,NNW,336,0.0,0.0,73,0.00,,---,0.00,VWS V14.01,2013-03-24 09:31:00,
2013-03-24 05:32:00,26.0,18.5,30.07,NNW,336,0.0,0.0,73,0.00,,---,0.00,VWS V14.01,2013-03-24 09:32:00,
2013-03-24 05:33:00,26.0,18.5,30.07,NNW,336,0.0,0.0,73,0.00,,---,0.00,VWS V14.01,2013-03-24 09:33:00,
2013-03-24 05:34:00,26.0,18.5,30.07,NNW,336,0.0,0.0,73,0.00,,---,0.00,VWS V14.01,2013-03-24 09:34:00,
2013-03-24 05:35:00,26.0,18.5,30.07,NNW,336,0.0,0.0,73,0.00,,---,0.00,VWS V14.01,2013-03-24 09:35:00,
2013-03-24 05:36:00,26.0,18.5,30.07,NNW,336,0.0,0.0,73,0.00,,---,0.00,VWS V14.01,2013-03-24 09:36:00,
2013-03-24 05:37:00,26.0,18.5,30.07,NNW,336,0.0,0.0,73,0.00,,---,0.00,VWS V14.01,2013-03-24 09:37:00,
2013-03-24 05:38:00,26.0,18.5,30.07,NNW,336,0.0,0.0,73,0.00,,---,0.00,VWS V14.01,2013-03-24 09:38:00,
2013-03-24 05:39:00,26.0,18.5,30.07,NNW,336,0.0,0.0,73,0.00,,---,0.00,VWS V14.01,2013-03-24 09:39:00,
2013-03-24 05:40:00,26.0,18.5,30.07,NNW,336,0.0,0.0,73,0.00,,---,0.00,VWS V14.01,2013-03-24 09:40:00,
2013-03-24 05:41:00,26.0,18.5,30.07,NNW,336,0.0,0.0,73,0.00,,---,0.00,VWS V14.01,2013-03-24 09:41:00,
2013-03-24 05:42:00,26.0,18.2,30.07,NNW,336,0.0,0.0,72,0.00,,---,0.00,VWS V14.01,2013-03-24 09:42:00,
2013-03-24 05:43:00,26.0,18.2,30.07,NNW,336,0.0,0.0,72,0.00,,---,0.00,VWS V14.01,2013-03-24 09:43:00,
2013-03-24 05:44:00,26.0,18.2,30.06,NNW,336,0.0,0.0,72,0.00,,---,0.00,VWS V14.01,2013-03-24 09:44:00,
2013-03-24 05:45:00,26.0,18.2,30.06,NNW,336,0.0,0.0,72,0.00,,---,0.00,VWS V14.01,2013-03-24 09:45:00,
2013-03-24 05:46:00,26.0,18.2,30.06,NNW,336,0.0,0.0,72,0.00,,---,0.00,VWS V14.01,2013-03-24 09:46:00,
2013-03-24 05:47:00,25.8,17.7,30.06,NNW,336,0.0,0.0,71,0.00,,---,0.00,VWS V14.01,2013-03-24 09:47:00,
2013-03-24 05:48:00,25.8,17.7,30.06,NNW,336,0.0,0.0,71,0.00,,---,0.00,VWS V14.01,2013-03-24 09:48:00,
2013-03-24 05:49:00,25.8,17.7,30.06,NNW,336,0.0,0.0,71,0.00,,---,0.00,VWS V14.01,2013-03-24 09:49:00,
2013-03-24 05:50:00,25.8,18.0,30.06,NNW,336,0.0,0.0,72,0.00,,---,0.00,VWS V14.01,2013-03-24 09:50:00,
2013-03-24 05:52:00,25.8,17.7,30.06,NNW,336,0.0,0.0,71,0.00,,---,0.00,VWS V14.01,2013-03-24 09:52:00,
2013-03-24 05:53:00,25.7,17.6,30.06,NNW,336,0.0,0.0,71,0.00,,---,0.00,VWS V14.01,2013-03-24 09:53:00,
2013-03-24 05:54:00,25.7,17.9,30.06,NNW,336,0.0,0.0,72,0.00,,---,0.00,VWS V14.01,2013-03-24 09:54:00,
2013-03-24 05:55:00,25.7,17.9,30.06,NNW,336,0.0,0.0,72,0.00,,---,0.00,VWS V14.01,2013-03-24 09:55:00,
2013-03-24 05:56:00,25.7,17.9,30.06,NNW,336,0.0,0.0,72,0.00,,---,0.00,VWS V14.01,2013-03-24 09:56:00,
2013-03-24 05:57:00,25.7,17.9,30.06,NNW,336,0.0,0.0,72,0.00,,---,0.00,VWS V14.01,2013-03-24 09:57:00,
2013-03-24 05:58:00,25.6,17.8,30.06,NNW,336,0.0,0.0,72,0.00,,---,0.00,VWS V14.01,2013-03-24 09:58:00,
2013-03-24 05:59:00,25.6,17.8,30.06,NNW,336,0.0,0.0,72,0.00,,---,0.00,VWS V14.01,2013-03-24 09:59:00,
2013-03-24 06:00:00,25.6,17.8,30.06,NNW,336,0.0,0.0,72,0.00,,---,0.00,VWS V14.01,2013-03-24 10:00:00,
2013-03-24 06:01:00,25.6,18.2,30.06,NNW,336,0.0,0.0,73,0.00,,---,0.00,VWS V14.01,2013-03-24 10:01:00,
2013-03-24 06:02:00,25.4,18.0,30.06,NNW,336,0.0,0.0,73,0.00,,---,0.00,VWS V14.01,2013-03-24 10:02:00,
2013-03-24 06:03:00,25.4,18.0,30.06,NNW,336,0.0,0.0,73,0.00,,---,0.00,VWS V14.01,2013-03-24 10:03:00,
2013-03-24 06:04:00,25.4,18.0,30.06,NNW,336,0.0,0.0,73,0.00,,---,0.00,VWS V14.01,2013-03-24 10:04:00,
2013-03-24 06:05:00,25.4,18.0,30.06,NNW,336,0.0,0.0,73,0.00,,---,0.00,VWS V14.01,2013-03-24 10:05:00,
2013-03-24 06:06:00,25.4,18.0,30.06,NNW,336,0.0,0.0,73,0.00,,---,0.00,VWS V14.01,2013-03-24 10:06:00,
2013-03-24 06:07:00,25.4,18.0,30.06,NNW,336,0.0,0.0,73,0.00,,---,0.00,VWS V14.01,2013-03-24 10:07:00,
2013-03-24 06:08:00,25.4,18.0,30.06,NNW,336,0.0,0.0,73,0.00,,---,0.00,VWS V14.01,2013-03-24 10:08:00,
2013-03-24 06:09:00,25.4,18.0,30.06,NNW,336,0.0,0.0,73,0.00,,---,0.00,VWS V14.01,2013-03-24 10:09:00,
2013-03-24 06:10:00,25.4,18.3,30.06,NNW,336,0.0,0.0,74,0.00,,---,0.00,VWS V14.01,2013-03-24 10:10:00,
2013-03-24 06:11:00,25.4,18.3,30.06,NNW,336,0.0,0.0,74,0.00,,---,0.00,VWS V14.01,2013-03-24 10:11:00,
2013-03-24 06:12:00,25.4,18.3,30.06,NNW,336,0.0,0.0,74,0.00,,---,0.00,VWS V14.01,2013-03-24 10:12:00,
2013-03-24 06:13:00,25.4,18.0,30.06,NNW,336,0.0,0.0,73,0.00,,---,0.00,VWS V14.01,2013-03-24 10:13:00,
2013-03-24 06:14:00,25.4,18.0,30.06,NNW,336,0.0,0.0,73,0.00,,---,0.00,VWS V14.01,2013-03-24 10:14:00,
2013-03-24 06:15:00,25.4,18.3,30.06,NNW,336,0.0,0.0,74,0.00,,---,0.00,VWS V14.01,2013-03-24 10:15:00,
2013-03-24 06:16:00,25.4,18.3,30.06,NNW,336,0.0,0.0,74,0.00,,---,0.00,VWS V14.01,2013-03-24 10:16:00,
2013-03-24 06:17:00,25.4,18.3,30.06,NNW,336,0.0,0.0,74,0.00,,---,0.00,VWS V14.01,2013-03-24 10:17:00,
2013-03-24 06:19:00,25.4,18.3,30.06,NNW,336,0.0,0.0,74,0.00,,---,0.00,VWS V14.01,2013-03-24 10:19:00,
2013-03-24 06:20:00,25.6,18.8,30.06,NNW,336,0.0,0.0,75,0.00,,---,0.00,VWS V14.01,2013-03-24 10:20:00,
2013-03-24 06:21:00,25.6,18.8,30.06,NNW,336,0.0,0.0,75,0.00,,---,0.00,VWS V14.01,2013-03-24 10:21:00,
2013-03-24 06:22:00,25.6,18.8,30.06,NNW,336,0.0,0.0,75,0.00,,---,0.00,VWS V14.01,2013-03-24 10:22:00,
2013-03-24 06:23:00,25.6,18.8,30.06,NNW,336,0.0,0.0,75,0.00,,---,0.00,VWS V14.01,2013-03-24 10:23:00,
2013-03-24 06:24:00,25.7,19.2,30.06,NNW,336,0.0,0.0,76,0.00,,---,0.00,VWS V14.01,2013-03-24 10:24:00,
2013-03-24 06:25:00,25.7,19.2,30.06,NNW,336,0.0,0.0,76,0.00,,---,0.00,VWS V14.01,2013-03-24 10:25:00,
2013-03-24 06:26:00,25.7,19.2,30.06,NNW,336,0.0,0.0,76,0.00,,---,0.00,VWS V14.01,2013-03-24 10:26:00,
2013-03-24 06:27:00,25.8,19.3,30.06,NNW,336,0.0,0.0,76,0.00,,---,0.00,VWS V14.01,2013-03-24 10:27:00,
2013-03-24 06:28:00,25.8,19.3,30.06,NNW,336,0.0,0.0,76,0.00,,---,0.00,VWS V14.01,2013-03-24 10:28:00,
2013-03-24 06:29:00,25.8,19.3,30.06,NNW,336,0.0,0.0,76,0.00,,---,0.00,VWS V14.01,2013-03-24 10:29:00,
2013-03-24 06:30:00,26.0,19.5,30.06,NNW,336,0.0,0.0,76,0.00,,---,0.00,VWS V14.01,2013-03-24 10:30:00,
2013-03-24 06:31:00,26.0,19.5,30.06,NNW,336,0.0,0.0,76,0.00,,---,0.00,VWS V14.01,2013-03-24 10:31:00,
2013-03-24 06:32:00,26.1,19.6,30.06,NNW,336,0.0,0.0,76,0.00,,---,0.00,VWS V14.01,2013-03-24 10:32:00,
2013-03-24 06:33:00,26.3,19.8,30.06,NNW,336,0.0,0.0,76,0.00,,---,0.00,VWS V14.01,2013-03-24 10:33:00,
2013-03-24 06:34:00,26.3,20.1,30.06,NNW,336,0.0,0.0,77,0.00,,---,0.00,VWS V14.01,2013-03-24 10:34:00,
2013-03-24 06:35:00,26.4,20.2,30.06,NNW,336,0.0,0.0,77,0.00,,---,0.00,VWS V14.01,2013-03-24 10:35:00,
2013-03-24 06:36:00,26.6,20.4,30.06,NNW,336,0.0,0.0,77,0.00,,---,0.00,VWS V14.01,2013-03-24 10:36:00,
2013-03-24 06:37:00,26.6,20.4,30.06,NNW,336,0.0,0.0,77,0.00,,---,0.00,VWS V14.01,2013-03-24 10:37:00,
2013-03-24 06:38:00,26.7,20.2,30.06,NNW,336,0.0,0.0,76,0.00,,---,0.00,VWS V14.01,2013-03-24 10:38:00,
2013-03-24 06:39:00,26.7,20.2,30.06,NNW,336,0.0,0.0,76,0.00,,---,0.00,VWS V14.01,2013-03-24 10:39:00,
2013-03-24 06:40:00,26.9,20.4,30.06,NNW,336,0.0,0.0,76,0.00,,---,0.00,VWS V14.01,2013-03-24 10:40:00,
2013-03-24 06:41:00,27.0,20.5,30.06,NNW,336,0.0,0.0,76,0.00,,---,0.00,VWS V14.01,2013-03-24 10:41:00,
2013-03-24 06:42:00,27.2,20.6,30.06,NNW,336,0.0,0.0,76,0.00,,---,0.00,VWS V14.01,2013-03-24 10:42:00,
2013-03-24 06:43:00,27.3,20.8,30.06,NNW,336,0.0,0.0,76,0.00,,---,0.00,VWS V14.01,2013-03-24 10:43:00,
2013-03-24 06:44:00,27.5,20.6,30.07,NNW,336,0.0,2.0,75,0.00,,---,0.00,VWS V14.01,2013-03-24 10:44:00,
2013-03-24 06:45:00,27.6,20.7,30.07,NNW,336,1.0,3.0,75,0.00,,---,0.00,VWS V14.01,2013-03-24 10:45:00,
2013-03-24 06:46:00,27.6,20.4,30.07,NNW,336,0.0,3.0,74,0.00,,---,0.00,VWS V14.01,2013-03-24 10:46:00,
2013-03-24 06:47:00,27.8,20.6,30.07,NNW,336,0.0,3.0,74,0.00,,---,0.00,VWS V14.01,2013-03-24 10:47:00,
2013-03-24 06:48:00,27.8,20.6,30.07,NNW,336,0.0,3.0,74,0.00,,---,0.00,VWS V14.01,2013-03-24 10:48:00,
2013-03-24 06:49:00,27.8,20.6,30.07,NNW,336,0.0,3.0,74,0.00,,---,0.00,VWS V14.01,2013-03-24 10:49:00,
2013-03-24 06:50:00,27.8,20.3,30.07,NNW,336,0.0,3.0,73,0.00,,---,0.00,VWS V14.01,2013-03-24 10:50:00,
2013-03-24 06:51:00,27.8,20.3,30.07,NNW,336,0.0,3.0,73,0.00,,---,0.00,VWS V14.01,2013-03-24 10:51:00,
2013-03-24 06:52:00,27.8,20.6,30.07,NNW,336,0.0,3.0,74,0.00,,---,0.00,VWS V14.01,2013-03-24 10:52:00,
2013-03-24 06:53:00,27.8,20.6,30.07,NNW,336,0.0,3.0,74,0.00,,---,0.00,VWS V14.01,2013-03-24 10:53:00,
2013-03-24 06:54:00,27.8,20.6,30.07,NNW,336,0.0,3.0,74,0.00,,---,0.00,VWS V14.01,2013-03-24 10:54:00,
2013-03-24 06:55:00,27.9,20.7,30.07,NNW,336,0.0,3.0,74,0.00,,---,0.00,VWS V14.01,2013-03-24 10:55:00,
2013-03-24 06:56:00,27.9,20.7,30.07,NNW,336,0.0,3.0,74,0.00,,---,0.00,VWS V14.01,2013-03-24 10:56:00,
2013-03-24 06:58:00,27.9,20.7,30.07,NNW,336,0.0,3.0,74,0.00,,---,0.00,VWS V14.01,2013-03-24 10:58:00,
2013-03-24 06:59:00,28.1,20.9,30.07,NNW,336,0.0,3.0,74,0.00,,---,0.00,VWS V14.01,2013-03-24 10:59:00,
2013-03-24 07:00:00,28.1,20.9,30.07,NNW,336,0.0,3.0,74,0.00,,---,0.00,VWS V14.01,2013-03-24 11:00:00,
2013-03-24 07:01:00,28.2,21.0,30.07,NNW,336,0.0,0.0,74,0.00,,---,0.00,VWS V14.01,2013-03-24 11:01:00,
2013-03-24 07:02:00,28.4,21.2,30.07,NNW,336,0.0,0.0,74,0.00,,---,0.00,VWS V14.01,2013-03-24 11:02:00,
2013-03-24 07:03:00,28.5,21.0,30.07,NNW,336,0.0,0.0,73,0.00,,---,0.00,VWS V14.01,2013-03-24 11:03:00,
2013-03-24 07:04:00,28.7,21.1,30.07,NNW,336,0.0,0.0,73,0.00,,---,0.00,VWS V14.01,2013-03-24 11:04:00,
2013-03-24 07:05:00,28.8,21.2,30.07,NNW,336,0.0,0.0,73,0.00,,---,0.00,VWS V14.01,2013-03-24 11:05:00,
2013-03-24 07:06:00,29.0,21.4,30.07,NNW,336,0.0,0.0,73,0.00,,---,0.00,VWS V14.01,2013-03-24 11:06:00,
2013-03-24 07:07:00,29.1,21.2,30.07,NNW,336,0.0,0.0,72,0.00,,---,0.00,VWS V14.01,2013-03-24 11:07:00,
2013-03-24 07:08:00,29.3,21.4,30.07,NNW,336,0.0,0.0,72,0.00,,---,0.00,VWS V14.01,2013-03-24 11:08:00,
2013-03-24 07:10:00,29.5,21.3,30.07,NNW,333,2.0,4.0,71,0.00,,---,0.00,VWS V14.01,2013-03-24 11:10:00,
2013-03-24 07:11:00,29.7,20.8,30.07,NNW,333,2.0,4.0,69,0.00,,---,0.00,VWS V14.01,2013-03-24 11:11:00,
2013-03-24 07:12:00,29.8,20.5,30.07,NNW,333,0.0,4.0,68,0.00,,---,0.00,VWS V14.01,2013-03-24 11:12:00,
2013-03-24 07:13:00,30.0,21.1,30.07,NNW,333,0.0,4.0,69,0.00,,---,0.00,VWS V14.01,2013-03-24 11:13:00,
2013-03-24 07:14:00,30.1,21.2,30.07,NNW,333,0.0,4.0,69,0.00,,---,0.00,VWS V14.01,2013-03-24 11:14:00,
2013-03-24 07:15:00,30.4,21.5,30.07,NNW,333,0.0,4.0,69,0.00,,---,0.00,VWS V14.01,2013-03-24 11:15:00,
2013-03-24 07:16:00,30.9,21.2,30.07,NNW,333,0.0,4.0,67,0.00,,---,0.00,VWS V14.01,2013-03-24 11:16:00,
2013-03-24 07:17:00,31.2,21.2,30.07,NNW,333,0.0,4.0,66,0.00,,---,0.00,VWS V14.01,2013-03-24 11:17:00,
2013-03-24 07:19:00,32.1,20.9,30.07,NNW,334,0.0,4.0,63,0.00,,---,0.00,VWS V14.01,2013-03-24 11:19:00,
2013-03-24 07:20:00,32.4,20.5,30.07,NNW,334,2.0,4.0,61,0.00,,---,0.00,VWS V14.01,2013-03-24 11:20:00,
2013-03-24 07:21:00,32.7,20.8,30.07,NNW,333,2.0,4.0,61,0.00,,---,0.00,VWS V14.01,2013-03-24 11:21:00,
2013-03-24 07:22:00,32.8,20.5,30.07,WNW,303,3.0,6.0,60,0.00,,---,0.00,VWS V14.01,2013-03-24 11:22:00,
2013-03-24 07:24:00,33.5,19.1,30.07,WSW,248,5.0,10.0,55,0.00,,---,0.00,VWS V14.01,2013-03-24 11:24:00,
2013-03-24 07:25:00,33.7,19.3,30.07,WSW,248,1.0,10.0,55,0.00,,---,0.00,VWS V14.01,2013-03-24 11:25:00,
2013-03-24 07:26:00,33.8,18.9,30.07,WSW,244,5.0,10.0,54,0.00,,---,0.00,VWS V14.01,2013-03-24 11:26:00,
2013-03-24 07:27:00,34.0,18.7,30.07,SW,219,5.0,10.0,53,0.00,,---,0.00,VWS V14.01,2013-03-24 11:27:00,
2013-03-24 07:28:00,34.1,19.2,30.07,SW,219,0.0,10.0,54,0.00,,---,0.00,VWS V14.01,2013-03-24 11:28:00,
2013-03-24 07:29:00,34.3,19.4,30.06,SW,219,0.0,10.0,54,0.00,,---,0.00,VWS V14.01,2013-03-24 11:29:00,
2013-03-24 07:30:00,34.4,19.0,30.06,SW,219,2.0,10.0,53,0.00,,---,0.00,VWS V14.01,2013-03-24 11:30:00,
2013-03-24 07:31:00,34.7,19.3,30.06,West,276,1.0,6.0,53,0.00,,---,0.00,VWS V14.01,2013-03-24 11:31:00,
2013-03-24 07:32:00,34.9,19.1,30.06,West,276,0.0,6.0,52,0.00,,---,0.00,VWS V14.01,2013-03-24 11:32:00,
2013-03-24 07:33:00,34.9,19.5,30.06,West,269,11.0,12.0,53,0.00,,---,0.00,VWS V14.01,2013-03-24 11:33:00,
2013-03-24 07:34:00,35.0,18.7,30.06,SW,225,5.0,12.0,51,0.00,,---,0.00,VWS V14.01,2013-03-24 11:34:00,
2013-03-24 07:35:00,35.2,18.9,30.06,WSW,258,2.0,12.0,51,0.00,,---,0.00,VWS V14.01,2013-03-24 11:35:00,
2013-03-24 07:36:00,35.2,18.9,30.06,NW,324,3.0,12.0,51,0.00,,---,0.00,VWS V14.01,2013-03-24 11:36:00,
2013-03-24 07:37:00,35.3,18.5,30.06,SW,224,10.0,12.0,50,0.00,,---,0.00,VWS V14.01,2013-03-24 11:37:00,
2013-03-24 07:39:00,35.3,18.1,30.06,SW,231,0.0,12.0,49,0.00,,---,0.00,VWS V14.01,2013-03-24 11:39:00,
2013-03-24 07:41:00,35.6,18.8,30.06,WSW,242,1.0,12.0,50,0.00,,---,0.00,VWS V14.01,2013-03-24 11:41:00,
2013-03-24 07:43:00,35.6,18.3,30.06,West,269,3.0,12.0,49,0.00,,---,0.00,VWS V14.01,2013-03-24 11:43:00,
2013-03-24 07:45:00,35.8,19.0,30.06,SW,224,2.0,12.0,50,0.00,,---,0.00,VWS V14.01,2013-03-24 11:45:00,
2013-03-24 07:46:00,35.8,17.6,30.06,WSW,241,5.0,12.0,47,0.00,,---,0.00,VWS V14.01,2013-03-24 11:46:00,
2013-03-24 07:47:00,35.8,18.5,30.06,West,274,4.0,12.0,49,0.00,,---,0.00,VWS V14.01,2013-03-24 11:47:00,
2013-03-24 07:48:00,35.9,18.6,30.06,West,274,2.0,12.0,49,0.00,,---,0.00,VWS V14.01,2013-03-24 11:48:00,
2013-03-24 07:49:00,35.9,19.1,30.06,West,274,4.0,12.0,50,0.00,,---,0.00,VWS V14.01,2013-03-24 11:49:00,
2013-03-24 07:50:00,35.9,18.6,30.06,West,274,3.0,12.0,49,0.00,,---,0.00,VWS V14.01,2013-03-24 11:50:00,
2013-03-24 07:51:00,36.0,18.7,30.06,WNW,302,6.0,12.0,49,0.00,,---,0.00,VWS V14.01,2013-03-24 11:51:00,
2013-03-24 07:52:00,36.0,18.7,30.06,SW,233,9.0,12.0,49,0.00,,---,0.00,VWS V14.01,2013-03-24 11:52:00,
2013-03-24 07:53:00,36.0,18.7,30.06,WSW,240,5.0,12.0,49,0.00,,---,0.00,VWS V14.01,2013-03-24 11:53:00,
2013-03-24 07:54:00,36.0,18.2,30.06,SW,219,5.0,12.0,48,0.00,,---,0.00,VWS V14.01,2013-03-24 11:54:00,
2013-03-24 07:55:00,36.0,18.7,30.06,WSW,243,3.0,12.0,49,0.00,,---,0.00,VWS V14.01,2013-03-24 11:55:00,
2013-03-24 07:56:00,36.0,18.7,30.06,WSW,238,6.0,12.0,49,0.00,,---,0.00,VWS V14.01,2013-03-24 11:56:00,
2013-03-24 07:57:00,36.0,18.7,30.06,West,266,2.0,12.0,49,0.00,,---,0.00,VWS V14.01,2013-03-24 11:57:00,
2013-03-24 07:58:00,36.0,18.7,30.06,West,266,2.0,12.0,49,0.00,,---,0.00,VWS V14.01,2013-03-24 11:58:00,
2013-03-24 07:59:00,36.0,18.7,30.06,West,266,1.0,12.0,49,0.00,,---,0.00,VWS V14.01,2013-03-24 11:59:00,
2013-03-24 08:00:00,36.2,18.9,30.06,West,266,0.0,12.0,49,0.00,,---,0.00,VWS V14.01,2013-03-24 12:00:00,
2013-03-24 08:01:00,36.3,19.9,30.06,WSW,242,5.0,9.0,51,0.00,,---,0.00,VWS V14.01,2013-03-24 12:01:00,
2013-03-24 08:02:00,36.3,18.5,30.06,WSW,242,9.0,10.0,48,0.00,,---,0.00,VWS V14.01,2013-03-24 12:02:00,
2013-03-24 08:03:00,36.3,18.5,30.06,NNW,336,4.0,10.0,48,0.00,,---,0.00,VWS V14.01,2013-03-24 12:03:00,
2013-03-24 08:04:00,36.3,18.5,30.06,NW,321,3.0,12.0,48,0.00,,---,0.00,VWS V14.01,2013-03-24 12:04:00,
2013-03-24 08:05:00,36.3,18.5,30.06,West,278,4.0,12.0,48,0.00,,---,0.00,VWS V14.01,2013-03-24 12:05:00,
2013-03-24 08:06:00,36.3,18.5,30.06,West,276,1.0,12.0,48,0.00,,---,0.00,VWS V14.01,2013-03-24 12:06:00,
2013-03-24 08:07:00,36.5,18.7,30.06,NNW,338,5.0,12.0,48,0.00,,---,0.00,VWS V14.01,2013-03-24 12:07:00,
2013-03-24 08:08:00,36.5,19.2,30.06,NNW,338,3.0,12.0,49,0.00,,---,0.00,VWS V14.01,2013-03-24 12:08:00,
2013-03-24 08:09:00,36.5,19.2,30.06,NNW,338,3.0,12.0,49,0.00,,---,0.00,VWS V14.01,2013-03-24 12:09:00,
2013-03-24 08:10:00,36.6,18.8,30.06,NNW,338,3.0,12.0,48,0.00,,---,0.00,VWS V14.01,2013-03-24 12:10:00,
2013-03-24 08:11:00,36.8,19.0,30.06,NW,321,4.0,12.0,48,0.00,,---,0.00,VWS V14.01,2013-03-24 12:11:00,
2013-03-24 08:12:00,36.8,18.5,30.06,WSW,255,5.0,12.0,47,0.00,,---,0.00,VWS V14.01,2013-03-24 12:12:00,
2013-03-24 08:13:00,36.8,18.5,30.06,NNE,21,4.0,12.0,47,0.00,,---,0.00,VWS V14.01,2013-03-24 12:13:00,
2013-03-24 08:14:00,36.9,18.6,30.05,NNE,22,4.0,12.0,47,0.00,,---,0.00,VWS V14.01,2013-03-24 12:14:00,
2013-03-24 08:15:00,37.0,19.1,30.05,NNW,337,7.0,12.0,48,0.00,,---,0.00,VWS V14.01,2013-03-24 12:15:00,
2013-03-24 08:16:00,37.0,18.7,30.05,NNW,327,0.0,12.0,47,0.00,,---,0.00,VWS V14.01,2013-03-24 12:16:00,
2013-03-24 08:17:00,37.2,19.3,30.05,NNW,327,1.0,12.0,48,0.00,,---,0.00,VWS V14.01,2013-03-24 12:17:00,
2013-03-24 08:18:00,37.2,19.3,30.05,NNW,340,3.0,12.0,48,0.00,,---,0.00,VWS V14.01,2013-03-24 12:18:00,
2013-03-24 08:19:00,37.3,18.9,30.05,NNW,344,3.0,12.0,47,0.00,,---,0.00,VWS V14.01,2013-03-24 12:19:00,
2013-03-24 08:20:00,37.5,19.1,30.05,NNW,339,3.0,12.0,47,0.00,,---,0.00,VWS V14.01,2013-03-24 12:20:00,
2013-03-24 08:21:00,37.5,18.6,30.05,NW,323,5.0,12.0,46,0.00,,---,0.00,VWS V14.01,2013-03-24 12:21:00,
2013-03-24 08:22:00,37.6,18.2,30.05,NW,317,3.0,12.0,45,0.00,,---,0.00,VWS V14.01,2013-03-24 12:22:00,
2013-03-24 08:23:00,37.6,19.2,30.05,WSW,253,4.0,12.0,47,0.00,,---,0.00,VWS V14.01,2013-03-24 12:23:00,
2013-03-24 08:24:00,37.6,18.7,30.05,WSW,253,1.0,12.0,46,0.00,,---,0.00,VWS V14.01,2013-03-24 12:24:00,
2013-03-24 08:25:00,37.6,18.7,30.05,North,6,7.0,12.0,46,0.00,,---,0.00,VWS V14.01,2013-03-24 12:25:00,
2013-03-24 08:26:00,37.6,18.7,30.05,North,358,5.0,12.0,46,0.00,,---,0.00,VWS V14.01,2013-03-24 12:26:00,
2013-03-24 08:28:00,37.6,18.2,30.05,North,0,5.0,12.0,45,0.00,,---,0.00,VWS V14.01,2013-03-24 12:28:00,
2013-03-24 08:30:00,37.6,18.7,30.05,WNW,292,5.0,12.0,46,0.00,,---,0.00,VWS V14.01,2013-03-24 12:30:00,
2013-03-24 08:31:00,37.6,18.7,30.05,WSW,243,4.0,10.0,46,0.00,,---,0.00,VWS V14.01,2013-03-24 12:31:00,
2013-03-24 08:32:00,37.6,18.2,30.05,WSW,255,9.0,11.0,45,0.00,,---,0.00,VWS V14.01,2013-03-24 12:32:00,
2013-03-24 08:33:00,37.6,18.7,30.05,WSW,241,15.0,16.0,46,0.00,,---,0.00,VWS V14.01,2013-03-24 12:33:00,
2013-03-24 08:34:00,37.5,18.1,30.05,West,276,2.0,16.0,45,0.00,,---,0.00,VWS V14.01,2013-03-24 12:34:00,
2013-03-24 08:35:00,37.5,18.1,30.05,WSW,239,7.0,16.0,45,0.00,,---,0.00,VWS V14.01,2013-03-24 12:35:00,
2013-03-24 08:36:00,37.5,18.1,30.05,WSW,239,3.0,16.0,45,0.00,,---,0.00,VWS V14.01,2013-03-24 12:36:00,
2013-03-24 08:37:00,37.5,18.1,30.05,NW,308,0.0,16.0,45,0.00,,---,0.00,VWS V14.01,2013-03-24 12:37:00,
2013-03-24 08:38:00,37.6,18.2,30.05,West,271,6.0,16.0,45,0.00,,---,0.00,VWS V14.01,2013-03-24 12:38:00,
2013-03-24 08:39:00,37.6,18.2,30.05,SW,224,10.0,19.0,45,0.00,,---,0.00,VWS V14.01,2013-03-24 12:39:00,
2013-03-24 08:40:00,37.6,18.2,30.05,SW,226,6.0,19.0,45,0.00,,---,0.00,VWS V14.01,2013-03-24 12:40:00,
2013-03-24 08:41:00,37.6,18.2,30.05,WNW,291,6.0,19.0,45,0.00,,---,0.00,VWS V14.01,2013-03-24 12:41:00,
2013-03-24 08:42:00,37.6,17.1,30.05,West,266,5.0,19.0,43,0.00,,---,0.00,VWS V14.01,2013-03-24 12:42:00,
2013-03-24 08:44:00,37.8,18.4,30.05,SW,226,0.0,19.0,45,0.00,,---,0.00,VWS V14.01,2013-03-24 12:44:00,
2013-03-24 08:45:00,37.9,18.5,30.05,South,187,3.0,19.0,45,0.00,,---,0.00,VWS V14.01,2013-03-24 12:45:00,
2013-03-24 08:46:00,38.0,18.6,30.05,SW,234,3.0,19.0,45,0.00,,---,0.00,VWS V14.01,2013-03-24 12:46:00,
2013-03-24 08:47:00,38.0,17.5,30.05,West,277,5.0,19.0,43,0.00,,---,0.00,VWS V14.01,2013-03-24 12:47:00,
2013-03-24 08:48:00,38.0,17.0,30.05,NW,324,4.0,19.0,42,0.00,,---,0.00,VWS V14.01,2013-03-24 12:48:00,
2013-03-24 08:49:00,38.0,17.0,30.05,WNW,283,6.0,19.0,42,0.00,,---,0.00,VWS V14.01,2013-03-24 12:49:00,
2013-03-24 08:50:00,38.0,17.0,30.05,WNW,286,11.0,19.0,42,0.00,,---,0.00,VWS V14.01,2013-03-24 12:50:00,
2013-03-24 08:51:00,37.9,17.4,30.05,NNW,340,0.0,19.0,43,0.00,,---,0.00,VWS V14.01,2013-03-24 12:51:00,
2013-03-24 08:52:00,37.9,18.0,30.05,WSW,240,5.0,19.0,44,0.00,,---,0.00,VWS V14.01,2013-03-24 12:52:00,
2013-03-24 08:53:00,37.9,18.0,30.05,WSW,244,2.0,19.0,44,0.00,,---,0.00,VWS V14.01,2013-03-24 12:53:00,
2013-03-24 08:54:00,37.9,17.4,30.05,WSW,244,0.0,19.0,43,0.00,,---,0.00,VWS V14.01,2013-03-24 12:54:00,
2013-03-24 08:55:00,38.0,17.5,30.05,SW,228,4.0,19.0,43,0.00,,---,0.00,VWS V14.01,2013-03-24 12:55:00,
2013-03-24 08:56:00,38.0,18.0,30.05,SW,229,4.0,19.0,44,0.00,,---,0.00,VWS V14.01,2013-03-24 12:56:00,
2013-03-24 08:57:00,38.0,17.5,30.05,WSW,252,3.0,19.0,43,0.00,,---,0.00,VWS V14.01,2013-03-24 12:57:00,
2013-03-24 08:58:00,38.0,17.5,30.05,WNW,302,9.0,19.0,43,0.00,,---,0.00,VWS V14.01,2013-03-24 12:58:00,
2013-03-24 08:59:00,38.0,17.0,30.03,WSW,256,11.0,19.0,42,0.00,,---,0.00,VWS V14.01,2013-03-24 12:59:00,
2013-03-24 09:00:00,38.0,17.5,30.03,SW,227,13.0,19.0,43,0.00,,---,0.00,VWS V14.01,2013-03-24 13:00:00,
2013-03-24 09:01:00,37.9,16.9,30.03,WSW,252,2.0,13.0,42,0.00,,---,0.00,VWS V14.01,2013-03-24 13:01:00,
2013-03-24 09:02:00,38.0,17.5,30.03,WSW,257,6.0,13.0,43,0.00,,---,0.00,VWS V14.01,2013-03-24 13:02:00,
2013-03-24 09:03:00,38.0,17.5,30.03,WNW,286,2.0,13.0,43,0.00,,---,0.00,VWS V14.01,2013-03-24 13:03:00,
2013-03-24 09:04:00,38.0,17.0,30.03,West,266,8.0,13.0,42,0.00,,---,0.00,VWS V14.01,2013-03-24 13:04:00,
2013-03-24 09:05:00,38.0,17.0,30.03,West,266,4.0,13.0,42,0.00,,---,0.00,VWS V14.01,2013-03-24 13:05:00,
2013-03-24 09:06:00,38.0,17.0,30.03,SW,214,9.0,13.0,42,0.00,,---,0.00,VWS V14.01,2013-03-24 13:06:00,
2013-03-24 09:07:00,38.0,17.5,30.03,West,265,2.0,13.0,43,0.00,,---,0.00,VWS V14.01,2013-03-24 13:07:00,
2013-03-24 09:08:00,38.0,17.0,30.03,West,268,5.0,13.0,42,0.00,,---,0.00,VWS V14.01,2013-03-24 13:08:00,
2013-03-24 09:09:00,38.0,17.0,30.03,WSW,251,8.0,14.0,42,0.00,,---,0.00,VWS V14.01,2013-03-24 13:09:00,
2013-03-24 09:10:00,38.0,17.0,30.03,WSW,247,4.0,14.0,42,0.00,,---,0.00,VWS V14.01,2013-03-24 13:10:00,
2013-03-24 09:11:00,38.0,17.5,30.03,WSW,246,3.0,14.0,43,0.00,,---,0.00,VWS V14.01,2013-03-24 13:11:00,
2013-03-24 09:12:00,38.2,17.7,30.03,West,281,4.0,14.0,43,0.00,,---,0.00,VWS V14.01,2013-03-24 13:12:00,
2013-03-24 09:13:00,38.3,18.3,30.03,WSW,244,6.0,14.0,44,0.00,,---,0.00,VWS V14.01,2013-03-24 13:13:00,
2013-03-24 09:14:00,38.5,18.0,30.03,SW,230,13.0,14.0,43,0.00,,---,0.00,VWS V14.01,2013-03-24 13:14:00,
2013-03-24 09:15:00,38.3,17.2,30.03,WSW,244,3.0,14.0,42,0.00,,---,0.00,VWS V14.01,2013-03-24 13:15:00,
2013-03-24 09:16:00,38.3,17.2,30.03,West,259,6.0,14.0,42,0.00,,---,0.00,VWS V14.01,2013-03-24 13:16:00,
2013-03-24 09:17:00,38.5,18.5,30.03,West,276,5.0,14.0,44,0.00,,---,0.00,VWS V14.01,2013-03-24 13:17:00,
2013-03-24 09:18:00,38.5,17.4,30.03,NNW,346,7.0,14.0,42,0.00,,---,0.00,VWS V14.01,2013-03-24 13:18:00,
2013-03-24 09:19:00,38.5,17.4,30.03,West,279,6.0,14.0,42,0.00,,---,0.00,VWS V14.01,2013-03-24 13:19:00,
2013-03-24 09:20:00,38.5,17.4,30.03,North,10,5.0,14.0,42,0.00,,---,0.00,VWS V14.01,2013-03-24 13:20:00,
2013-03-24 09:21:00,38.3,17.2,30.03,North,0,8.0,14.0,42,0.00,,---,0.00,VWS V14.01,2013-03-24 13:21:00,
2013-03-24 09:22:00,38.3,17.8,30.03,WNW,298,5.0,14.0,43,0.00,,---,0.00,VWS V14.01,2013-03-24 13:22:00,
2013-03-24 09:23:00,38.3,17.8,30.03,WNW,283,6.0,14.0,43,0.00,,---,0.00,VWS V14.01,2013-03-24 13:23:00,
2013-03-24 09:24:00,38.3,17.8,30.03,West,269,5.0,14.0,43,0.00,,---,0.00,VWS V14.01,2013-03-24 13:24:00,
2013-03-24 09:25:00,38.3,17.8,30.03,North,0,1.0,14.0,43,0.00,,---,0.00,VWS V14.01,2013-03-24 13:25:00,
2013-03-24 09:27:00,38.3,17.8,30.03,NNW,341,1.0,14.0,43,0.00,,---,0.00,VWS V14.01,2013-03-24 13:27:00,
2013-03-24 09:29:00,38.5,18.0,30.03,NE,34,6.0,14.0,43,0.00,,---,0.00,VWS V14.01,2013-03-24 13:29:00,
2013-03-24 09:30:00,38.8,18.8,30.02,NNW,338,7.0,14.0,44,0.00,,---,0.00,VWS V14.01,2013-03-24 13:30:00,
2013-03-24 09:31:00,38.9,19.4,30.02,North,354,5.0,7.0,45,0.00,,---,0.00,VWS V14.01,2013-03-24 13:31:00,
2013-03-24 09:33:00,39.2,19.1,30.02,South,174,6.0,11.0,44,0.00,,---,0.00,VWS V14.01,2013-03-24 13:33:00,
2013-03-24 09:34:00,39.2,18.6,30.02,WSW,250,5.0,11.0,43,0.00,,---,0.00,VWS V14.01,2013-03-24 13:34:00,
2013-03-24 09:35:00,39.2,18.0,30.02,SW,219,4.0,11.0,42,0.00,,---,0.00,VWS V14.01,2013-03-24 13:35:00,
2013-03-24 09:36:00,39.2,19.1,30.02,SW,234,9.0,17.0,44,0.00,,---,0.00,VWS V14.01,2013-03-24 13:36:00,
2013-03-24 09:37:00,39.2,18.0,30.02,West,260,4.0,17.0,42,0.00,,---,0.00,VWS V14.01,2013-03-24 13:37:00,
2013-03-24 09:39:00,39.3,18.7,30.02,West,274,3.0,17.0,43,0.00,,---,0.00,VWS V14.01,2013-03-24 13:39:00,
2013-03-24 09:40:00,39.3,17.6,30.02,South,185,11.0,17.0,41,0.00,,---,0.00,VWS V14.01,2013-03-24 13:40:00,
2013-03-24 09:41:00,39.2,17.5,30.02,WSW,240,10.0,17.0,41,0.00,,---,0.00,VWS V14.01,2013-03-24 13:41:00,
2013-03-24 09:42:00,39.2,18.6,30.02,NNW,333,4.0,17.0,43,0.00,,---,0.00,VWS V14.01,2013-03-24 13:42:00,
2013-03-24 09:43:00,39.1,18.0,30.02,NNW,345,4.0,17.0,42,0.00,,---,0.00,VWS V14.01,2013-03-24 13:43:00,
2013-03-24 09:44:00,39.1,18.5,30.01,NNW,344,0.0,17.0,43,0.00,,---,0.00,VWS V14.01,2013-03-24 13:44:00,
2013-03-24 09:45:00,39.1,18.0,30.01,WSW,249,10.0,17.0,42,0.00,,---,0.00,VWS V14.01,2013-03-24 13:45:00,
2013-03-24 09:46:00,39.1,18.0,30.01,WNW,288,4.0,17.0,42,0.00,,---,0.00,VWS V14.01,2013-03-24 13:46:00,
2013-03-24 09:47:00,39.1,18.0,30.01,WNW,287,3.0,17.0,42,0.00,,---,0.00,VWS V14.01,2013-03-24 13:47:00,
2013-03-24 09:48:00,39.1,18.0,30.01,West,278,4.0,17.0,42,0.00,,---,0.00,VWS V14.01,2013-03-24 13:48:00,
2013-03-24 09:49:00,39.1,18.5,30.01,WNW,288,5.0,17.0,43,0.00,,---,0.00,VWS V14.01,2013-03-24 13:49:00,
2013-03-24 09:50:00,39.1,18.0,30.01,WSW,252,4.0,17.0,42,0.00,,---,0.00,VWS V14.01,2013-03-24 13:50:00,
2013-03-24 09:51:00,38.9,17.8,30.01,WSW,252,3.0,17.0,42,0.00,,---,0.00,VWS V14.01,2013-03-24 13:51:00,
2013-03-24 09:52:00,39.1,19.0,30.01,SSW,205,7.0,17.0,44,0.00,,---,0.00,VWS V14.01,2013-03-24 13:52:00,
2013-03-24 09:53:00,39.1,18.5,30.01,SW,226,13.0,17.0,43,0.00,,---,0.00,VWS V14.01,2013-03-24 13:53:00,
2013-03-24 09:54:00,39.1,18.5,30.01,West,281,2.0,17.0,43,0.00,,---,0.00,VWS V14.01,2013-03-24 13:54:00,
2013-03-24 09:55:00,39.2,19.7,30.01,West,264,7.0,17.0,45,0.00,,---,0.00,VWS V14.01,2013-03-24 13:55:00,
2013-03-24 09:56:00,39.2,19.1,30.01,West,266,5.0,17.0,44,0.00,,---,0.00,VWS V14.01,2013-03-24 13:56:00,
2013-03-24 09:57:00,39.2,19.1,30.01,WSW,255,6.0,17.0,44,0.00,,---,0.00,VWS V14.01,2013-03-24 13:57:00,
2013-03-24 09:58:00,39.3,19.2,30.01,SW,228,15.0,17.0,44,0.00,,---,0.00,VWS V14.01,2013-03-24 13:58:00,
2013-03-24 09:59:00,39.2,18.6,30.00,WSW,252,6.0,17.0,43,0.00,,---,0.00,VWS V14.01,2013-03-24 13:59:00,
2013-03-24 10:00:00,39.2,18.6,30.00,SW,225,1.0,17.0,43,0.00,,---,0.00,VWS V14.01,2013-03-24 14:00:00,
2013-03-24 10:01:00,39.3,18.7,30.00,NNE,27,7.0,10.0,43,0.00,,---,0.00,VWS V14.01,2013-03-24 14:01:00,
2013-03-24 10:02:00,39.5,18.9,30.00,NNE,29,3.0,10.0,43,0.00,,---,0.00,VWS V14.01,2013-03-24 14:02:00,
2013-03-24 10:03:00,39.6,18.4,30.00,NNE,29,1.0,10.0,42,0.00,,---,0.00,VWS V14.01,2013-03-24 14:03:00,
2013-03-24 10:04:00,39.9,18.7,30.00,NNE,33,8.0,10.0,42,0.00,,---,0.00,VWS V14.01,2013-03-24 14:04:00,
2013-03-24 10:05:00,39.9,19.2,30.00,North,357,7.0,13.0,43,0.00,,---,0.00,VWS V14.01,2013-03-24 14:05:00,
2013-03-24 10:06:00,40.1,19.4,30.00,North,358,3.0,13.0,43,0.00,,---,0.00,VWS V14.01,2013-03-24 14:06:00,
2013-03-24 10:07:00,40.1,18.9,30.00,NNW,343,3.0,13.0,42,0.00,,---,0.00,VWS V14.01,2013-03-24 14:07:00,
2013-03-24 10:08:00,40.2,18.4,30.00,NNE,20,7.0,13.0,41,0.00,,---,0.00,VWS V14.01,2013-03-24 14:08:00,
2013-03-24 10:09:00,40.2,18.4,30.00,North,4,8.0,13.0,41,0.00,,---,0.00,VWS V14.01,2013-03-24 14:09:00,
2013-03-24 10:10:00,40.1,17.7,30.00,NNE,18,3.0,13.0,40,0.00,,---,0.00,VWS V14.01,2013-03-24 14:10:00,
2013-03-24 10:11:00,39.9,18.1,30.00,NE,35,7.0,13.0,41,0.00,,---,0.00,VWS V14.01,2013-03-24 14:11:00,
2013-03-24 10:12:00,40.1,19.4,30.00,NNE,26,5.0,13.0,43,0.00,,---,0.00,VWS V14.01,2013-03-24 14:12:00,
2013-03-24 10:13:00,40.1,18.9,30.00,NNE,16,2.0,13.0,42,0.00,,---,0.00,VWS V14.01,2013-03-24 14:13:00,
2013-03-24 10:14:00,39.9,17.5,29.98,NNW,347,0.0,13.0,40,0.00,,---,0.00,VWS V14.01,2013-03-24 14:14:00,
2013-03-24 10:15:00,40.1,18.3,29.98,ENE,58,3.0,13.0,41,0.00,,---,0.00,VWS V14.01,2013-03-24 14:15:00,
2013-03-24 10:16:00,40.2,18.4,29.98,NNE,25,4.0,13.0,41,0.00,,---,0.00,VWS V14.01,2013-03-24 14:16:00,
2013-03-24 10:17:00,40.2,18.4,29.98,NNE,22,0.0,13.0,41,0.00,,---,0.00,VWS V14.01,2013-03-24 14:17:00,
2013-03-24 10:18:00,40.3,19.0,29.98,NNE,22,0.0,13.0,42,0.00,,---,0.00,VWS V14.01,2013-03-24 14:18:00,
2013-03-24 10:19:00,40.5,19.8,29.98,NW,323,2.0,13.0,43,0.00,,---,0.00,VWS V14.01,2013-03-24 14:19:00,
2013-03-24 10:20:00,40.6,18.8,29.98,NNW,333,12.0,13.0,41,0.00,,---,0.00,VWS V14.01,2013-03-24 14:20:00,
2013-03-24 10:21:00,40.6,18.2,29.98,West,271,5.0,13.0,40,0.00,,---,0.00,VWS V14.01,2013-03-24 14:21:00,
2013-03-24 10:22:00,40.6,18.2,29.98,North,0,4.0,13.0,40,0.00,,---,0.00,VWS V14.01,2013-03-24 14:22:00,
2013-03-24 10:23:00,40.5,18.1,29.98,NW,315,10.0,13.0,40,0.00,,---,0.00,VWS V14.01,2013-03-24 14:23:00,
2013-03-24 10:24:00,40.5,17.5,29.98,NW,319,3.0,13.0,39,0.00,,---,0.00,VWS V14.01,2013-03-24 14:24:00,
2013-03-24 10:25:00,40.5,18.7,29.98,NNE,21,3.0,13.0,41,0.00,,---,0.00,VWS V14.01,2013-03-24 14:25:00,
2013-03-24 10:26:00,40.3,18.5,29.98,NNE,21,4.0,13.0,41,0.00,,---,0.00,VWS V14.01,2013-03-24 14:26:00,
2013-03-24 10:27:00,40.3,17.9,29.98,North,358,6.0,13.0,40,0.00,,---,0.00,VWS V14.01,2013-03-24 14:27:00,
2013-03-24 10:28:00,40.3,17.9,29.98,NNE,18,6.0,13.0,40,0.00,,---,0.00,VWS V14.01,2013-03-24 14:28:00,
2013-03-24 10:29:00,40.2,17.8,29.97,NNE,18,1.0,13.0,40,0.00,,---,0.00,VWS V14.01,2013-03-24 14:29:00,
2013-03-24 10:30:00,40.2,17.8,29.97,NNE,18,0.0,13.0,40,0.00,,---,0.00,VWS V14.01,2013-03-24 14:30:00,
2013-03-24 10:31:00,40.2,18.4,29.97,North,5,5.0,12.0,41,0.00,,---,0.00,VWS V14.01,2013-03-24 14:31:00,
2013-03-24 10:32:00,40.3,18.5,29.97,North,8,1.0,12.0,41,0.00,,---,0.00,VWS V14.01,2013-03-24 14:32:00,
2013-03-24 10:33:00,40.3,18.5,29.97,North,8,0.0,12.0,41,0.00,,---,0.00,VWS V14.01,2013-03-24 14:33:00,
2013-03-24 10:34:00,40.3,18.5,29.97,West,267,5.0,12.0,41,0.00,,---,0.00,VWS V14.01,2013-03-24 14:34:00,
2013-03-24 10:36:00,40.5,18.7,29.97,WSW,253,3.0,12.0,41,0.00,,---,0.00,VWS V14.01,2013-03-24 14:36:00,
2013-03-24 10:37:00,40.5,19.2,29.97,NW,316,3.0,12.0,42,0.00,,---,0.00,VWS V14.01,2013-03-24 14:37:00,
2013-03-24 10:38:00,40.6,18.8,29.97,North,351,5.0,12.0,41,0.00,,---,0.00,VWS V14.01,2013-03-24 14:38:00,
2013-03-24 10:39:00,40.6,18.2,29.97,NE,39,7.0,12.0,40,0.00,,---,0.00,VWS V14.01,2013-03-24 14:39:00,
2013-03-24 10:40:00,40.8,18.9,29.97,North,3,1.0,12.0,41,0.00,,---,0.00,VWS V14.01,2013-03-24 14:40:00,
2013-03-24 10:41:00,40.8,18.9,29.97,North,1,3.0,12.0,41,0.00,,---,0.00,VWS V14.01,2013-03-24 14:41:00,
2013-03-24 10:42:00,40.8,18.9,29.97,West,264,1.0,12.0,41,0.00,,---,0.00,VWS V14.01,2013-03-24 14:42:00,
2013-03-24 10:44:00,41.1,19.2,29.95,NNE,17,4.0,12.0,41,0.00,,---,0.00,VWS V14.01,2013-03-24 14:44:00,
2013-03-24 10:45:00,41.2,21.0,29.95,NNE,15,3.0,12.0,44,0.00,,---,0.00,VWS V14.01,2013-03-24 14:45:00,
2013-03-24 10:46:00,41.3,20.0,29.95,NNE,15,2.0,12.0,42,0.00,,---,0.00,VWS V14.01,2013-03-24 14:46:00,
2013-03-24 10:47:00,41.6,22.4,29.95,NNE,15,0.0,12.0,46,0.00,,---,0.00,VWS V14.01,2013-03-24 14:47:00,
2013-03-24 10:49:00,41.9,19.9,29.95,North,3,8.0,12.0,41,0.00,,---,0.00,VWS V14.01,2013-03-24 14:49:00,
2013-03-24 10:50:00,41.9,18.2,29.95,North,352,8.0,12.0,38,0.00,,---,0.00,VWS V14.01,2013-03-24 14:50:00,
2013-03-24 10:51:00,41.9,18.2,29.95,NNE,22,9.0,12.0,38,0.00,,---,0.00,VWS V14.01,2013-03-24 14:51:00,
2013-03-24 10:52:00,41.9,18.8,29.95,NW,324,3.0,12.0,39,0.00,,---,0.00,VWS V14.01,2013-03-24 14:52:00,
2013-03-24 10:54:00,41.9,18.8,29.95,NW,319,6.0,12.0,39,0.00,,---,0.00,VWS V14.01,2013-03-24 14:54:00,
2013-03-24 10:55:00,41.8,18.1,29.95,WNW,295,2.0,12.0,38,0.00,,---,0.00,VWS V14.01,2013-03-24 14:55:00,
2013-03-24 10:56:00,41.9,19.9,29.95,NNE,30,4.0,12.0,41,0.00,,---,0.00,VWS V14.01,2013-03-24 14:56:00,
2013-03-24 10:57:00,41.9,19.4,29.95,NE,39,4.0,12.0,40,0.00,,---,0.00,VWS V14.01,2013-03-24 14:57:00,
2013-03-24 10:58:00,42.1,20.7,29.95,North,11,7.0,12.0,42,0.00,,---,0.00,VWS V14.01,2013-03-24 14:58:00,
2013-03-24 10:59:00,42.2,19.0,29.94,NE,49,5.0,13.0,39,0.00,,---,0.00,VWS V14.01,2013-03-24 14:59:00,
2013-03-24 11:00:00,42.1,19.0,29.94,NE,49,4.0,13.0,39,0.00,,---,0.00,VWS V14.01,2013-03-24 15:00:00,
2013-03-24 11:01:00,42.1,19.5,29.94,NNW,330,3.0,7.0,40,0.00,,---,0.00,VWS V14.01,2013-03-24 15:01:00,
2013-03-24 11:02:00,42.1,19.0,29.94,WNW,297,4.0,7.0,39,0.00,,---,0.00,VWS V14.01,2013-03-24 15:02:00,
2013-03-24 11:03:00,42.1,19.0,29.94,WNW,303,1.0,7.0,39,0.00,,---,0.00,VWS V14.01,2013-03-24 15:03:00,
2013-03-24 11:04:00,42.1,19.5,29.94,WNW,302,2.0,7.0,40,0.00,,---,0.00,VWS V14.01,2013-03-24 15:04:00,
2013-03-24 11:05:00,42.2,21.3,29.94,WNW,302,0.0,7.0,43,0.00,,---,0.00,VWS V14.01,2013-03-24 15:05:00,
2013-03-24 11:06:00,42.3,21.4,29.94,WNW,302,2.0,7.0,43,0.00,,---,0.00,VWS V14.01,2013-03-24 15:06:00,
2013-03-24 11:07:00,42.5,20.5,29.94,NE,46,6.0,7.0,41,0.00,,---,0.00,VWS V14.01,2013-03-24 15:07:00,
2013-03-24 11:08:00,42.6,21.7,29.94,NE,50,4.0,7.0,43,0.00,,---,0.00,VWS V14.01,2013-03-24 15:08:00,
2013-03-24 11:09:00,42.6,20.0,29.94,ENE,70,4.0,7.0,40,0.00,,---,0.00,VWS V14.01,2013-03-24 15:09:00,
2013-03-24 11:11:00,42.6,20.0,29.94,ENE,70,0.0,7.0,40,0.00,,---,0.00,VWS V14.01,2013-03-24 15:11:00,
2013-03-24 11:12:00,42.9,19.7,29.94,WNW,295,3.0,10.0,39,0.00,,---,0.00,VWS V14.01,2013-03-24 15:12:00,
2013-03-24 11:14:00,42.9,19.1,29.94,WNW,295,0.0,10.0,38,0.00,,---,0.00,VWS V14.01,2013-03-24 15:14:00,
2013-03-24 11:15:00,42.9,19.1,29.94,WNW,295,0.0,10.0,38,0.00,,---,0.00,VWS V14.01,2013-03-24 15:15:00,
2013-03-24 11:16:00,42.9,18.4,29.94,WNW,295,1.0,10.0,37,0.00,,---,0.00,VWS V14.01,2013-03-24 15:16:00,
2013-03-24 11:17:00,42.9,18.4,29.94,NNW,329,2.0,10.0,37,0.00,,---,0.00,VWS V14.01,2013-03-24 15:17:00,
2013-03-24 11:18:00,42.9,19.7,29.94,North,2,6.0,10.0,39,0.00,,---,0.00,VWS V14.01,2013-03-24 15:18:00,
2013-03-24 11:19:00,42.9,19.1,29.94,North,8,5.0,10.0,38,0.00,,---,0.00,VWS V14.01,2013-03-24 15:19:00,
2013-03-24 11:20:00,42.8,19.0,29.94,NE,41,10.0,10.0,38,0.00,,---,0.00,VWS V14.01,2013-03-24 15:20:00,
2013-03-24 11:21:00,42.6,19.4,29.94,ENE,59,5.0,10.0,39,0.00,,---,0.00,VWS V14.01,2013-03-24 15:21:00,
2013-03-24 11:22:00,42.5,19.3,29.94,North,0,5.0,10.0,39,0.00,,---,0.00,VWS V14.01,2013-03-24 15:22:00,
2013-03-24 11:23:00,42.6,19.4,29.94,NNE,25,6.0,10.0,39,0.00,,---,0.00,VWS V14.01,2013-03-24 15:23:00,
2013-03-24 11:24:00,42.6,18.8,29.94,North,0,5.0,10.0,38,0.00,,---,0.00,VWS V14.01,2013-03-24 15:24:00,
2013-03-24 11:25:00,42.5,18.1,29.94,NNW,341,8.0,10.0,37,0.00,,---,0.00,VWS V14.01,2013-03-24 15:25:00,
2013-03-24 11:26:00,42.5,18.1,29.94,NNW,330,4.0,10.0,37,0.00,,---,0.00,VWS V14.01,2013-03-24 15:26:00,
2013-03-24 11:27:00,42.6,18.8,29.94,North,5,7.0,10.0,38,0.00,,---,0.00,VWS V14.01,2013-03-24 15:27:00,
2013-03-24 11:28:00,42.5,18.7,29.94,NE,40,3.0,10.0,38,0.00,,---,0.00,VWS V14.01,2013-03-24 15:28:00,
2013-03-24 11:29:00,42.6,19.4,29.95,ENE,63,5.0,10.0,39,0.00,,---,0.00,VWS V14.01,2013-03-24 15:29:00,
2013-03-24 11:30:00,42.8,19.6,29.95,NE,39,6.0,11.0,39,0.00,,---,0.00,VWS V14.01,2013-03-24 15:30:00,
2013-03-24 11:31:00,42.6,18.8,29.95,NE,37,3.0,9.0,38,0.00,,---,0.00,VWS V14.01,2013-03-24 15:31:00,
2013-03-24 11:32:00,42.6,19.4,29.95,NE,37,3.0,9.0,39,0.00,,---,0.00,VWS V14.01,2013-03-24 15:32:00,
2013-03-24 11:33:00,42.6,18.2,29.95,NNW,335,5.0,9.0,37,0.00,,---,0.00,VWS V14.01,2013-03-24 15:33:00,
2013-03-24 11:34:00,42.8,20.2,29.95,NW,323,6.0,9.0,40,0.00,,---,0.00,VWS V14.01,2013-03-24 15:34:00,
2013-03-24 11:35:00,42.8,19.0,29.95,NW,317,3.0,9.0,38,0.00,,---,0.00,VWS V14.01,2013-03-24 15:35:00,
2013-03-24 11:36:00,42.8,19.0,29.95,NW,309,6.0,9.0,38,0.00,,---,0.00,VWS V14.01,2013-03-24 15:36:00,
2013-03-24 11:37:00,42.8,18.4,29.95,WNW,293,2.0,9.0,37,0.00,,---,0.00,VWS V14.01,2013-03-24 15:37:00,
2013-03-24 11:39:00,42.9,19.1,29.95,WSW,254,5.0,9.0,38,0.00,,---,0.00,VWS V14.01,2013-03-24 15:39:00,
2013-03-24 11:40:00,42.8,18.4,29.95,WSW,245,2.0,9.0,37,0.00,,---,0.00,VWS V14.01,2013-03-24 15:40:00,
2013-03-24 11:41:00,42.8,17.7,29.95,WSW,245,0.0,9.0,36,0.00,,---,0.00,VWS V14.01,2013-03-24 15:41:00,
2013-03-24 11:42:00,42.8,19.0,29.95,WSW,244,5.0,9.0,38,0.00,,---,0.00,VWS V14.01,2013-03-24 15:42:00,
2013-03-24 11:43:00,42.8,18.4,29.95,SSW,203,5.0,9.0,37,0.00,,---,0.00,VWS V14.01,2013-03-24 15:43:00,
2013-03-24 11:44:00,42.8,19.0,29.95,SSW,210,4.0,9.0,38,0.00,,---,0.00,VWS V14.01,2013-03-24 15:44:00,
2013-03-24 11:45:00,42.6,18.2,29.95,SSW,208,5.0,9.0,37,0.00,,---,0.00,VWS V14.01,2013-03-24 15:45:00,
2013-03-24 11:46:00,42.8,19.0,29.95,South,176,5.0,9.0,38,0.00,,---,0.00,VWS V14.01,2013-03-24 15:46:00,
2013-03-24 11:47:00,42.8,18.4,29.95,South,171,5.0,9.0,37,0.00,,---,0.00,VWS V14.01,2013-03-24 15:47:00,
2013-03-24 11:48:00,42.9,19.1,29.95,South,170,3.0,9.0,38,0.00,,---,0.00,VWS V14.01,2013-03-24 15:48:00,
2013-03-24 11:49:00,43.1,19.2,29.95,South,172,5.0,9.0,38,0.00,,---,0.00,VWS V14.01,2013-03-24 15:49:00,
2013-03-24 11:50:00,43.1,18.0,29.95,NNW,339,3.0,9.0,36,0.00,,---,0.00,VWS V14.01,2013-03-24 15:50:00,
2013-03-24 11:51:00,43.2,18.7,29.95,NNW,345,4.0,9.0,37,0.00,,---,0.00,VWS V14.01,2013-03-24 15:51:00,
2013-03-24 11:52:00,43.3,19.4,29.95,NNE,20,6.0,9.0,38,0.00,,---,0.00,VWS V14.01,2013-03-24 15:52:00,
2013-03-24 11:53:00,43.3,18.2,29.95,North,355,2.0,9.0,36,0.00,,---,0.00,VWS V14.01,2013-03-24 15:53:00,
2013-03-24 11:54:00,43.5,19.6,29.95,North,355,5.0,9.0,38,0.00,,---,0.00,VWS V14.01,2013-03-24 15:54:00,
2013-03-24 11:55:00,43.5,17.7,29.95,North,356,0.0,9.0,35,0.00,,---,0.00,VWS V14.01,2013-03-24 15:55:00,
2013-03-24 11:56:00,43.5,17.7,29.95,NNW,343,7.0,9.0,35,0.00,,---,0.00,VWS V14.01,2013-03-24 15:56:00,
2013-03-24 11:57:00,43.5,17.7,29.95,NNW,344,3.0,9.0,35,0.00,,---,0.00,VWS V14.01,2013-03-24 15:57:00,
2013-03-24 11:58:00,43.3,16.8,29.95,NNW,344,3.0,9.0,34,0.00,,---,0.00,VWS V14.01,2013-03-24 15:58:00,
2013-03-24 11:59:00,43.3,16.8,29.95,West,271,4.0,9.0,34,0.00,,---,0.00,VWS V14.01,2013-03-24 15:59:00,
2013-03-24 12:00:00,43.2,17.4,29.95,West,271,0.0,9.0,35,0.00,,---,0.00,VWS V14.01,2013-03-24 16:00:00,
2013-03-24 12:01:00,43.2,16.7,29.95,West,280,3.0,9.0,34,0.00,,---,0.00,VWS V14.01,2013-03-24 16:01:00,
2013-03-24 12:02:00,43.2,18.1,29.95,West,280,0.0,9.0,36,0.00,,---,0.00,VWS V14.01,2013-03-24 16:02:00,
2013-03-24 12:03:00,43.2,17.4,29.95,NW,313,3.0,9.0,35,0.00,,---,0.00,VWS V14.01,2013-03-24 16:03:00,
2013-03-24 12:04:00,43.2,16.7,29.95,NW,313,2.0,9.0,34,0.00,,---,0.00,VWS V14.01,2013-03-24 16:04:00,
2013-03-24 12:05:00,43.3,17.5,29.95,NW,311,1.0,9.0,35,0.00,,---,0.00,VWS V14.01,2013-03-24 16:05:00,
2013-03-24 12:06:00,43.3,18.2,29.95,NNE,15,5.0,9.0,36,0.00,,---,0.00,VWS V14.01,2013-03-24 16:06:00,
2013-03-24 12:08:00,43.3,16.8,29.95,NNW,338,3.0,9.0,34,0.00,,---,0.00,VWS V14.01,2013-03-24 16:08:00,
2013-03-24 12:09:00,43.3,16.8,29.95,WNW,302,5.0,9.0,34,0.00,,---,0.00,VWS V14.01,2013-03-24 16:09:00,
2013-03-24 12:10:00,43.3,16.1,29.95,WSW,252,5.0,9.0,33,0.00,,---,0.00,VWS V14.01,2013-03-24 16:10:00,
2013-03-24 12:14:00,43.2,18.1,29.94,SW,233,0.0,9.0,36,0.00,,---,0.00,VWS V14.01,2013-03-24 16:14:00,
2013-03-24 12:16:00,43.5,18.3,29.94,WNW,297,0.0,9.0,36,0.00,,---,0.00,VWS V14.01,2013-03-24 16:16:00,
2013-03-24 12:17:00,43.5,17.7,29.94,East,82,2.0,9.0,35,0.00,,---,0.00,VWS V14.01,2013-03-24 16:17:00,
2013-03-24 12:18:00,43.6,17.1,29.94,East,83,2.0,9.0,34,0.00,,---,0.00,VWS V14.01,2013-03-24 16:18:00,
2013-03-24 12:19:00,43.8,19.2,29.94,ESE,120,4.0,9.0,37,0.00,,---,0.00,VWS V14.01,2013-03-24 16:19:00,
2013-03-24 12:20:00,43.9,16.7,29.94,SE,131,3.0,9.0,33,0.00,,---,0.00,VWS V14.01,2013-03-24 16:20:00,
2013-03-24 12:22:00,43.8,16.6,29.94,SSE,159,2.0,9.0,33,0.00,,---,0.00,VWS V14.01,2013-03-24 16:22:00,
2013-03-24 12:23:00,43.8,16.6,29.94,SSE,159,1.0,9.0,33,0.00,,---,0.00,VWS V14.01,2013-03-24 16:23:00,
2013-03-24 12:25:00,43.8,17.3,29.94,SSE,159,0.0,9.0,34,0.00,,---,0.00,VWS V14.01,2013-03-24 16:25:00,
2013-03-24 12:26:00,43.8,18.0,29.94,SSE,152,2.0,9.0,35,0.00,,---,0.00,VWS V14.01,2013-03-24 16:26:00,
2013-03-24 12:27:00,43.8,17.3,29.94,ESE,105,4.0,9.0,34,0.00,,---,0.00,VWS V14.01,2013-03-24 16:27:00,
2013-03-24 12:28:00,43.9,17.4,29.94,ESE,105,0.0,9.0,34,0.00,,---,0.00,VWS V14.01,2013-03-24 16:28:00,
2013-03-24 12:29:00,43.9,18.0,29.92,NNW,332,2.0,10.0,35,0.00,,---,0.00,VWS V14.01,2013-03-24 16:29:00,
2013-03-24 12:30:00,43.9,16.7,29.92,NNW,336,5.0,10.0,33,0.00,,---,0.00,VWS V14.01,2013-03-24 16:30:00,
2013-03-24 12:31:00,43.9,16.0,29.92,NNW,338,2.0,6.0,32,0.00,,---,0.00,VWS V14.01,2013-03-24 16:31:00,
2013-03-24 12:32:00,43.9,16.7,29.92,NNE,13,4.0,7.0,33,0.00,,---,0.00,VWS V14.01,2013-03-24 16:32:00,
2013-03-24 12:34:00,43.9,17.4,29.92,NNW,330,3.0,7.0,34,0.00,,---,0.00,VWS V14.01,2013-03-24 16:34:00,
2013-03-24 12:35:00,43.9,16.7,29.92,NNW,331,3.0,7.0,33,0.00,,---,0.00,VWS V14.01,2013-03-24 16:35:00,
2013-03-24 12:36:00,43.9,16.0,29.92,NNW,330,3.0,7.0,32,0.00,,---,0.00,VWS V14.01,2013-03-24 16:36:00,
2013-03-24 12:37:00,43.9,16.7,29.92,North,11,4.0,7.0,33,0.00,,---,0.00,VWS V14.01,2013-03-24 16:37:00,
2013-03-24 12:38:00,43.9,16.0,29.92,North,11,0.0,7.0,32,0.00,,---,0.00,VWS V14.01,2013-03-24 16:38:00,
2013-03-24 12:39:00,44.1,17.5,29.92,North,11,0.0,7.0,34,0.00,,---,0.00,VWS V14.01,2013-03-24 16:39:00,
2013-03-24 12:40:00,44.2,19.0,29.92,North,11,1.0,7.0,36,0.00,,---,0.00,VWS V14.01,2013-03-24 16:40:00,
2013-03-24 12:41:00,44.3,18.4,29.92,North,0,4.0,7.0,35,0.00,,---,0.00,VWS V14.01,2013-03-24 16:41:00,
2013-03-24 12:42:00,44.5,18.6,29.92,WSW,245,2.0,9.0,35,0.00,,---,0.00,VWS V14.01,2013-03-24 16:42:00,
2013-03-24 12:43:00,44.5,17.9,29.92,West,269,4.0,9.0,34,0.00,,---,0.00,VWS V14.01,2013-03-24 16:43:00,
2013-03-24 12:44:00,44.6,18.7,29.90,NW,316,5.0,9.0,35,0.00,,---,0.00,VWS V14.01,2013-03-24 16:44:00,
2013-03-24 12:45:00,44.6,17.3,29.90,NW,319,3.0,11.0,33,0.00,,---,0.00,VWS V14.01,2013-03-24 16:45:00,
2013-03-24 12:46:00,44.6,17.3,29.90,NW,326,4.0,11.0,33,0.00,,---,0.00,VWS V14.01,2013-03-24 16:46:00,
2013-03-24 12:47:00,44.6,17.3,29.90,NW,326,2.0,11.0,33,0.00,,---,0.00,VWS V14.01,2013-03-24 16:47:00,
2013-03-24 12:48:00,44.6,17.3,29.90,NW,304,2.0,11.0,33,0.00,,---,0.00,VWS V14.01,2013-03-24 16:48:00,
2013-03-24 12:49:00,44.6,16.6,29.90,NW,304,0.0,11.0,32,0.00,,---,0.00,VWS V14.01,2013-03-24 16:49:00,
2013-03-24 12:50:00,44.8,16.8,29.90,NW,304,2.0,11.0,32,0.00,,---,0.00,VWS V14.01,2013-03-24 16:50:00,
2013-03-24 12:51:00,44.8,17.5,29.90,NW,309,0.0,11.0,33,0.00,,---,0.00,VWS V14.01,2013-03-24 16:51:00,
2013-03-24 12:52:00,44.8,18.2,29.90,NW,309,0.0,11.0,34,0.00,,---,0.00,VWS V14.01,2013-03-24 16:52:00,
2013-03-24 12:53:00,44.9,18.9,29.90,NNE,32,7.0,11.0,35,0.00,,---,0.00,VWS V14.01,2013-03-24 16:53:00,
2013-03-24 12:54:00,44.9,16.8,29.90,NNE,32,2.0,11.0,32,0.00,,---,0.00,VWS V14.01,2013-03-24 16:54:00,
2013-03-24 12:55:00,44.9,16.8,29.90,NE,37,6.0,11.0,32,0.00,,---,0.00,VWS V14.01,2013-03-24 16:55:00,
2013-03-24 12:56:00,44.9,17.6,29.90,NNE,25,8.0,14.0,33,0.00,,---,0.00,VWS V14.01,2013-03-24 16:56:00,
2013-03-24 12:57:00,44.9,17.6,29.90,NNE,26,6.0,14.0,33,0.00,,---,0.00,VWS V14.01,2013-03-24 16:57:00,
2013-03-24 12:58:00,44.9,17.6,29.90,North,0,8.0,14.0,33,0.00,,---,0.00,VWS V14.01,2013-03-24 16:58:00,
2013-03-24 13:00:00,44.9,16.8,29.88,North,11,5.0,14.0,32,0.00,,---,0.00,VWS V14.01,2013-03-24 17:00:00,
2013-03-24 13:01:00,44.9,16.1,29.88,North,8,3.0,7.0,31,0.00,,---,0.00,VWS V14.01,2013-03-24 17:01:00,
2013-03-24 13:02:00,44.8,16.8,29.88,NNE,15,4.0,7.0,32,0.00,,---,0.00,VWS V14.01,2013-03-24 17:02:00,
2013-03-24 13:04:00,44.5,17.2,29.88,NNE,20,3.0,8.0,33,0.00,,---,0.00,VWS V14.01,2013-03-24 17:04:00,
2013-03-24 13:05:00,44.3,15.6,29.88,NNE,20,4.0,8.0,31,0.00,,---,0.00,VWS V14.01,2013-03-24 17:05:00,
2013-03-24 13:06:00,44.2,16.2,29.88,NNE,20,2.0,8.0,32,0.00,,---,0.00,VWS V14.01,2013-03-24 17:06:00,
2013-03-24 13:07:00,44.1,16.9,29.88,NNE,23,3.0,8.0,33,0.00,,---,0.00,VWS V14.01,2013-03-24 17:07:00,
2013-03-24 13:09:00,44.2,16.2,29.88,NNE,23,0.0,8.0,32,0.00,,---,0.00,VWS V14.01,2013-03-24 17:09:00,
2013-03-24 13:10:00,44.3,18.4,29.88,NNE,23,0.0,8.0,35,0.00,,---,0.00,VWS V14.01,2013-03-24 17:10:00,
2013-03-24 13:11:00,44.3,19.0,29.88,North,0,4.0,8.0,36,0.00,,---,0.00,VWS V14.01,2013-03-24 17:11:00,
2013-03-24 13:12:00,44.5,17.9,29.88,North,353,3.0,8.0,34,0.00,,---,0.00,VWS V14.01,2013-03-24 17:12:00,
2013-03-24 13:13:00,44.6,17.3,29.88,North,353,3.0,8.0,33,0.00,,---,0.00,VWS V14.01,2013-03-24 17:13:00,
2013-03-24 13:14:00,44.6,16.6,29.87,North,351,0.0,8.0,32,0.00,,---,0.00,VWS V14.01,2013-03-24 17:14:00,
2013-03-24 13:15:00,43.5,17.7,29.95,NNW,340,5.0,9.0,35,0.00,,---,0.00,VWS V14.01,2013-03-24 17:15:00,
2013-03-24 13:16:00,44.8,18.2,29.87,NNE,13,4.0,8.0,34,0.00,,---,0.00,VWS V14.01,2013-03-24 17:16:00,
2013-03-24 13:17:00,44.9,18.9,29.87,NE,37,6.0,8.0,35,0.00,,---,0.00,VWS V14.01,2013-03-24 17:17:00,
2013-03-24 13:18:00,44.9,18.9,29.87,NE,49,6.0,8.0,35,0.00,,---,0.00,VWS V14.01,2013-03-24 17:18:00,
2013-03-24 13:19:00,44.8,16.8,29.87,NE,44,3.0,9.0,32,0.00,,---,0.00,VWS V14.01,2013-03-24 17:19:00,
2013-03-24 13:20:00,43.2,16.1,29.95,SW,233,4.0,9.0,33,0.00,,---,0.00,VWS V14.01,2013-03-24 17:20:00,
2013-03-24 13:21:00,44.9,18.2,29.87,ENE,75,6.0,10.0,34,0.00,,---,0.00,VWS V14.01,2013-03-24 17:21:00,
2013-03-24 13:22:00,44.9,18.2,29.87,NE,56,11.0,11.0,34,0.00,,---,0.00,VWS V14.01,2013-03-24 17:22:00,
2013-03-24 13:24:00,45.1,19.8,29.87,NNE,25,10.0,13.0,36,0.00,,---,0.00,VWS V14.01,2013-03-24 17:24:00,
2013-03-24 13:25:00,45.2,19.9,29.87,NE,39,6.0,13.0,36,0.00,,---,0.00,VWS V14.01,2013-03-24 17:25:00,
2013-03-24 13:26:00,45.2,19.2,29.87,NNE,31,6.0,13.0,35,0.00,,---,0.00,VWS V14.01,2013-03-24 17:26:00,
2013-03-24 13:27:00,45.2,18.5,29.87,North,8,6.0,13.0,34,0.00,,---,0.00,VWS V14.01,2013-03-24 17:27:00,
2013-03-24 13:28:00,45.1,18.4,29.87,North,10,7.0,13.0,34,0.00,,---,0.00,VWS V14.01,2013-03-24 17:28:00,
2013-03-24 13:29:00,45.1,17.7,29.85,NNW,332,8.0,13.0,33,0.00,,---,0.00,VWS V14.01,2013-03-24 17:29:00,
2013-03-24 13:30:00,43.9,16.7,29.94,SE,142,4.0,9.0,33,0.00,,---,0.00,VWS V14.01,2013-03-24 17:30:00,
2013-03-24 13:31:00,45.1,18.4,29.85,NNW,344,6.0,9.0,34,0.00,,---,0.00,VWS V14.01,2013-03-24 17:31:00,
2013-03-24 13:32:00,44.9,17.6,29.85,NNE,32,7.0,18.0,33,0.00,,---,0.00,VWS V14.01,2013-03-24 17:32:00,
2013-03-24 13:33:00,44.9,18.9,29.85,ENE,60,8.0,18.0,35,0.00,,---,0.00,VWS V14.01,2013-03-24 17:33:00,
2013-03-24 13:34:00,44.9,18.2,29.85,NNE,27,7.0,18.0,34,0.00,,---,0.00,VWS V14.01,2013-03-24 17:34:00,
2013-03-24 13:35:00,44.9,18.2,29.85,NNE,29,3.0,18.0,34,0.00,,---,0.00,VWS V14.01,2013-03-24 17:35:00,
2013-03-24 13:36:00,45.1,18.4,29.85,NNE,29,6.0,18.0,34,0.00,,---,0.00,VWS V14.01,2013-03-24 17:36:00,
2013-03-24 13:37:00,45.2,19.2,29.85,NNE,27,3.0,18.0,35,0.00,,---,0.00,VWS V14.01,2013-03-24 17:37:00,
2013-03-24 13:38:00,45.4,20.0,29.85,NNE,20,4.0,18.0,36,0.00,,---,0.00,VWS V14.01,2013-03-24 17:38:00,
2013-03-24 13:39:00,45.4,16.5,29.85,NNE,20,0.0,18.0,31,0.00,,---,0.00,VWS V14.01,2013-03-24 17:39:00,
2013-03-24 13:40:00,45.4,17.3,29.85,NE,39,5.0,18.0,32,0.00,,---,0.00,VWS V14.01,2013-03-24 17:40:00,
2013-03-24 13:41:00,45.5,20.1,29.85,NE,38,5.0,18.0,36,0.00,,---,0.00,VWS V14.01,2013-03-24 17:41:00,
2013-03-24 13:42:00,45.4,18.0,29.85,NE,38,0.0,18.0,33,0.00,,---,0.00,VWS V14.01,2013-03-24 17:42:00,
2013-03-24 13:43:00,45.4,18.7,29.85,ENE,66,9.0,18.0,34,0.00,,---,0.00,VWS V14.01,2013-03-24 17:43:00,
2013-03-24 13:44:00,45.4,19.4,29.84,NE,37,7.0,18.0,35,0.00,,---,0.00,VWS V14.01,2013-03-24 17:44:00,
2013-03-24 13:46:00,45.2,17.8,29.84,NNE,20,8.0,18.0,33,0.00,,---,0.00,VWS V14.01,2013-03-24 17:46:00,
2013-03-24 13:48:00,45.4,21.3,29.84,NNE,32,4.0,18.0,38,0.00,,---,0.00,VWS V14.01,2013-03-24 17:48:00,
2013-03-24 13:49:00,45.4,18.7,29.84,North,0,4.0,18.0,34,0.00,,---,0.00,VWS V14.01,2013-03-24 17:49:00,
2013-03-24 13:50:00,45.2,17.8,29.84,ENE,69,6.0,18.0,33,0.00,,---,0.00,VWS V14.01,2013-03-24 17:50:00,
2013-03-24 13:51:00,45.2,17.8,29.84,NE,42,5.0,18.0,33,0.00,,---,0.00,VWS V14.01,2013-03-24 17:51:00,
2013-03-24 13:52:00,45.1,18.4,29.84,NE,40,4.0,18.0,34,0.00,,---,0.00,VWS V14.01,2013-03-24 17:52:00,
2013-03-24 13:53:00,45.1,18.4,29.84,ENE,74,10.0,18.0,34,0.00,,---,0.00,VWS V14.01,2013-03-24 17:53:00,
2013-03-24 13:54:00,44.9,17.6,29.84,NE,56,6.0,18.0,33,0.00,,---,0.00,VWS V14.01,2013-03-24 17:54:00,
2013-03-24 13:55:00,44.9,18.2,29.84,ENE,70,7.0,18.0,34,0.00,,---,0.00,VWS V14.01,2013-03-24 17:55:00,
2013-03-24 13:56:00,44.8,17.5,29.84,NE,53,12.0,18.0,33,0.00,,---,0.00,VWS V14.01,2013-03-24 17:56:00,
2013-03-24 13:57:00,44.8,18.8,29.84,NNE,30,4.0,18.0,35,0.00,,---,0.00,VWS V14.01,2013-03-24 17:57:00,
2013-03-24 13:58:00,44.8,17.5,29.84,North,11,7.0,18.0,33,0.00,,---,0.00,VWS V14.01,2013-03-24 17:58:00,
2013-03-24 13:59:00,44.6,18.0,29.84,NNE,19,8.0,18.0,34,0.00,,---,0.00,VWS V14.01,2013-03-24 17:59:00,
2013-03-24 14:00:00,44.6,18.0,29.84,NNE,27,7.0,18.0,34,0.00,,---,0.00,VWS V14.01,2013-03-24 18:00:00,
2013-03-24 14:01:00,44.6,18.0,29.84,NE,46,4.0,7.0,34,0.00,,---,0.00,VWS V14.01,2013-03-24 18:01:00,
2013-03-24 14:02:00,44.6,18.7,29.84,NE,46,4.0,7.0,35,0.00,,---,0.00,VWS V14.01,2013-03-24 18:02:00,
2013-03-24 14:03:00,44.5,17.2,29.84,NE,45,5.0,7.0,33,0.00,,---,0.00,VWS V14.01,2013-03-24 18:03:00,
2013-03-24 14:04:00,44.5,17.9,29.84,NE,45,0.0,7.0,34,0.00,,---,0.00,VWS V14.01,2013-03-24 18:04:00,
2013-03-24 14:05:00,44.5,17.9,29.84,NE,46,4.0,7.0,34,0.00,,---,0.00,VWS V14.01,2013-03-24 18:05:00,
2013-03-24 14:06:00,44.5,18.6,29.84,NE,46,4.0,7.0,35,0.00,,---,0.00,VWS V14.01,2013-03-24 18:06:00,
2013-03-24 14:07:00,44.6,18.7,29.84,NE,46,7.0,9.0,35,0.00,,---,0.00,VWS V14.01,2013-03-24 18:07:00,
2013-03-24 14:08:00,44.6,18.0,29.84,NNE,30,2.0,10.0,34,0.00,,---,0.00,VWS V14.01,2013-03-24 18:08:00,
2013-03-24 14:09:00,44.8,18.8,29.84,NNE,32,5.0,10.0,35,0.00,,---,0.00,VWS V14.01,2013-03-24 18:09:00,
2013-03-24 14:10:00,44.6,17.3,29.84,NNE,32,3.0,10.0,33,0.00,,---,0.00,VWS V14.01,2013-03-24 18:10:00,
2013-03-24 14:11:00,44.8,18.8,29.84,NNE,32,0.0,10.0,35,0.00,,---,0.00,VWS V14.01,2013-03-24 18:11:00,
2013-03-24 14:12:00,44.8,17.5,29.84,NNE,32,2.0,10.0,33,0.00,,---,0.00,VWS V14.01,2013-03-24 18:12:00,
2013-03-24 14:13:00,44.8,18.2,29.84,NNE,32,2.0,10.0,34,0.00,,---,0.00,VWS V14.01,2013-03-24 18:13:00,
2013-03-24 14:14:00,44.8,18.8,29.84,NNE,31,6.0,10.0,35,0.00,,---,0.00,VWS V14.01,2013-03-24 18:14:00,
2013-03-24 14:15:00,44.8,16.8,29.84,NNE,31,0.0,10.0,32,0.00,,---,0.00,VWS V14.01,2013-03-24 18:15:00,
2013-03-24 14:16:00,44.8,17.5,29.84,NNE,31,0.0,10.0,33,0.00,,---,0.00,VWS V14.01,2013-03-24 18:16:00,
2013-03-24 14:17:00,44.9,18.2,29.84,NNE,31,1.0,10.0,34,0.00,,---,0.00,VWS V14.01,2013-03-24 18:17:00,
2013-03-24 14:18:00,44.9,18.9,29.84,NNE,31,0.0,10.0,35,0.00,,---,0.00,VWS V14.01,2013-03-24 18:18:00,
2013-03-24 14:19:00,45.1,18.4,29.84,NNE,31,0.0,10.0,34,0.00,,---,0.00,VWS V14.01,2013-03-24 18:19:00,
2013-03-24 14:20:00,45.2,19.9,29.84,NNE,31,3.0,10.0,36,0.00,,---,0.00,VWS V14.01,2013-03-24 18:20:00,
2013-03-24 14:22:00,45.2,18.5,29.84,NE,34,6.0,10.0,34,0.00,,---,0.00,VWS V14.01,2013-03-24 18:22:00,
2013-03-24 14:23:00,45.2,17.8,29.84,NNE,29,5.0,10.0,33,0.00,,---,0.00,VWS V14.01,2013-03-24 18:23:00,
2013-03-24 14:24:00,45.2,17.1,29.84,NE,39,6.0,10.0,32,0.00,,---,0.00,VWS V14.01,2013-03-24 18:24:00,
2013-03-24 14:25:00,45.2,18.5,29.84,ENE,58,8.0,10.0,34,0.00,,---,0.00,VWS V14.01,2013-03-24 18:25:00,
2013-03-24 14:26:00,45.1,18.4,29.84,NE,55,5.0,10.0,34,0.00,,---,0.00,VWS V14.01,2013-03-24 18:26:00,
2013-03-24 14:27:00,45.1,17.7,29.84,North,0,4.0,10.0,33,0.00,,---,0.00,VWS V14.01,2013-03-24 18:27:00,
2013-03-24 14:28:00,44.9,16.1,29.84,North,0,2.0,10.0,31,0.00,,---,0.00,VWS V14.01,2013-03-24 18:28:00,
2013-03-24 14:29:00,44.9,16.1,29.83,North,0,5.0,10.0,31,0.00,,---,0.00,VWS V14.01,2013-03-24 18:29:00,
2013-03-24 14:30:00,44.9,16.1,29.83,North,5,4.0,10.0,31,0.00,,---,0.00,VWS V14.01,2013-03-24 18:30:00,
2013-03-24 14:31:00,44.9,16.1,29.83,North,5,3.0,5.0,31,0.00,,---,0.00,VWS V14.01,2013-03-24 18:31:00,
2013-03-24 14:32:00,44.9,16.1,29.83,North,5,2.0,5.0,31,0.00,,---,0.00,VWS V14.01,2013-03-24 18:32:00,
2013-03-24 14:34:00,44.9,16.8,29.83,NE,40,11.0,12.0,32,0.00,,---,0.00,VWS V14.01,2013-03-24 18:34:00,
2013-03-24 14:35:00,44.9,16.8,29.83,NE,35,4.0,12.0,32,0.00,,---,0.00,VWS V14.01,2013-03-24 18:35:00,
2013-03-24 14:36:00,44.9,16.8,29.83,NE,35,4.0,12.0,32,0.00,,---,0.00,VWS V14.01,2013-03-24 18:36:00,
2013-03-24 14:37:00,44.9,16.1,29.83,ENE,58,14.0,14.0,31,0.00,,---,0.00,VWS V14.01,2013-03-24 18:37:00,
2013-03-24 14:38:00,44.8,15.3,29.83,NE,53,12.0,14.0,30,0.00,,---,0.00,VWS V14.01,2013-03-24 18:38:00,
2013-03-24 14:39:00,44.6,15.1,29.83,North,6,5.0,14.0,30,0.00,,---,0.00,VWS V14.01,2013-03-24 18:39:00,
2013-03-24 14:40:00,44.6,15.9,29.83,NNE,17,6.0,14.0,31,0.00,,---,0.00,VWS V14.01,2013-03-24 18:40:00,
2013-03-24 14:41:00,44.6,15.1,29.83,NNE,16,4.0,14.0,30,0.00,,---,0.00,VWS V14.01,2013-03-24 18:41:00,
2013-03-24 14:42:00,44.6,15.9,29.83,NE,46,9.0,14.0,31,0.00,,---,0.00,VWS V14.01,2013-03-24 18:42:00,
2013-03-24 14:43:00,44.6,15.9,29.83,NE,37,8.0,14.0,31,0.00,,---,0.00,VWS V14.01,2013-03-24 18:43:00,
2013-03-24 14:44:00,44.6,16.6,29.83,NE,40,6.0,14.0,32,0.00,,---,0.00,VWS V14.01,2013-03-24 18:44:00,
2013-03-24 14:45:00,44.6,17.3,29.83,NE,51,7.0,14.0,33,0.00,,---,0.00,VWS V14.01,2013-03-24 18:45:00,
2013-03-24 14:46:00,44.5,15.0,29.83,ENE,58,5.0,14.0,30,0.00,,---,0.00,VWS V14.01,2013-03-24 18:46:00,
2013-03-24 14:47:00,44.5,16.5,29.83,NE,50,3.0,14.0,32,0.00,,---,0.00,VWS V14.01,2013-03-24 18:47:00,
2013-03-24 14:48:00,44.5,16.5,29.83,NE,50,3.0,14.0,32,0.00,,---,0.00,VWS V14.01,2013-03-24 18:48:00,
2013-03-24 14:49:00,44.6,17.3,29.83,NE,50,5.0,14.0,33,0.00,,---,0.00,VWS V14.01,2013-03-24 18:49:00,
2013-03-24 14:50:00,44.6,18.0,29.83,NE,49,1.0,14.0,34,0.00,,---,0.00,VWS V14.01,2013-03-24 18:50:00,
2013-03-24 14:51:00,44.6,15.9,29.83,NE,49,3.0,14.0,31,0.00,,---,0.00,VWS V14.01,2013-03-24 18:51:00,
2013-03-24 14:52:00,44.6,16.6,29.83,NE,49,2.0,14.0,32,0.00,,---,0.00,VWS V14.01,2013-03-24 18:52:00,
2013-03-24 14:53:00,44.8,17.5,29.83,North,352,8.0,14.0,33,0.00,,---,0.00,VWS V14.01,2013-03-24 18:53:00,
2013-03-24 14:54:00,44.8,16.0,29.83,North,357,4.0,14.0,31,0.00,,---,0.00,VWS V14.01,2013-03-24 18:54:00,
2013-03-24 14:55:00,44.8,16.8,29.83,North,357,1.0,14.0,32,0.00,,---,0.00,VWS V14.01,2013-03-24 18:55:00,
2013-03-24 14:56:00,44.8,16.8,29.83,North,358,5.0,14.0,32,0.00,,---,0.00,VWS V14.01,2013-03-24 18:56:00,
2013-03-24 14:57:00,44.8,16.0,29.83,North,358,2.0,14.0,31,0.00,,---,0.00,VWS V14.01,2013-03-24 18:57:00,
2013-03-24 14:58:00,44.8,16.0,29.83,North,358,4.0,14.0,31,0.00,,---,0.00,VWS V14.01,2013-03-24 18:58:00,
2013-03-24 14:59:00,44.6,15.9,29.82,North,358,2.0,14.0,31,0.00,,---,0.00,VWS V14.01,2013-03-24 18:59:00,
2013-03-24 15:00:00,44.6,15.9,29.82,North,358,0.0,14.0,31,0.00,,---,0.00,VWS V14.01,2013-03-24 19:00:00,
2013-03-24 15:01:00,44.6,16.6,29.82,North,358,0.0,3.0,32,0.00,,---,0.00,VWS V14.01,2013-03-24 19:01:00,
2013-03-24 15:02:00,44.6,15.9,29.82,NNW,337,2.0,9.0,31,0.00,,---,0.00,VWS V14.01,2013-03-24 19:02:00,
2013-03-24 15:04:00,44.6,15.9,29.82,NNW,338,6.0,9.0,31,0.00,,---,0.00,VWS V14.01,2013-03-24 19:04:00,
2013-03-24 15:05:00,44.6,15.9,29.82,NNW,340,2.0,9.0,31,0.00,,---,0.00,VWS V14.01,2013-03-24 19:05:00,
2013-03-24 15:06:00,44.8,16.8,29.82,NNW,340,2.0,9.0,32,0.00,,---,0.00,VWS V14.01,2013-03-24 19:06:00,
2013-03-24 15:07:00,44.8,16.8,29.82,NNW,340,1.0,9.0,32,0.00,,---,0.00,VWS V14.01,2013-03-24 19:07:00,
2013-03-24 15:08:00,44.8,16.0,29.82,NNW,340,0.0,9.0,31,0.00,,---,0.00,VWS V14.01,2013-03-24 19:08:00,
2013-03-24 15:09:00,44.8,16.0,29.82,North,351,5.0,9.0,31,0.00,,---,0.00,VWS V14.01,2013-03-24 19:09:00,
2013-03-24 15:10:00,44.8,16.8,29.82,North,352,2.0,9.0,32,0.00,,---,0.00,VWS V14.01,2013-03-24 19:10:00,
2013-03-24 15:11:00,44.8,17.5,29.82,North,355,4.0,9.0,33,0.00,,---,0.00,VWS V14.01,2013-03-24 19:11:00,
2013-03-24 15:12:00,44.8,16.8,29.82,North,355,2.0,9.0,32,0.00,,---,0.00,VWS V14.01,2013-03-24 19:12:00,
2013-03-24 15:13:00,44.8,17.5,29.82,NNE,31,10.0,11.0,33,0.00,,---,0.00,VWS V14.01,2013-03-24 19:13:00,
2013-03-24 15:15:00,44.8,17.5,29.81,NE,47,9.0,11.0,33,0.00,,---,0.00,VWS V14.01,2013-03-24 19:15:00,
2013-03-24 15:16:00,44.6,17.3,29.81,NE,46,7.0,11.0,33,0.00,,---,0.00,VWS V14.01,2013-03-24 19:16:00,
2013-03-24 15:18:00,44.6,18.0,29.81,NE,49,5.0,11.0,34,0.00,,---,0.00,VWS V14.01,2013-03-24 19:18:00,
2013-03-24 15:20:00,44.8,17.5,29.81,NE,44,4.0,11.0,33,0.00,,---,0.00,VWS V14.01,2013-03-24 19:20:00,
2013-03-24 15:21:00,44.8,17.5,29.81,NE,46,6.0,11.0,33,0.00,,---,0.00,VWS V14.01,2013-03-24 19:21:00,
2013-03-24 15:22:00,44.8,18.2,29.81,NE,46,2.0,11.0,34,0.00,,---,0.00,VWS V14.01,2013-03-24 19:22:00,
2013-03-24 15:23:00,44.8,18.2,29.81,NE,46,3.0,11.0,34,0.00,,---,0.00,VWS V14.01,2013-03-24 19:23:00,
2013-03-24 15:24:00,44.9,18.9,29.81,NE,46,4.0,11.0,35,0.00,,---,0.00,VWS V14.01,2013-03-24 19:24:00,
2013-03-24 15:25:00,44.9,18.9,29.81,NE,47,5.0,11.0,35,0.00,,---,0.00,VWS V14.01,2013-03-24 19:25:00,
2013-03-24 15:26:00,44.9,18.9,29.81,NE,48,6.0,11.0,35,0.00,,---,0.00,VWS V14.01,2013-03-24 19:26:00,
2013-03-24 15:27:00,44.9,17.6,29.81,NE,46,5.0,11.0,33,0.00,,---,0.00,VWS V14.01,2013-03-24 19:27:00,
2013-03-24 15:29:00,44.8,17.5,29.81,NE,47,4.0,11.0,33,0.00,,---,0.00,VWS V14.01,2013-03-24 19:29:00,
2013-03-24 15:30:00,44.8,17.5,29.81,NE,46,2.0,11.0,33,0.00,,---,0.00,VWS V14.01,2013-03-24 19:30:00,
2013-03-24 15:31:00,44.8,17.5,29.81,NE,46,4.0,5.0,33,0.00,,---,0.00,VWS V14.01,2013-03-24 19:31:00,
2013-03-24 15:32:00,44.8,17.5,29.81,NE,46,3.0,5.0,33,0.00,,---,0.00,VWS V14.01,2013-03-24 19:32:00,
2013-03-24 15:33:00,44.8,16.8,29.81,NE,46,1.0,5.0,32,0.00,,---,0.00,VWS V14.01,2013-03-24 19:33:00,
2013-03-24 15:34:00,44.8,16.8,29.81,NE,46,3.0,5.0,32,0.00,,---,0.00,VWS V14.01,2013-03-24 19:34:00,
2013-03-24 15:35:00,44.8,17.5,29.81,NE,46,3.0,5.0,33,0.00,,---,0.00,VWS V14.01,2013-03-24 19:35:00,
2013-03-24 15:36:00,44.8,17.5,29.81,NNE,32,3.0,6.0,33,0.00,,---,0.00,VWS V14.01,2013-03-24 19:36:00,
2013-03-24 15:37:00,44.8,18.8,29.81,NNE,32,4.0,6.0,35,0.00,,---,0.00,VWS V14.01,2013-03-24 19:37:00,
2013-03-24 15:38:00,44.9,17.6,29.81,NNE,32,4.0,6.0,33,0.00,,---,0.00,VWS V14.01,2013-03-24 19:38:00,
2013-03-24 15:39:00,44.8,18.2,29.81,NE,39,2.0,9.0,34,0.00,,---,0.00,VWS V14.01,2013-03-24 19:39:00,
2013-03-24 15:40:00,44.8,17.5,29.81,NE,39,4.0,9.0,33,0.00,,---,0.00,VWS V14.01,2013-03-24 19:40:00,
2013-03-24 15:41:00,44.8,18.8,29.81,NE,39,1.0,9.0,35,0.00,,---,0.00,VWS V14.01,2013-03-24 19:41:00,
2013-03-24 15:42:00,44.6,17.3,29.81,NE,39,6.0,9.0,33,0.00,,---,0.00,VWS V14.01,2013-03-24 19:42:00,
2013-03-24 15:43:00,44.6,17.3,29.81,NE,39,3.0,9.0,33,0.00,,---,0.00,VWS V14.01,2013-03-24 19:43:00,
2013-03-24 15:44:00,44.6,18.0,29.81,NE,39,1.0,9.0,34,0.00,,---,0.00,VWS V14.01,2013-03-24 19:44:00,
2013-03-24 15:45:00,44.5,17.2,29.81,NE,39,1.0,9.0,33,0.00,,---,0.00,VWS V14.01,2013-03-24 19:45:00,
2013-03-24 15:46:00,44.5,17.2,29.81,NE,39,0.0,9.0,33,0.00,,---,0.00,VWS V14.01,2013-03-24 19:46:00,
2013-03-24 15:47:00,44.5,17.2,29.81,NE,39,0.0,9.0,33,0.00,,---,0.00,VWS V14.01,2013-03-24 19:47:00,
2013-03-24 15:48:00,44.5,17.2,29.81,NE,39,0.0,9.0,33,0.00,,---,0.00,VWS V14.01,2013-03-24 19:48:00,
2013-03-24 15:49:00,44.5,17.2,29.81,NE,39,0.0,9.0,33,0.00,,---,0.00,VWS V14.01,2013-03-24 19:49:00,
2013-03-24 15:50:00,44.5,17.2,29.81,NE,39,0.0,9.0,33,0.00,,---,0.00,VWS V14.01,2013-03-24 19:50:00,
2013-03-24 15:51:00,44.5,17.2,29.81,NE,39,0.0,9.0,33,0.00,,---,0.00,VWS V14.01,2013-03-24 19:51:00,
2013-03-24 15:52:00,44.6,18.0,29.81,NE,39,0.0,9.0,34,0.00,,---,0.00,VWS V14.01,2013-03-24 19:52:00,
2013-03-24 15:53:00,44.6,19.3,29.81,NE,39,0.0,9.0,36,0.00,,---,0.00,VWS V14.01,2013-03-24 19:53:00,
2013-03-24 15:54:00,44.6,18.0,29.81,NE,39,3.0,9.0,34,0.00,,---,0.00,VWS V14.01,2013-03-24 19:54:00,
2013-03-24 15:55:00,44.6,18.0,29.81,NE,39,5.0,9.0,34,0.00,,---,0.00,VWS V14.01,2013-03-24 19:55:00,
2013-03-24 15:56:00,44.6,18.0,29.81,NE,39,3.0,9.0,34,0.00,,---,0.00,VWS V14.01,2013-03-24 19:56:00,
2013-03-24 15:57:00,44.6,18.7,29.81,NE,39,6.0,9.0,35,0.00,,---,0.00,VWS V14.01,2013-03-24 19:57:00,
2013-03-24 15:58:00,44.6,17.3,29.81,NE,39,4.0,9.0,33,0.00,,---,0.00,VWS V14.01,2013-03-24 19:58:00,
2013-03-24 15:59:00,44.5,17.2,29.81,NE,39,2.0,9.0,33,0.00,,---,0.00,VWS V14.01,2013-03-24 19:59:00,
2013-03-24 16:00:00,44.5,17.2,29.81,NE,39,1.0,9.0,33,0.00,,---,0.00,VWS V14.01,2013-03-24 20:00:00,
2013-03-24 16:01:00,44.5,17.2,29.81,North,0,4.0,8.0,33,0.00,,---,0.00,VWS V14.01,2013-03-24 20:01:00,
2013-03-24 16:02:00,44.5,17.9,29.81,NNE,24,6.0,8.0,34,0.00,,---,0.00,VWS V14.01,2013-03-24 20:02:00,
2013-03-24 16:03:00,44.3,18.4,29.81,NNE,25,6.0,8.0,35,0.00,,---,0.00,VWS V14.01,2013-03-24 20:03:00,
2013-03-24 16:04:00,44.3,17.0,29.81,NNE,25,5.0,8.0,33,0.00,,---,0.00,VWS V14.01,2013-03-24 20:04:00,
2013-03-24 16:05:00,44.2,17.6,29.81,NNE,25,3.0,8.0,34,0.00,,---,0.00,VWS V14.01,2013-03-24 20:05:00,
2013-03-24 16:06:00,44.2,18.3,29.81,NNE,25,2.0,8.0,35,0.00,,---,0.00,VWS V14.01,2013-03-24 20:06:00,
2013-03-24 16:07:00,44.2,17.6,29.81,NNE,25,3.0,8.0,34,0.00,,---,0.00,VWS V14.01,2013-03-24 20:07:00,
2013-03-24 16:08:00,44.2,18.3,29.81,NNE,25,3.0,8.0,35,0.00,,---,0.00,VWS V14.01,2013-03-24 20:08:00,
2013-03-24 16:09:00,44.2,17.6,29.81,NNE,25,3.0,8.0,34,0.00,,---,0.00,VWS V14.01,2013-03-24 20:09:00,
2013-03-24 16:10:00,44.2,18.3,29.81,NNE,25,1.0,8.0,35,0.00,,---,0.00,VWS V14.01,2013-03-24 20:10:00,
2013-03-24 16:12:00,44.2,18.3,29.81,NNE,25,0.0,8.0,35,0.00,,---,0.00,VWS V14.01,2013-03-24 20:12:00,
2013-03-24 16:13:00,44.2,17.6,29.81,NNE,25,0.0,8.0,34,0.00,,---,0.00,VWS V14.01,2013-03-24 20:13:00,
2013-03-24 16:15:00,44.2,17.6,29.81,NNE,25,0.0,8.0,34,0.00,,---,0.00,VWS V14.01,2013-03-24 20:15:00,
2013-03-24 16:16:00,44.2,17.6,29.81,NNE,25,0.0,8.0,34,0.00,,---,0.00,VWS V14.01,2013-03-24 20:16:00,
2013-03-24 16:17:00,44.2,17.6,29.81,NNE,25,2.0,8.0,34,0.00,,---,0.00,VWS V14.01,2013-03-24 20:17:00,
2013-03-24 16:18:00,44.2,16.9,29.81,NNE,25,2.0,8.0,33,0.00,,---,0.00,VWS V14.01,2013-03-24 20:18:00,
2013-03-24 16:19:00,44.2,17.6,29.81,NNE,25,2.0,8.0,34,0.00,,---,0.00,VWS V14.01,2013-03-24 20:19:00,
2013-03-24 16:20:00,44.2,17.6,29.81,NNE,25,4.0,8.0,34,0.00,,---,0.00,VWS V14.01,2013-03-24 20:20:00,
2013-03-24 16:21:00,44.2,17.6,29.81,NNE,25,4.0,8.0,34,0.00,,---,0.00,VWS V14.01,2013-03-24 20:21:00,
2013-03-24 16:22:00,44.2,17.6,29.81,NNE,25,2.0,8.0,34,0.00,,---,0.00,VWS V14.01,2013-03-24 20:22:00,
2013-03-24 16:24:00,44.2,18.3,29.81,NNE,25,3.0,8.0,35,0.00,,---,0.00,VWS V14.01,2013-03-24 20:24:00,
2013-03-24 16:25:00,44.2,18.3,29.81,NNE,25,3.0,8.0,35,0.00,,---,0.00,VWS V14.01,2013-03-24 20:25:00,
2013-03-24 16:26:00,44.2,18.3,29.81,NNE,25,0.0,8.0,35,0.00,,---,0.00,VWS V14.01,2013-03-24 20:26:00,
2013-03-24 16:27:00,44.2,19.0,29.81,NNE,25,4.0,8.0,36,0.00,,---,0.00,VWS V14.01,2013-03-24 20:27:00,
2013-03-24 16:29:00,44.2,18.3,29.81,NNE,25,2.0,8.0,35,0.00,,---,0.00,VWS V14.01,2013-03-24 20:29:00,
2013-03-24 16:30:00,44.2,18.3,29.81,NNE,25,3.0,8.0,35,0.00,,---,0.00,VWS V14.01,2013-03-24 20:30:00,
2013-03-24 16:31:00,44.2,17.6,29.81,NNE,25,0.0,3.0,34,0.00,,---,0.00,VWS V14.01,2013-03-24 20:31:00,
2013-03-24 16:32:00,44.2,18.3,29.81,NNE,25,3.0,3.0,35,0.00,,---,0.00,VWS V14.01,2013-03-24 20:32:00,
2013-03-24 16:33:00,44.2,18.3,29.81,NNE,25,3.0,4.0,35,0.00,,---,0.00,VWS V14.01,2013-03-24 20:33:00,
2013-03-24 16:34:00,44.2,18.3,29.81,NNE,25,1.0,4.0,35,0.00,,---,0.00,VWS V14.01,2013-03-24 20:34:00,
2013-03-24 16:35:00,44.1,18.2,29.81,NNE,25,3.0,4.0,35,0.00,,---,0.00,VWS V14.01,2013-03-24 20:35:00,
2013-03-24 16:36:00,44.1,18.2,29.81,NNE,25,6.0,6.0,35,0.00,,---,0.00,VWS V14.01,2013-03-24 20:36:00,
2013-03-24 16:37:00,44.1,18.2,29.81,NNE,25,4.0,7.0,35,0.00,,---,0.00,VWS V14.01,2013-03-24 20:37:00,
2013-03-24 16:38:00,44.1,18.2,29.81,NNE,25,2.0,7.0,35,0.00,,---,0.00,VWS V14.01,2013-03-24 20:38:00,
2013-03-24 16:39:00,44.1,18.9,29.81,NNE,25,5.0,7.0,36,0.00,,---,0.00,VWS V14.01,2013-03-24 20:39:00,
2013-03-24 16:40:00,44.1,18.2,29.81,NNE,25,3.0,7.0,35,0.00,,---,0.00,VWS V14.01,2013-03-24 20:40:00,
2013-03-24 16:41:00,44.1,18.2,29.81,NNE,25,4.0,7.0,35,0.00,,---,0.00,VWS V14.01,2013-03-24 20:41:00,
2013-03-24 16:42:00,44.1,18.2,29.81,NNE,25,3.0,7.0,35,0.00,,---,0.00,VWS V14.01,2013-03-24 20:42:00,
2013-03-24 16:43:00,44.1,18.9,29.81,NNE,25,2.0,7.0,36,0.00,,---,0.00,VWS V14.01,2013-03-24 20:43:00,
2013-03-24 16:44:00,44.1,19.5,29.81,NNE,25,4.0,7.0,37,0.00,,---,0.00,VWS V14.01,2013-03-24 20:44:00,
2013-03-24 16:45:00,44.1,18.9,29.81,NNE,25,0.0,7.0,36,0.00,,---,0.00,VWS V14.01,2013-03-24 20:45:00,
2013-03-24 16:46:00,44.1,18.2,29.81,NNE,25,3.0,7.0,35,0.00,,---,0.00,VWS V14.01,2013-03-24 20:46:00,
2013-03-24 16:47:00,44.1,18.2,29.81,NNE,25,3.0,7.0,35,0.00,,---,0.00,VWS V14.01,2013-03-24 20:47:00,
2013-03-24 16:48:00,44.1,18.9,29.81,NNE,25,0.0,7.0,36,0.00,,---,0.00,VWS V14.01,2013-03-24 20:48:00,
2013-03-24 16:49:00,44.1,18.2,29.81,NNE,25,0.0,7.0,35,0.00,,---,0.00,VWS V14.01,2013-03-24 20:49:00,
2013-03-24 16:50:00,44.1,18.2,29.81,NNE,25,0.0,7.0,35,0.00,,---,0.00,VWS V14.01,2013-03-24 20:50:00,
2013-03-24 16:51:00,44.1,18.9,29.81,NNE,25,3.0,7.0,36,0.00,,---,0.00,VWS V14.01,2013-03-24 20:51:00,
2013-03-24 16:52:00,44.1,18.9,29.81,NNE,25,4.0,7.0,36,0.00,,---,0.00,VWS V14.01,2013-03-24 20:52:00,
2013-03-24 16:53:00,43.9,18.0,29.81,NNE,25,2.0,7.0,35,0.00,,---,0.00,VWS V14.01,2013-03-24 20:53:00,
2013-03-24 16:55:00,43.9,18.0,29.81,NNE,25,1.0,7.0,35,0.00,,---,0.00,VWS V14.01,2013-03-24 20:55:00,
2013-03-24 16:57:00,43.9,18.7,29.81,NNE,25,2.0,7.0,36,0.00,,---,0.00,VWS V14.01,2013-03-24 20:57:00,
2013-03-24 16:59:00,43.9,18.7,29.81,NNE,25,0.0,7.0,36,0.00,,---,0.00,VWS V14.01,2013-03-24 20:59:00,
2013-03-24 17:00:00,43.9,18.7,29.80,NNE,25,0.0,7.0,36,0.00,,---,0.00,VWS V14.01,2013-03-24 21:00:00,
2013-03-24 17:01:00,43.9,18.7,29.80,NNE,25,0.0,0.0,36,0.00,,---,0.00,VWS V14.01,2013-03-24 21:01:00,
2013-03-24 17:02:00,43.9,19.3,29.80,NNE,25,0.0,0.0,37,0.00,,---,0.00,VWS V14.01,2013-03-24 21:02:00,
2013-03-24 17:04:00,43.9,19.3,29.80,NNE,25,0.0,0.0,37,0.00,,---,0.00,VWS V14.01,2013-03-24 21:04:00,
2013-03-24 17:05:00,43.8,19.2,29.80,NNE,25,2.0,4.0,37,0.00,,---,0.00,VWS V14.01,2013-03-24 21:05:00,
2013-03-24 17:06:00,43.8,19.9,29.80,NNE,25,3.0,5.0,38,0.00,,---,0.00,VWS V14.01,2013-03-24 21:06:00,
2013-03-24 17:07:00,43.8,19.2,29.80,NNE,25,3.0,5.0,37,0.00,,---,0.00,VWS V14.01,2013-03-24 21:07:00,
2013-03-24 17:08:00,43.8,19.2,29.80,NNE,25,4.0,5.0,37,0.00,,---,0.00,VWS V14.01,2013-03-24 21:08:00,
2013-03-24 17:09:00,43.8,19.2,29.80,NNE,25,2.0,5.0,37,0.00,,---,0.00,VWS V14.01,2013-03-24 21:09:00,
2013-03-24 17:10:00,43.8,19.9,29.80,NNE,25,2.0,5.0,38,0.00,,---,0.00,VWS V14.01,2013-03-24 21:10:00,
2013-03-24 17:11:00,43.8,19.9,29.80,NNE,26,4.0,6.0,38,0.00,,---,0.00,VWS V14.01,2013-03-24 21:11:00,
2013-03-24 17:12:00,43.6,20.3,29.80,NNE,19,4.0,7.0,39,0.00,,---,0.00,VWS V14.01,2013-03-24 21:12:00,
2013-03-24 17:13:00,43.6,19.1,29.80,NNE,19,5.0,7.0,37,0.00,,---,0.00,VWS V14.01,2013-03-24 21:13:00,
2013-03-24 17:14:00,43.6,19.7,29.80,NNE,19,3.0,7.0,38,0.00,,---,0.00,VWS V14.01,2013-03-24 21:14:00,
2013-03-24 17:15:00,43.6,19.7,29.80,NNE,19,4.0,7.0,38,0.00,,---,0.00,VWS V14.01,2013-03-24 21:15:00,
2013-03-24 17:16:00,43.6,19.7,29.80,NNE,19,2.0,7.0,38,0.00,,---,0.00,VWS V14.01,2013-03-24 21:16:00,
2013-03-24 17:17:00,43.6,19.1,29.80,NNE,19,3.0,7.0,37,0.00,,---,0.00,VWS V14.01,2013-03-24 21:17:00,
2013-03-24 17:18:00,43.6,19.1,29.80,NNE,20,4.0,7.0,37,0.00,,---,0.00,VWS V14.01,2013-03-24 21:18:00,
2013-03-24 17:19:00,43.5,19.0,29.80,NNE,19,4.0,7.0,37,0.00,,---,0.00,VWS V14.01,2013-03-24 21:19:00,
2013-03-24 17:20:00,43.5,19.0,29.80,NNE,20,2.0,7.0,37,0.00,,---,0.00,VWS V14.01,2013-03-24 21:20:00,
2013-03-24 17:21:00,43.5,19.0,29.80,NNE,20,2.0,7.0,37,0.00,,---,0.00,VWS V14.01,2013-03-24 21:21:00,
2013-03-24 17:22:00,43.5,19.6,29.80,NNE,20,3.0,7.0,38,0.00,,---,0.00,VWS V14.01,2013-03-24 21:22:00,
2013-03-24 17:24:00,43.3,18.8,29.80,NNE,20,4.0,7.0,37,0.00,,---,0.00,VWS V14.01,2013-03-24 21:24:00,
2013-03-24 17:25:00,43.3,18.8,29.80,NNE,20,4.0,7.0,37,0.00,,---,0.00,VWS V14.01,2013-03-24 21:25:00,
2013-03-24 17:26:00,43.3,18.8,29.80,NNE,20,4.0,7.0,37,0.00,,---,0.00,VWS V14.01,2013-03-24 21:26:00,
2013-03-24 17:27:00,43.3,18.8,29.80,NNE,20,2.0,7.0,37,0.00,,---,0.00,VWS V14.01,2013-03-24 21:27:00,
2013-03-24 17:28:00,43.3,18.8,29.80,NNE,20,4.0,7.0,37,0.00,,---,0.00,VWS V14.01,2013-03-24 21:28:00,
2013-03-24 17:29:00,43.3,18.8,29.79,NNE,20,4.0,7.0,37,0.00,,---,0.00,VWS V14.01,2013-03-24 21:29:00,
2013-03-24 17:30:00,43.3,18.8,29.79,NNE,20,3.0,7.0,37,0.00,,---,0.00,VWS V14.01,2013-03-24 21:30:00,
2013-03-24 17:31:00,43.2,18.7,29.79,NNE,28,4.0,7.0,37,0.00,,---,0.00,VWS V14.01,2013-03-24 21:31:00,
2013-03-24 17:32:00,43.2,18.7,29.79,NNE,29,4.0,7.0,37,0.00,,---,0.00,VWS V14.01,2013-03-24 21:32:00,
2013-03-24 17:33:00,43.2,18.7,29.79,NNE,15,4.0,7.0,37,0.00,,---,0.00,VWS V14.01,2013-03-24 21:33:00,
2013-03-24 17:34:00,43.2,18.7,29.79,NNE,15,4.0,7.0,37,0.00,,---,0.00,VWS V14.01,2013-03-24 21:34:00,
2013-03-24 17:35:00,43.2,18.7,29.79,NNE,15,3.0,7.0,37,0.00,,---,0.00,VWS V14.01,2013-03-24 21:35:00,
2013-03-24 17:36:00,43.2,18.7,29.79,NNE,15,3.0,7.0,37,0.00,,---,0.00,VWS V14.01,2013-03-24 21:36:00,
2013-03-24 17:37:00,43.2,18.7,29.79,NNE,15,1.0,7.0,37,0.00,,---,0.00,VWS V14.01,2013-03-24 21:37:00,
2013-03-24 17:38:00,43.1,18.6,29.79,NNE,15,3.0,7.0,37,0.00,,---,0.00,VWS V14.01,2013-03-24 21:38:00,
2013-03-24 17:39:00,43.1,18.6,29.79,NNE,15,0.0,7.0,37,0.00,,---,0.00,VWS V14.01,2013-03-24 21:39:00,
2013-03-24 17:40:00,43.1,19.2,29.79,NNE,15,2.0,7.0,38,0.00,,---,0.00,VWS V14.01,2013-03-24 21:40:00,
2013-03-24 17:41:00,43.1,19.2,29.79,NNE,15,1.0,7.0,38,0.00,,---,0.00,VWS V14.01,2013-03-24 21:41:00,
2013-03-24 17:42:00,42.9,19.1,29.79,NNE,15,0.0,7.0,38,0.00,,---,0.00,VWS V14.01,2013-03-24 21:42:00,
2013-03-24 17:43:00,42.9,19.1,29.79,NNE,15,0.0,7.0,38,0.00,,---,0.00,VWS V14.01,2013-03-24 21:43:00,
2013-03-24 17:44:00,42.9,19.1,29.80,NNE,15,0.0,7.0,38,0.00,,---,0.00,VWS V14.01,2013-03-24 21:44:00,
2013-03-24 17:45:00,42.9,19.1,29.80,NNE,15,1.0,7.0,38,0.00,,---,0.00,VWS V14.01,2013-03-24 21:45:00,
2013-03-24 17:46:00,42.8,19.0,29.80,NNE,15,3.0,7.0,38,0.00,,---,0.00,VWS V14.01,2013-03-24 21:46:00,
2013-03-24 17:47:00,42.8,19.0,29.80,NNE,15,3.0,7.0,38,0.00,,---,0.00,VWS V14.01,2013-03-24 21:47:00,
2013-03-24 17:48:00,42.8,19.0,29.80,NNE,15,2.0,7.0,38,0.00,,---,0.00,VWS V14.01,2013-03-24 21:48:00,
2013-03-24 17:49:00,42.8,19.0,29.80,NNE,15,1.0,7.0,38,0.00,,---,0.00,VWS V14.01,2013-03-24 21:49:00,
2013-03-24 17:51:00,42.8,19.6,29.80,NNE,15,1.0,7.0,39,0.00,,---,0.00,VWS V14.01,2013-03-24 21:51:00,
2013-03-24 17:53:00,42.8,19.0,29.80,NNE,15,3.0,7.0,38,0.00,,---,0.00,VWS V14.01,2013-03-24 21:53:00,
2013-03-24 17:55:00,42.8,19.0,29.80,NNE,15,2.0,7.0,38,0.00,,---,0.00,VWS V14.01,2013-03-24 21:55:00,
2013-03-24 17:57:00,42.8,19.0,29.80,NNE,15,1.0,7.0,38,0.00,,---,0.00,VWS V14.01,2013-03-24 21:57:00,
2013-03-24 17:58:00,42.8,19.0,29.80,NNE,15,3.0,7.0,38,0.00,,---,0.00,VWS V14.01,2013-03-24 21:58:00,
2013-03-24 17:59:00,42.6,18.8,29.80,NNE,15,0.0,7.0,38,0.00,,---,0.00,VWS V14.01,2013-03-24 21:59:00,
2013-03-24 18:00:00,42.6,18.8,29.81,NNE,15,1.0,7.0,38,0.00,,---,0.00,VWS V14.01,2013-03-24 22:00:00,
2013-03-24 18:01:00,42.6,18.8,29.81,NNE,15,0.0,1.0,38,0.00,,---,0.00,VWS V14.01,2013-03-24 22:01:00,
2013-03-24 18:02:00,42.6,18.8,29.81,NNE,15,2.0,3.0,38,0.00,,---,0.00,VWS V14.01,2013-03-24 22:02:00,
2013-03-24 18:03:00,42.6,18.8,29.81,NNE,15,0.0,3.0,38,0.00,,---,0.00,VWS V14.01,2013-03-24 22:03:00,
2013-03-24 18:04:00,42.6,19.4,29.81,NNE,15,0.0,3.0,39,0.00,,---,0.00,VWS V14.01,2013-03-24 22:04:00,
2013-03-24 18:05:00,42.5,18.7,29.81,NNE,15,2.0,4.0,38,0.00,,---,0.00,VWS V14.01,2013-03-24 22:05:00,
2013-03-24 18:06:00,42.5,18.7,29.81,NNE,15,0.0,4.0,38,0.00,,---,0.00,VWS V14.01,2013-03-24 22:06:00,
2013-03-24 18:07:00,42.5,19.3,29.81,NNE,15,0.0,4.0,39,0.00,,---,0.00,VWS V14.01,2013-03-24 22:07:00,
2013-03-24 18:08:00,42.5,19.3,29.81,NNE,15,0.0,4.0,39,0.00,,---,0.00,VWS V14.01,2013-03-24 22:08:00,
2013-03-24 18:09:00,42.5,19.3,29.81,NNE,15,0.0,4.0,39,0.00,,---,0.00,VWS V14.01,2013-03-24 22:09:00,
2013-03-24 18:10:00,42.5,19.3,29.81,NNE,15,1.0,4.0,39,0.00,,---,0.00,VWS V14.01,2013-03-24 22:10:00,
2013-03-24 18:11:00,42.3,19.1,29.81,NNE,15,0.0,4.0,39,0.00,,---,0.00,VWS V14.01,2013-03-24 22:11:00,
2013-03-24 18:12:00,42.3,19.1,29.81,NNE,15,0.0,4.0,39,0.00,,---,0.00,VWS V14.01,2013-03-24 22:12:00,
2013-03-24 18:13:00,42.3,19.1,29.81,NNE,15,0.0,4.0,39,0.00,,---,0.00,VWS V14.01,2013-03-24 22:13:00,
2013-03-24 18:14:00,42.3,19.1,29.81,NNE,15,0.0,4.0,39,0.00,,---,0.00,VWS V14.01,2013-03-24 22:14:00,
2013-03-24 18:15:00,42.3,19.1,29.82,NNE,15,1.0,4.0,39,0.00,,---,0.00,VWS V14.01,2013-03-24 22:15:00,
2013-03-24 18:16:00,42.3,19.1,29.82,NNE,15,0.0,4.0,39,0.00,,---,0.00,VWS V14.01,2013-03-24 22:16:00,
2013-03-24 18:17:00,42.3,19.1,29.82,NNE,15,0.0,4.0,39,0.00,,---,0.00,VWS V14.01,2013-03-24 22:17:00,
2013-03-24 18:19:00,42.3,19.7,29.82,NNE,15,0.0,4.0,40,0.00,,---,0.00,VWS V14.01,2013-03-24 22:19:00,
2013-03-24 18:20:00,42.3,19.1,29.82,NNE,15,0.0,4.0,39,0.00,,---,0.00,VWS V14.01,2013-03-24 22:20:00,
2013-03-24 18:21:00,42.2,19.6,29.82,NNE,15,0.0,4.0,40,0.00,,---,0.00,VWS V14.01,2013-03-24 22:21:00,
2013-03-24 18:22:00,42.2,20.2,29.82,NNE,15,0.0,4.0,41,0.00,,---,0.00,VWS V14.01,2013-03-24 22:22:00,
2013-03-24 18:23:00,42.2,20.2,29.82,NNE,15,0.0,4.0,41,0.00,,---,0.00,VWS V14.01,2013-03-24 22:23:00,
2013-03-24 18:24:00,42.1,19.5,29.82,NNE,15,0.0,4.0,40,0.00,,---,0.00,VWS V14.01,2013-03-24 22:24:00,
2013-03-24 18:25:00,42.1,19.5,29.82,NNE,15,0.0,4.0,40,0.00,,---,0.00,VWS V14.01,2013-03-24 22:25:00,
2013-03-24 18:26:00,42.1,20.1,29.82,NNE,15,1.0,4.0,41,0.00,,---,0.00,VWS V14.01,2013-03-24 22:26:00,
2013-03-24 18:27:00,41.9,19.4,29.82,NNE,15,0.0,4.0,40,0.00,,---,0.00,VWS V14.01,2013-03-24 22:27:00,
2013-03-24 18:28:00,41.9,19.4,29.82,NNE,15,3.0,4.0,40,0.00,,---,0.00,VWS V14.01,2013-03-24 22:28:00,
2013-03-24 18:29:00,41.9,19.4,29.82,NNE,15,2.0,4.0,40,0.00,,---,0.00,VWS V14.01,2013-03-24 22:29:00,
2013-03-24 18:30:00,41.9,19.4,29.82,NNE,15,1.0,4.0,40,0.00,,---,0.00,VWS V14.01,2013-03-24 22:30:00,
2013-03-24 18:31:00,41.9,19.4,29.82,NNE,15,0.0,1.0,40,0.00,,---,0.00,VWS V14.01,2013-03-24 22:31:00,
2013-03-24 18:32:00,41.9,19.4,29.82,NNE,15,0.0,1.0,40,0.00,,---,0.00,VWS V14.01,2013-03-24 22:32:00,
2013-03-24 18:33:00,41.9,19.4,29.82,NNE,15,2.0,2.0,40,0.00,,---,0.00,VWS V14.01,2013-03-24 22:33:00,
2013-03-24 18:34:00,41.9,19.4,29.82,NNE,15,3.0,4.0,40,0.00,,---,0.00,VWS V14.01,2013-03-24 22:34:00,
2013-03-24 18:35:00,42.1,19.0,29.82,NNE,15,0.0,4.0,39,0.00,,---,0.00,VWS V14.01,2013-03-24 22:35:00,
2013-03-24 18:36:00,42.1,19.5,29.82,NNE,15,1.0,4.0,40,0.00,,---,0.00,VWS V14.01,2013-03-24 22:36:00,
2013-03-24 18:37:00,42.1,19.5,29.82,NNE,15,0.0,4.0,40,0.00,,---,0.00,VWS V14.01,2013-03-24 22:37:00,
2013-03-24 18:38:00,42.1,19.5,29.82,NNE,15,0.0,4.0,40,0.00,,---,0.00,VWS V14.01,2013-03-24 22:38:00,
2013-03-24 18:39:00,41.9,19.4,29.82,NNE,15,2.0,4.0,40,0.00,,---,0.00,VWS V14.01,2013-03-24 22:39:00,
2013-03-24 18:40:00,41.9,19.9,29.82,NNE,15,0.0,4.0,41,0.00,,---,0.00,VWS V14.01,2013-03-24 22:40:00,
2013-03-24 18:41:00,41.9,19.9,29.82,NNE,15,0.0,4.0,41,0.00,,---,0.00,VWS V14.01,2013-03-24 22:41:00,
2013-03-24 18:42:00,41.9,19.9,29.82,NNE,15,3.0,4.0,41,0.00,,---,0.00,VWS V14.01,2013-03-24 22:42:00,
2013-03-24 18:43:00,41.9,19.4,29.82,NNE,15,4.0,4.0,40,0.00,,---,0.00,VWS V14.01,2013-03-24 22:43:00,
2013-03-24 18:44:00,41.9,19.4,29.82,NNE,15,1.0,4.0,40,0.00,,---,0.00,VWS V14.01,2013-03-24 22:44:00,
2013-03-24 18:45:00,41.9,19.4,29.82,NNE,15,0.0,4.0,40,0.00,,---,0.00,VWS V14.01,2013-03-24 22:45:00,
2013-03-24 18:46:00,41.9,19.4,29.82,NNE,15,0.0,4.0,40,0.00,,---,0.00,VWS V14.01,2013-03-24 22:46:00,
2013-03-24 18:47:00,41.9,19.9,29.82,NNE,15,2.0,5.0,41,0.00,,---,0.00,VWS V14.01,2013-03-24 22:47:00,
2013-03-24 18:48:00,41.9,19.4,29.82,NNE,15,0.0,5.0,40,0.00,,---,0.00,VWS V14.01,2013-03-24 22:48:00,
2013-03-24 18:49:00,41.9,19.4,29.82,NNE,15,0.0,5.0,40,0.00,,---,0.00,VWS V14.01,2013-03-24 22:49:00,
2013-03-24 18:50:00,41.9,19.9,29.82,NNE,15,0.0,5.0,41,0.00,,---,0.00,VWS V14.01,2013-03-24 22:50:00,
2013-03-24 18:51:00,41.9,19.9,29.82,NNE,15,0.0,5.0,41,0.00,,---,0.00,VWS V14.01,2013-03-24 22:51:00,
2013-03-24 18:53:00,41.8,19.8,29.82,NNE,15,0.0,5.0,41,0.00,,---,0.00,VWS V14.01,2013-03-24 22:53:00,
2013-03-24 18:54:00,41.8,20.4,29.82,NNE,15,0.0,5.0,42,0.00,,---,0.00,VWS V14.01,2013-03-24 22:54:00,
2013-03-24 18:55:00,41.6,19.7,29.82,NNE,15,2.0,5.0,41,0.00,,---,0.00,VWS V14.01,2013-03-24 22:55:00,
2013-03-24 18:56:00,41.6,19.7,29.82,NNE,15,0.0,5.0,41,0.00,,---,0.00,VWS V14.01,2013-03-24 22:56:00,
2013-03-24 18:57:00,41.6,19.7,29.82,NNE,15,0.0,5.0,41,0.00,,---,0.00,VWS V14.01,2013-03-24 22:57:00,
2013-03-24 18:58:00,41.6,19.7,29.82,NNE,15,0.0,5.0,41,0.00,,---,0.00,VWS V14.01,2013-03-24 22:58:00,
2013-03-24 18:59:00,41.6,19.7,29.82,NNE,15,2.0,5.0,41,0.00,,---,0.00,VWS V14.01,2013-03-24 22:59:00,
2013-03-24 19:00:00,41.6,19.7,29.82,NNE,15,2.0,5.0,41,0.00,,---,0.00,VWS V14.01,2013-03-24 23:00:00,
2013-03-24 19:02:00,41.6,19.7,29.82,NNE,15,1.0,3.0,41,0.00,,---,0.00,VWS V14.01,2013-03-24 23:02:00,
2013-03-24 19:03:00,41.6,19.7,29.82,NNE,15,0.0,3.0,41,0.00,,---,0.00,VWS V14.01,2013-03-24 23:03:00,
2013-03-24 19:06:00,41.6,19.7,29.82,NNE,15,0.0,3.0,41,0.00,,---,0.00,VWS V14.01,2013-03-24 23:06:00,
2013-03-24 19:07:00,41.6,19.7,29.82,NNE,15,0.0,3.0,41,0.00,,---,0.00,VWS V14.01,2013-03-24 23:07:00,
2013-03-24 19:08:00,41.6,19.7,29.82,NNE,15,0.0,3.0,41,0.00,,---,0.00,VWS V14.01,2013-03-24 23:08:00,
2013-03-24 19:09:00,41.6,20.2,29.82,NNE,15,0.0,3.0,42,0.00,,---,0.00,VWS V14.01,2013-03-24 23:09:00,
2013-03-24 19:10:00,41.6,20.2,29.82,NNE,15,0.0,3.0,42,0.00,,---,0.00,VWS V14.01,2013-03-24 23:10:00,
2013-03-24 19:11:00,41.5,20.1,29.82,NNE,15,0.0,3.0,42,0.00,,---,0.00,VWS V14.01,2013-03-24 23:11:00,
2013-03-24 19:12:00,41.5,20.7,29.82,NNE,15,0.0,3.0,43,0.00,,---,0.00,VWS V14.01,2013-03-24 23:12:00,
2013-03-24 19:13:00,41.5,20.7,29.82,NNE,15,0.0,3.0,43,0.00,,---,0.00,VWS V14.01,2013-03-24 23:13:00,
2013-03-24 19:14:00,41.5,20.7,29.82,NNE,15,0.0,3.0,43,0.00,,---,0.00,VWS V14.01,2013-03-24 23:14:00,
2013-03-24 19:15:00,41.3,20.5,29.82,NNE,15,0.0,3.0,43,0.00,,---,0.00,VWS V14.01,2013-03-24 23:15:00,
2013-03-24 19:16:00,41.3,20.5,29.82,NNE,15,0.0,3.0,43,0.00,,---,0.00,VWS V14.01,2013-03-24 23:16:00,
2013-03-24 19:17:00,41.2,20.4,29.82,NNE,15,0.0,3.0,43,0.00,,---,0.00,VWS V14.01,2013-03-24 23:17:00,
2013-03-24 19:19:00,41.1,20.9,29.82,NNE,15,0.0,3.0,44,0.00,,---,0.00,VWS V14.01,2013-03-24 23:19:00,
2013-03-24 19:20:00,41.1,20.9,29.82,NNE,15,0.0,3.0,44,0.00,,---,0.00,VWS V14.01,2013-03-24 23:20:00,
2013-03-24 19:21:00,41.1,21.4,29.82,NNE,15,0.0,3.0,45,0.00,,---,0.00,VWS V14.01,2013-03-24 23:21:00,
2013-03-24 19:22:00,40.9,21.2,29.82,NNE,15,0.0,3.0,45,0.00,,---,0.00,VWS V14.01,2013-03-24 23:22:00,
2013-03-24 19:24:00,40.8,21.1,29.82,NNE,15,0.0,3.0,45,0.00,,---,0.00,VWS V14.01,2013-03-24 23:24:00,
2013-03-24 19:25:00,40.8,21.1,29.82,NNE,15,0.0,3.0,45,0.00,,---,0.00,VWS V14.01,2013-03-24 23:25:00,
2013-03-24 19:26:00,40.8,21.1,29.82,NNE,15,0.0,3.0,45,0.00,,---,0.00,VWS V14.01,2013-03-24 23:26:00,
2013-03-24 19:27:00,40.8,21.1,29.82,NNE,15,0.0,3.0,45,0.00,,---,0.00,VWS V14.01,2013-03-24 23:27:00,
2013-03-24 19:28:00,40.6,20.9,29.82,NNE,15,0.0,3.0,45,0.00,,---,0.00,VWS V14.01,2013-03-24 23:28:00,
2013-03-24 19:29:00,40.6,20.9,29.82,NNE,15,0.0,3.0,45,0.00,,---,0.00,VWS V14.01,2013-03-24 23:29:00,
2013-03-24 19:30:00,40.6,20.9,29.82,NNE,15,0.0,3.0,45,0.00,,---,0.00,VWS V14.01,2013-03-24 23:30:00,
2013-03-24 19:31:00,40.6,20.9,29.82,NNE,15,0.0,0.0,45,0.00,,---,0.00,VWS V14.01,2013-03-24 23:31:00,
2013-03-24 19:32:00,40.5,21.4,29.82,NNE,15,0.0,0.0,46,0.00,,---,0.00,VWS V14.01,2013-03-24 23:32:00,
2013-03-24 19:33:00,40.5,21.9,29.82,NNE,15,0.0,0.0,47,0.00,,---,0.00,VWS V14.01,2013-03-24 23:33:00,
2013-03-24 19:34:00,40.5,21.4,29.82,NNE,15,0.0,0.0,46,0.00,,---,0.00,VWS V14.01,2013-03-24 23:34:00,
2013-03-24 19:35:00,40.5,21.4,29.82,NNE,15,0.0,0.0,46,0.00,,---,0.00,VWS V14.01,2013-03-24 23:35:00,
2013-03-24 19:36:00,40.3,21.7,29.82,NNE,15,0.0,0.0,47,0.00,,---,0.00,VWS V14.01,2013-03-24 23:36:00,
2013-03-24 19:37:00,40.3,21.7,29.82,NNE,15,0.0,0.0,47,0.00,,---,0.00,VWS V14.01,2013-03-24 23:37:00,
2013-03-24 19:38:00,40.3,22.2,29.82,NNE,15,0.0,0.0,48,0.00,,---,0.00,VWS V14.01,2013-03-24 23:38:00,
2013-03-24 19:39:00,40.2,22.1,29.82,NNE,15,0.0,0.0,48,0.00,,---,0.00,VWS V14.01,2013-03-24 23:39:00,
2013-03-24 19:40:00,40.2,22.1,29.82,NNE,15,0.0,0.0,48,0.00,,---,0.00,VWS V14.01,2013-03-24 23:40:00,
2013-03-24 19:41:00,40.2,22.1,29.82,NNE,15,0.0,0.0,48,0.00,,---,0.00,VWS V14.01,2013-03-24 23:41:00,
2013-03-24 19:42:00,40.1,22.0,29.82,NNE,15,0.0,0.0,48,0.00,,---,0.00,VWS V14.01,2013-03-24 23:42:00,
2013-03-24 19:44:00,39.9,21.8,29.82,NNE,15,0.0,0.0,48,0.00,,---,0.00,VWS V14.01,2013-03-24 23:44:00,
2013-03-24 19:45:00,39.9,21.8,29.82,NNE,15,0.0,0.0,48,0.00,,---,0.00,VWS V14.01,2013-03-24 23:45:00,
2013-03-24 19:46:00,39.8,21.7,29.82,NNE,15,0.0,0.0,48,0.00,,---,0.00,VWS V14.01,2013-03-24 23:46:00,
2013-03-24 19:47:00,39.8,22.2,29.82,NNE,15,0.0,0.0,49,0.00,,---,0.00,VWS V14.01,2013-03-24 23:47:00,
2013-03-24 19:48:00,39.8,22.2,29.82,NNE,15,0.0,0.0,49,0.00,,---,0.00,VWS V14.01,2013-03-24 23:48:00,
2013-03-24 19:49:00,39.8,22.2,29.82,NNE,15,0.0,0.0,49,0.00,,---,0.00,VWS V14.01,2013-03-24 23:49:00,
2013-03-24 19:50:00,39.8,22.2,29.82,NNE,15,0.0,0.0,49,0.00,,---,0.00,VWS V14.01,2013-03-24 23:50:00,
2013-03-24 19:51:00,39.8,22.2,29.82,NNE,15,0.0,0.0,49,0.00,,---,0.00,VWS V14.01,2013-03-24 23:51:00,
2013-03-24 19:52:00,39.8,22.2,29.82,NNE,15,0.0,0.0,49,0.00,,---,0.00,VWS V14.01,2013-03-24 23:52:00,
2013-03-24 19:53:00,39.8,22.2,29.82,NNE,15,0.0,0.0,49,0.00,,---,0.00,VWS V14.01,2013-03-24 23:53:00,
2013-03-24 19:54:00,39.8,22.2,29.82,NNE,15,0.0,0.0,49,0.00,,---,0.00,VWS V14.01,2013-03-24 23:54:00,
2013-03-24 19:55:00,39.6,22.0,29.82,NNE,15,0.0,0.0,49,0.00,,---,0.00,VWS V14.01,2013-03-24 23:55:00,
2013-03-24 19:56:00,39.6,22.0,29.82,NNE,15,0.0,0.0,49,0.00,,---,0.00,VWS V14.01,2013-03-24 23:56:00,
2013-03-24 19:57:00,39.6,22.0,29.82,NNE,15,0.0,0.0,49,0.00,,---,0.00,VWS V14.01,2013-03-24 23:57:00,
2013-03-24 19:59:00,39.6,22.0,29.82,NNE,15,0.0,0.0,49,0.00,,---,0.00,VWS V14.01,2013-03-24 23:59:00,
2013-03-24 20:00:00,39.6,22.0,29.83,NNE,15,0.0,0.0,49,0.00,,---,0.00,VWS V14.01,2013-03-25 00:00:00,
2013-03-24 20:01:00,41.8,19.8,29.82,NNE,15,0.0,5.0,41,0.00,,---,0.00,VWS V14.01,2013-03-25 00:01:00,
2013-03-24 20:03:00,39.6,22.5,29.83,NNE,15,0.0,0.0,50,0.00,,---,0.00,VWS V14.01,2013-03-25 00:03:00,
2013-03-24 20:04:00,39.6,22.5,29.83,NNE,15,0.0,0.0,50,0.00,,---,0.00,VWS V14.01,2013-03-25 00:04:00,
2013-03-24 20:06:00,39.6,21.5,29.83,NNE,15,0.0,0.0,48,0.00,,---,0.00,VWS V14.01,2013-03-25 00:06:00,
2013-03-24 20:08:00,39.6,21.0,29.83,NNE,15,0.0,0.0,47,0.00,,---,0.00,VWS V14.01,2013-03-25 00:08:00,
2013-03-24 20:09:00,39.6,21.5,29.83,NNE,15,0.0,0.0,48,0.00,,---,0.00,VWS V14.01,2013-03-25 00:09:00,
2013-03-24 20:10:00,41.6,19.7,29.82,NNE,15,1.0,3.0,41,0.00,,---,0.00,VWS V14.01,2013-03-25 00:10:00,
2013-03-24 20:11:00,39.8,21.7,29.83,NNE,15,0.0,0.0,48,0.00,,---,0.00,VWS V14.01,2013-03-25 00:11:00,
2013-03-24 20:12:00,39.8,21.7,29.83,NNE,15,0.0,0.0,48,0.00,,---,0.00,VWS V14.01,2013-03-25 00:12:00,
2013-03-24 20:13:00,39.8,21.7,29.83,NNE,15,0.0,0.0,48,0.00,,---,0.00,VWS V14.01,2013-03-25 00:13:00,
2013-03-24 20:14:00,39.8,21.7,29.83,NNE,15,0.0,0.0,48,0.00,,---,0.00,VWS V14.01,2013-03-25 00:14:00,
2013-03-24 20:15:00,39.8,22.2,29.83,NNE,15,0.0,0.0,49,0.00,,---,0.00,VWS V14.01,2013-03-25 00:15:00,
2013-03-24 20:16:00,39.8,22.2,29.83,NNE,15,0.0,0.0,49,0.00,,---,0.00,VWS V14.01,2013-03-25 00:16:00,
2013-03-24 20:17:00,39.8,22.2,29.83,NNE,15,0.0,0.0,49,0.00,,---,0.00,VWS V14.01,2013-03-25 00:17:00,
2013-03-24 20:18:00,39.6,21.5,29.83,NNE,15,0.0,0.0,48,0.00,,---,0.00,VWS V14.01,2013-03-25 00:18:00,
2013-03-24 20:19:00,39.6,21.5,29.83,NNE,15,0.0,0.0,48,0.00,,---,0.00,VWS V14.01,2013-03-25 00:19:00,
2013-03-24 20:20:00,39.6,22.0,29.83,NNE,15,0.0,0.0,49,0.00,,---,0.00,VWS V14.01,2013-03-25 00:20:00,
2013-03-24 20:21:00,39.6,21.5,29.83,NNE,15,0.0,0.0,48,0.00,,---,0.00,VWS V14.01,2013-03-25 00:21:00,
2013-03-24 20:22:00,39.6,21.5,29.83,NNE,15,0.0,0.0,48,0.00,,---,0.00,VWS V14.01,2013-03-25 00:22:00,
2013-03-24 20:23:00,39.6,21.5,29.83,NNE,15,0.0,0.0,48,0.00,,---,0.00,VWS V14.01,2013-03-25 00:23:00,
2013-03-24 20:24:00,39.6,21.5,29.83,NNE,15,0.0,0.0,48,0.00,,---,0.00,VWS V14.01,2013-03-25 00:24:00,
2013-03-24 20:25:00,39.6,21.5,29.83,NNE,15,0.0,0.0,48,0.00,,---,0.00,VWS V14.01,2013-03-25 00:25:00,
2013-03-24 20:26:00,39.6,22.0,29.83,NNE,15,0.0,0.0,49,0.00,,---,0.00,VWS V14.01,2013-03-25 00:26:00,
2013-03-24 20:27:00,39.6,22.0,29.83,NNE,15,0.0,0.0,49,0.00,,---,0.00,VWS V14.01,2013-03-25 00:27:00,
2013-03-24 20:28:00,39.6,22.0,29.83,NNE,15,0.0,0.0,49,0.00,,---,0.00,VWS V14.01,2013-03-25 00:28:00,
2013-03-24 20:29:00,39.6,22.0,29.82,NNE,15,0.0,0.0,49,0.00,,---,0.00,VWS V14.01,2013-03-25 00:29:00,
2013-03-24 20:30:00,39.5,21.5,29.82,NNE,15,0.0,0.0,48,0.00,,---,0.00,VWS V14.01,2013-03-25 00:30:00,
2013-03-24 20:31:00,39.5,21.5,29.82,NNE,15,0.0,0.0,48,0.00,,---,0.00,VWS V14.01,2013-03-25 00:31:00,
2013-03-24 20:32:00,39.6,21.5,29.82,NNE,15,0.0,0.0,48,0.00,,---,0.00,VWS V14.01,2013-03-25 00:32:00,
2013-03-24 20:33:00,39.5,21.5,29.82,NNE,15,0.0,0.0,48,0.00,,---,0.00,VWS V14.01,2013-03-25 00:33:00,
2013-03-24 20:34:00,39.5,21.5,29.82,NNE,15,0.0,0.0,48,0.00,,---,0.00,VWS V14.01,2013-03-25 00:34:00,
2013-03-24 20:35:00,39.5,21.9,29.82,NNE,15,0.0,0.0,49,0.00,,---,0.00,VWS V14.01,2013-03-25 00:35:00,
2013-03-24 20:36:00,39.5,21.9,29.82,NNE,15,0.0,0.0,49,0.00,,---,0.00,VWS V14.01,2013-03-25 00:36:00,
2013-03-24 20:37:00,39.5,22.4,29.82,NNE,15,0.0,0.0,50,0.00,,---,0.00,VWS V14.01,2013-03-25 00:37:00,
2013-03-24 20:38:00,39.5,22.4,29.82,NNE,15,0.0,0.0,50,0.00,,---,0.00,VWS V14.01,2013-03-25 00:38:00,
2013-03-24 20:39:00,39.5,22.9,29.82,NNE,15,0.0,0.0,51,0.00,,---,0.00,VWS V14.01,2013-03-25 00:39:00,
2013-03-24 20:40:00,39.3,22.7,29.82,NNE,15,0.0,0.0,51,0.00,,---,0.00,VWS V14.01,2013-03-25 00:40:00,
2013-03-24 20:41:00,39.3,22.2,29.82,NNE,15,0.0,0.0,50,0.00,,---,0.00,VWS V14.01,2013-03-25 00:41:00,
2013-03-24 20:42:00,39.2,22.1,29.82,NNE,15,0.0,0.0,50,0.00,,---,0.00,VWS V14.01,2013-03-25 00:42:00,
2013-03-24 20:43:00,39.2,22.1,29.82,NNE,15,0.0,0.0,50,0.00,,---,0.00,VWS V14.01,2013-03-25 00:43:00,
2013-03-24 20:44:00,39.2,22.1,29.83,NNE,15,0.0,0.0,50,0.00,,---,0.00,VWS V14.01,2013-03-25 00:44:00,
2013-03-24 20:45:00,39.1,22.0,29.83,NNE,15,0.0,0.0,50,0.00,,---,0.00,VWS V14.01,2013-03-25 00:45:00,
2013-03-24 20:46:00,39.1,22.0,29.83,NNE,15,0.0,0.0,50,0.00,,---,0.00,VWS V14.01,2013-03-25 00:46:00,
2013-03-24 20:47:00,39.1,22.0,29.83,NNE,15,0.0,0.0,50,0.00,,---,0.00,VWS V14.01,2013-03-25 00:47:00,
2013-03-24 20:48:00,39.1,22.5,29.83,NNE,15,0.0,0.0,51,0.00,,---,0.00,VWS V14.01,2013-03-25 00:48:00,
2013-03-24 20:49:00,39.1,22.5,29.83,NNE,15,0.0,0.0,51,0.00,,---,0.00,VWS V14.01,2013-03-25 00:49:00,
2013-03-24 20:50:00,39.1,23.0,29.83,NNE,15,0.0,0.0,52,0.00,,---,0.00,VWS V14.01,2013-03-25 00:50:00,
2013-03-24 20:51:00,39.1,23.0,29.83,NNE,15,0.0,0.0,52,0.00,,---,0.00,VWS V14.01,2013-03-25 00:51:00,
2013-03-24 20:52:00,39.1,23.0,29.83,NNE,15,0.0,0.0,52,0.00,,---,0.00,VWS V14.01,2013-03-25 00:52:00,
2013-03-24 20:53:00,39.1,23.0,29.83,NNE,15,0.0,0.0,52,0.00,,---,0.00,VWS V14.01,2013-03-25 00:53:00,
2013-03-24 20:54:00,39.1,23.4,29.83,NNE,15,0.0,0.0,53,0.00,,---,0.00,VWS V14.01,2013-03-25 00:54:00,
2013-03-24 20:55:00,38.9,23.7,29.83,NNE,15,0.0,0.0,54,0.00,,---,0.00,VWS V14.01,2013-03-25 00:55:00,
2013-03-24 20:56:00,38.9,23.7,29.83,NNE,15,3.0,3.0,54,0.00,,---,0.00,VWS V14.01,2013-03-25 00:56:00,
2013-03-24 20:57:00,38.8,23.6,29.83,NNE,15,0.0,3.0,54,0.00,,---,0.00,VWS V14.01,2013-03-25 00:57:00,
2013-03-24 20:58:00,38.8,23.6,29.83,NNE,15,0.0,3.0,54,0.00,,---,0.00,VWS V14.01,2013-03-25 00:58:00,
2013-03-24 20:59:00,38.6,24.3,29.83,NNE,15,0.0,3.0,56,0.00,,---,0.00,VWS V14.01,2013-03-25 00:59:00,
2013-03-24 21:00:00,38.6,24.3,29.83,NNE,15,1.0,3.0,56,0.00,,---,0.00,VWS V14.01,2013-03-25 01:00:00,
2013-03-24 21:01:00,38.5,24.6,29.83,NNE,15,0.0,2.0,57,0.00,,---,0.00,VWS V14.01,2013-03-25 01:01:00,
2013-03-24 21:02:00,38.3,24.4,29.83,NNE,15,0.0,2.0,57,0.00,,---,0.00,VWS V14.01,2013-03-25 01:02:00,
2013-03-24 21:03:00,38.3,24.0,29.83,NNE,15,1.0,2.0,56,0.00,,---,0.00,VWS V14.01,2013-03-25 01:03:00,
2013-03-24 21:04:00,38.3,23.6,29.83,NNE,15,1.0,3.0,55,0.00,,---,0.00,VWS V14.01,2013-03-25 01:04:00,
2013-03-24 21:05:00,38.3,23.6,29.83,NNE,15,0.0,3.0,55,0.00,,---,0.00,VWS V14.01,2013-03-25 01:05:00,
2013-03-24 21:06:00,38.3,23.6,29.83,NNE,15,0.0,3.0,55,0.00,,---,0.00,VWS V14.01,2013-03-25 01:06:00,
2013-03-24 21:07:00,38.3,23.6,29.83,NNE,15,0.0,3.0,55,0.00,,---,0.00,VWS V14.01,2013-03-25 01:07:00,
2013-03-24 21:08:00,38.3,23.6,29.83,NNE,15,0.0,3.0,55,0.00,,---,0.00,VWS V14.01,2013-03-25 01:08:00,
2013-03-24 21:09:00,38.3,23.6,29.83,South,169,2.0,4.0,55,0.00,,---,0.00,VWS V14.01,2013-03-25 01:09:00,
2013-03-24 21:10:00,38.5,23.8,29.83,ENE,71,3.0,5.0,55,0.00,,---,0.00,VWS V14.01,2013-03-25 01:10:00,
2013-03-24 21:11:00,38.5,23.8,29.83,ENE,71,0.0,5.0,55,0.00,,---,0.00,VWS V14.01,2013-03-25 01:11:00,
2013-03-24 21:12:00,38.6,23.8,29.83,ENE,72,0.0,5.0,55,0.00,,---,0.00,VWS V14.01,2013-03-25 01:12:00,
2013-03-24 21:13:00,38.6,23.8,29.83,ENE,72,0.0,5.0,55,0.00,,---,0.00,VWS V14.01,2013-03-25 01:13:00,
2013-03-24 21:14:00,38.6,24.3,29.82,ENE,72,0.0,5.0,56,0.00,,---,0.00,VWS V14.01,2013-03-25 01:14:00,
2013-03-24 21:15:00,38.8,24.5,29.82,ENE,72,2.0,5.0,56,0.00,,---,0.00,VWS V14.01,2013-03-25 01:15:00,
2013-03-24 21:16:00,38.8,24.0,29.82,East,87,0.0,5.0,55,0.00,,---,0.00,VWS V14.01,2013-03-25 01:16:00,
2013-03-24 21:17:00,38.8,24.5,29.82,East,87,0.0,5.0,56,0.00,,---,0.00,VWS V14.01,2013-03-25 01:17:00,
2013-03-24 21:18:00,38.8,24.0,29.82,East,87,1.0,5.0,55,0.00,,---,0.00,VWS V14.01,2013-03-25 01:18:00,
2013-03-24 21:19:00,38.8,24.0,29.82,East,87,0.0,5.0,55,0.00,,---,0.00,VWS V14.01,2013-03-25 01:19:00,
2013-03-24 21:20:00,38.8,24.0,29.82,East,87,1.0,5.0,55,0.00,,---,0.00,VWS V14.01,2013-03-25 01:20:00,
2013-03-24 21:21:00,38.9,24.1,29.82,East,87,0.0,5.0,55,0.00,,---,0.00,VWS V14.01,2013-03-25 01:21:00,
2013-03-24 21:22:00,38.9,24.1,29.82,East,87,0.0,5.0,55,0.00,,---,0.00,VWS V14.01,2013-03-25 01:22:00,
2013-03-24 21:23:00,38.9,24.6,29.82,East,87,1.0,5.0,56,0.00,,---,0.00,VWS V14.01,2013-03-25 01:23:00,
2013-03-24 21:24:00,38.9,24.6,29.82,East,87,0.0,5.0,56,0.00,,---,0.00,VWS V14.01,2013-03-25 01:24:00,
2013-03-24 21:26:00,38.9,24.6,29.82,East,87,0.0,5.0,56,0.00,,---,0.00,VWS V14.01,2013-03-25 01:26:00,
2013-03-24 21:27:00,38.9,24.6,29.82,East,87,0.0,5.0,56,0.00,,---,0.00,VWS V14.01,2013-03-25 01:27:00,
2013-03-24 21:28:00,38.8,24.5,29.82,East,87,0.0,5.0,56,0.00,,---,0.00,VWS V14.01,2013-03-25 01:28:00,
2013-03-24 21:29:00,38.8,24.5,29.81,East,87,0.0,5.0,56,0.00,,---,0.00,VWS V14.01,2013-03-25 01:29:00,
2013-03-24 21:30:00,38.8,24.5,29.81,East,87,0.0,5.0,56,0.00,,---,0.00,VWS V14.01,2013-03-25 01:30:00,
2013-03-24 21:31:00,38.8,24.5,29.81,East,87,0.0,0.0,56,0.00,,---,0.00,VWS V14.01,2013-03-25 01:31:00,
2013-03-24 21:32:00,38.8,24.9,29.81,East,87,0.0,0.0,57,0.00,,---,0.00,VWS V14.01,2013-03-25 01:32:00,
2013-03-24 21:34:00,38.8,24.9,29.81,East,87,0.0,0.0,57,0.00,,---,0.00,VWS V14.01,2013-03-25 01:34:00,
2013-03-24 21:35:00,38.8,24.9,29.81,East,87,0.0,2.0,57,0.00,,---,0.00,VWS V14.01,2013-03-25 01:35:00,
2013-03-24 21:36:00,38.6,24.7,29.81,East,87,1.0,2.0,57,0.00,,---,0.00,VWS V14.01,2013-03-25 01:36:00,
2013-03-24 21:37:00,38.6,24.7,29.81,East,87,0.0,2.0,57,0.00,,---,0.00,VWS V14.01,2013-03-25 01:37:00,
2013-03-24 21:38:00,38.6,24.7,29.81,East,87,0.0,2.0,57,0.00,,---,0.00,VWS V14.01,2013-03-25 01:38:00,
2013-03-24 21:40:00,38.5,25.0,29.81,East,87,1.0,3.0,58,0.00,,---,0.00,VWS V14.01,2013-03-25 01:40:00,
2013-03-24 21:41:00,38.5,24.6,29.81,East,87,1.0,3.0,57,0.00,,---,0.00,VWS V14.01,2013-03-25 01:41:00,
2013-03-24 21:45:00,38.5,25.0,29.80,East,87,0.0,3.0,58,0.00,,---,0.00,VWS V14.01,2013-03-25 01:45:00,
2013-03-24 21:46:00,38.3,24.8,29.80,East,87,2.0,3.0,58,0.00,,---,0.00,VWS V14.01,2013-03-25 01:46:00,
2013-03-24 21:47:00,38.3,24.8,29.80,East,87,0.0,3.0,58,0.00,,---,0.00,VWS V14.01,2013-03-25 01:47:00,
2013-03-24 21:51:00,38.3,24.8,29.80,East,87,0.0,3.0,58,0.00,,---,0.00,VWS V14.01,2013-03-25 01:51:00,
2013-03-24 21:52:00,38.3,24.8,29.80,East,87,0.0,3.0,58,0.00,,---,0.00,VWS V14.01,2013-03-25 01:52:00,
2013-03-24 21:53:00,38.2,24.7,29.80,East,87,0.0,3.0,58,0.00,,---,0.00,VWS V14.01,2013-03-25 01:53:00,
2013-03-24 21:55:00,38.2,24.7,29.80,East,87,0.0,3.0,58,0.00,,---,0.00,VWS V14.01,2013-03-25 01:55:00,
2013-03-24 21:56:00,38.2,24.7,29.80,East,87,0.0,3.0,58,0.00,,---,0.00,VWS V14.01,2013-03-25 01:56:00,
2013-03-24 21:57:00,38.2,25.1,29.80,East,87,0.0,3.0,59,0.00,,---,0.00,VWS V14.01,2013-03-25 01:57:00,
2013-03-24 21:59:00,38.0,25.0,29.79,East,87,2.0,3.0,59,0.00,,---,0.00,VWS V14.01,2013-03-25 01:59:00,
2013-03-24 22:00:00,38.0,25.0,29.79,East,87,2.0,3.0,59,0.00,,---,0.00,VWS V14.01,2013-03-25 02:00:00,
2013-03-24 22:01:00,38.0,25.0,29.79,East,87,0.0,3.0,59,0.00,,---,0.00,VWS V14.01,2013-03-25 02:01:00,
2013-03-24 22:02:00,38.0,25.0,29.79,East,87,0.0,3.0,59,0.00,,---,0.00,VWS V14.01,2013-03-25 02:02:00,
2013-03-24 22:03:00,38.0,25.0,29.79,East,87,1.0,3.0,59,0.00,,---,0.00,VWS V14.01,2013-03-25 02:03:00,
2013-03-24 22:04:00,38.0,25.0,29.79,East,87,3.0,3.0,59,0.00,,---,0.00,VWS V14.01,2013-03-25 02:04:00,
2013-03-24 22:06:00,38.0,25.0,29.79,East,87,4.0,4.0,59,0.00,,---,0.00,VWS V14.01,2013-03-25 02:06:00,
2013-03-24 22:08:00,37.9,24.9,29.79,East,87,0.0,4.0,59,0.00,,---,0.00,VWS V14.01,2013-03-25 02:08:00,
2013-03-24 22:09:00,37.9,24.9,29.79,East,86,0.0,4.0,59,0.00,,---,0.00,VWS V14.01,2013-03-25 02:09:00,
2013-03-24 22:10:00,37.9,24.9,29.79,East,87,0.0,4.0,59,0.00,,---,0.00,VWS V14.01,2013-03-25 02:10:00,
2013-03-24 22:11:00,37.9,25.3,29.79,East,87,1.0,4.0,60,0.00,,---,0.00,VWS V14.01,2013-03-25 02:11:00,
2013-03-24 22:12:00,37.9,25.3,29.79,East,87,0.0,4.0,60,0.00,,---,0.00,VWS V14.01,2013-03-25 02:12:00,
2013-03-24 22:13:00,37.9,24.9,29.79,East,87,1.0,4.0,59,0.00,,---,0.00,VWS V14.01,2013-03-25 02:13:00,
2013-03-24 22:14:00,37.8,24.8,29.79,East,87,1.0,4.0,59,0.00,,---,0.00,VWS V14.01,2013-03-25 02:14:00,
2013-03-24 22:15:00,37.8,24.8,29.78,East,87,0.0,4.0,59,0.00,,---,0.00,VWS V14.01,2013-03-25 02:15:00,
2013-03-24 22:16:00,37.8,24.8,29.78,East,87,3.0,4.0,59,0.00,,---,0.00,VWS V14.01,2013-03-25 02:16:00,
2013-03-24 22:17:00,37.8,24.8,29.78,East,86,2.0,4.0,59,0.00,,---,0.00,VWS V14.01,2013-03-25 02:17:00,
2013-03-24 22:18:00,37.8,24.8,29.78,East,87,2.0,4.0,59,0.00,,---,0.00,VWS V14.01,2013-03-25 02:18:00,
2013-03-24 22:19:00,37.8,24.8,29.78,East,87,1.0,4.0,59,0.00,,---,0.00,VWS V14.01,2013-03-25 02:19:00,
2013-03-24 22:20:00,37.8,24.8,29.78,East,87,0.0,4.0,59,0.00,,---,0.00,VWS V14.01,2013-03-25 02:20:00,
2013-03-24 22:21:00,37.8,25.2,29.78,East,87,0.0,4.0,60,0.00,,---,0.00,VWS V14.01,2013-03-25 02:21:00,
2013-03-24 22:22:00,37.6,25.0,29.78,East,87,0.0,4.0,60,0.00,,---,0.00,VWS V14.01,2013-03-25 02:22:00,
2013-03-24 22:24:00,37.6,24.6,29.78,East,87,0.0,4.0,59,0.00,,---,0.00,VWS V14.01,2013-03-25 02:24:00,
2013-03-24 22:25:00,37.6,24.6,29.78,East,87,0.0,4.0,59,0.00,,---,0.00,VWS V14.01,2013-03-25 02:25:00,
2013-03-24 22:26:00,37.6,24.6,29.78,East,87,0.0,4.0,59,0.00,,---,0.00,VWS V14.01,2013-03-25 02:26:00,
2013-03-24 22:27:00,37.6,24.6,29.78,East,87,0.0,4.0,59,0.00,,---,0.00,VWS V14.01,2013-03-25 02:27:00,
2013-03-24 22:28:00,37.6,24.6,29.78,East,87,0.0,4.0,59,0.00,,---,0.00,VWS V14.01,2013-03-25 02:28:00,
2013-03-24 22:29:00,37.6,24.6,29.78,East,87,1.0,4.0,59,0.00,,---,0.00,VWS V14.01,2013-03-25 02:29:00,
2013-03-24 22:30:00,37.6,24.6,29.78,East,87,0.0,4.0,59,0.00,,---,0.00,VWS V14.01,2013-03-25 02:30:00,
2013-03-24 22:31:00,37.6,24.6,29.78,East,86,1.0,3.0,59,0.00,,---,0.00,VWS V14.01,2013-03-25 02:31:00,
2013-03-24 22:32:00,37.6,24.6,29.78,East,86,0.0,3.0,59,0.00,,---,0.00,VWS V14.01,2013-03-25 02:32:00,
2013-03-24 22:33:00,37.5,24.5,29.78,East,86,2.0,4.0,59,0.00,,---,0.00,VWS V14.01,2013-03-25 02:33:00,
2013-03-24 22:34:00,37.5,24.5,29.78,East,87,0.0,4.0,59,0.00,,---,0.00,VWS V14.01,2013-03-25 02:34:00,
2013-03-24 22:35:00,37.5,24.5,29.78,East,86,0.0,4.0,59,0.00,,---,0.00,VWS V14.01,2013-03-25 02:35:00,
2013-03-24 22:36:00,37.5,24.5,29.78,East,86,0.0,4.0,59,0.00,,---,0.00,VWS V14.01,2013-03-25 02:36:00,
2013-03-24 22:37:00,37.5,24.5,29.78,East,87,1.0,4.0,59,0.00,,---,0.00,VWS V14.01,2013-03-25 02:37:00,
2013-03-24 22:38:00,37.5,24.5,29.78,East,86,1.0,4.0,59,0.00,,---,0.00,VWS V14.01,2013-03-25 02:38:00,
2013-03-24 22:39:00,37.5,24.5,29.78,East,87,1.0,4.0,59,0.00,,---,0.00,VWS V14.01,2013-03-25 02:39:00,
2013-03-24 22:40:00,37.5,24.5,29.78,East,87,0.0,4.0,59,0.00,,---,0.00,VWS V14.01,2013-03-25 02:40:00,
2013-03-24 22:41:00,37.5,24.5,29.78,East,86,0.0,4.0,59,0.00,,---,0.00,VWS V14.01,2013-03-25 02:41:00,
2013-03-24 22:42:00,37.5,24.5,29.78,East,86,0.0,4.0,59,0.00,,---,0.00,VWS V14.01,2013-03-25 02:42:00,
2013-03-24 22:43:00,37.5,24.5,29.78,East,86,0.0,4.0,59,0.00,,---,0.00,VWS V14.01,2013-03-25 02:43:00,
2013-03-24 22:44:00,37.5,24.5,29.77,East,86,1.0,4.0,59,0.00,,---,0.00,VWS V14.01,2013-03-25 02:44:00,
2013-03-24 22:45:00,37.5,24.5,29.77,East,86,0.0,4.0,59,0.00,,---,0.00,VWS V14.01,2013-03-25 02:45:00,
2013-03-24 22:46:00,37.5,24.5,29.77,East,86,0.0,4.0,59,0.00,,---,0.00,VWS V14.01,2013-03-25 02:46:00,
2013-03-24 22:47:00,38.6,24.7,29.81,East,87,1.0,2.0,57,0.00,,---,0.00,VWS V14.01,2013-03-25 02:47:00,
2013-03-24 22:48:00,37.5,24.5,29.77,East,86,0.0,4.0,59,0.00,,---,0.00,VWS V14.01,2013-03-25 02:48:00,
2013-03-24 22:49:00,37.5,24.5,29.77,East,86,0.0,4.0,59,0.00,,---,0.00,VWS V14.01,2013-03-25 02:49:00,
2013-03-24 22:50:00,37.5,24.5,29.77,East,86,0.0,4.0,59,0.00,,---,0.00,VWS V14.01,2013-03-25 02:50:00,
2013-03-24 22:51:00,37.5,24.5,29.77,East,87,0.0,4.0,59,0.00,,---,0.00,VWS V14.01,2013-03-25 02:51:00,
2013-03-24 22:52:00,38.5,25.0,29.80,East,87,0.0,3.0,58,0.00,,---,0.00,VWS V14.01,2013-03-25 02:52:00,
2013-03-24 22:53:00,37.5,24.9,29.77,East,86,0.0,4.0,60,0.00,,---,0.00,VWS V14.01,2013-03-25 02:53:00,
2013-03-24 22:54:00,37.3,24.7,29.77,East,86,0.0,4.0,60,0.00,,---,0.00,VWS V14.01,2013-03-25 02:54:00,
2013-03-24 22:55:00,37.3,24.7,29.77,East,86,1.0,4.0,60,0.00,,---,0.00,VWS V14.01,2013-03-25 02:55:00,
2013-03-24 22:56:00,37.3,24.3,29.77,East,86,0.0,4.0,59,0.00,,---,0.00,VWS V14.01,2013-03-25 02:56:00,
2013-03-24 22:57:00,38.3,24.8,29.80,East,87,0.0,3.0,58,0.00,,---,0.00,VWS V14.01,2013-03-25 02:57:00,
2013-03-24 22:58:00,37.3,24.7,29.77,East,86,0.0,4.0,60,0.00,,---,0.00,VWS V14.01,2013-03-25 02:58:00,
2013-03-24 22:59:00,37.3,24.3,29.77,East,87,0.0,4.0,59,0.00,,---,0.00,VWS V14.01,2013-03-25 02:59:00,
2013-03-24 23:00:00,37.3,24.3,29.77,East,87,0.0,4.0,59,0.00,,---,0.00,VWS V14.01,2013-03-25 03:00:00,
2013-03-24 23:01:00,37.3,24.7,29.77,East,86,0.0,0.0,60,0.00,,---,0.00,VWS V14.01,2013-03-25 03:01:00,
2013-03-24 23:02:00,37.3,24.7,29.77,East,87,3.0,3.0,60,0.00,,---,0.00,VWS V14.01,2013-03-25 03:02:00,
2013-03-24 23:03:00,38.2,24.7,29.80,East,87,0.0,3.0,58,0.00,,---,0.00,VWS V14.01,2013-03-25 03:03:00,
2013-03-24 23:04:00,37.2,24.6,29.77,East,86,0.0,3.0,60,0.00,,---,0.00,VWS V14.01,2013-03-25 03:04:00,
2013-03-24 23:06:00,37.2,24.6,29.77,East,87,0.0,3.0,60,0.00,,---,0.00,VWS V14.01,2013-03-25 03:06:00,
2013-03-24 23:08:00,37.2,24.2,29.77,East,87,0.0,3.0,59,0.00,,---,0.00,VWS V14.01,2013-03-25 03:08:00,
2013-03-24 23:09:00,37.2,24.2,29.77,East,87,0.0,3.0,59,0.00,,---,0.00,VWS V14.01,2013-03-25 03:09:00,
2013-03-24 23:10:00,37.2,24.2,29.77,East,86,0.0,3.0,59,0.00,,---,0.00,VWS V14.01,2013-03-25 03:10:00,
2013-03-24 23:11:00,37.2,24.2,29.77,East,86,0.0,3.0,59,0.00,,---,0.00,VWS V14.01,2013-03-25 03:11:00,
2013-03-24 23:12:00,37.2,24.2,29.77,East,87,0.0,3.0,59,0.00,,---,0.00,VWS V14.01,2013-03-25 03:12:00,
2013-03-24 23:13:00,37.2,24.2,29.77,East,86,0.0,3.0,59,0.00,,---,0.00,VWS V14.01,2013-03-25 03:13:00,
2013-03-24 23:14:00,37.2,24.6,29.77,East,86,0.0,3.0,60,0.00,,---,0.00,VWS V14.01,2013-03-25 03:14:00,
2013-03-24 23:15:00,37.2,24.6,29.77,East,86,0.0,3.0,60,0.00,,---,0.00,VWS V14.01,2013-03-25 03:15:00,
2013-03-24 23:16:00,37.2,24.6,29.77,East,86,0.0,3.0,60,0.00,,---,0.00,VWS V14.01,2013-03-25 03:16:00,
2013-03-24 23:17:00,37.0,24.4,29.77,East,86,0.0,3.0,60,0.00,,---,0.00,VWS V14.01,2013-03-25 03:17:00,
2013-03-24 23:19:00,37.0,24.4,29.77,East,86,0.0,3.0,60,0.00,,---,0.00,VWS V14.01,2013-03-25 03:19:00,
2013-03-24 23:20:00,37.0,24.4,29.77,East,86,0.0,3.0,60,0.00,,---,0.00,VWS V14.01,2013-03-25 03:20:00,
2013-03-24 23:21:00,37.0,24.4,29.77,East,87,0.0,3.0,60,0.00,,---,0.00,VWS V14.01,2013-03-25 03:21:00,
2013-03-24 23:22:00,37.0,24.4,29.77,East,87,0.0,3.0,60,0.00,,---,0.00,VWS V14.01,2013-03-25 03:22:00,
2013-03-24 23:23:00,37.0,24.4,29.77,East,86,0.0,3.0,60,0.00,,---,0.00,VWS V14.01,2013-03-25 03:23:00,
2013-03-24 23:24:00,37.0,24.4,29.77,East,87,0.0,3.0,60,0.00,,---,0.00,VWS V14.01,2013-03-25 03:24:00,
2013-03-24 23:25:00,37.0,24.4,29.77,East,87,1.0,3.0,60,0.00,,---,0.00,VWS V14.01,2013-03-25 03:25:00,
2013-03-24 23:26:00,37.0,24.4,29.77,East,86,0.0,3.0,60,0.00,,---,0.00,VWS V14.01,2013-03-25 03:26:00,
2013-03-24 23:27:00,37.0,24.4,29.77,East,87,0.0,3.0,60,0.00,,---,0.00,VWS V14.01,2013-03-25 03:27:00,
2013-03-24 23:28:00,37.0,24.4,29.77,East,86,0.0,3.0,60,0.00,,---,0.00,VWS V14.01,2013-03-25 03:28:00,
2013-03-24 23:29:00,37.0,24.4,29.77,East,86,0.0,3.0,60,0.00,,---,0.00,VWS V14.01,2013-03-25 03:29:00,
2013-03-24 23:30:00,37.0,24.4,29.77,East,86,0.0,3.0,60,0.00,,---,0.00,VWS V14.01,2013-03-25 03:30:00,
2013-03-24 23:31:00,37.0,24.4,29.77,East,87,0.0,0.0,60,0.00,,---,0.00,VWS V14.01,2013-03-25 03:31:00,
2013-03-24 23:32:00,37.0,24.4,29.77,East,86,0.0,0.0,60,0.00,,---,0.00,VWS V14.01,2013-03-25 03:32:00,
2013-03-24 23:33:00,37.0,24.4,29.77,East,87,0.0,0.0,60,0.00,,---,0.00,VWS V14.01,2013-03-25 03:33:00,
2013-03-24 23:34:00,37.0,24.4,29.77,East,86,0.0,0.0,60,0.00,,---,0.00,VWS V14.01,2013-03-25 03:34:00,
2013-03-24 23:35:00,37.0,24.4,29.77,East,87,0.0,0.0,60,0.00,,---,0.00,VWS V14.01,2013-03-25 03:35:00,
2013-03-24 23:36:00,37.0,24.4,29.77,East,86,0.0,0.0,60,0.00,,---,0.00,VWS V14.01,2013-03-25 03:36:00,
2013-03-24 23:37:00,37.0,24.4,29.77,East,87,0.0,0.0,60,0.00,,---,0.00,VWS V14.01,2013-03-25 03:37:00,
2013-03-24 23:38:00,37.0,24.4,29.77,East,87,0.0,0.0,60,0.00,,---,0.00,VWS V14.01,2013-03-25 03:38:00,
2013-03-24 23:39:00,37.0,24.4,29.77,East,86,0.0,0.0,60,0.00,,---,0.00,VWS V14.01,2013-03-25 03:39:00,
2013-03-24 23:40:00,37.0,24.4,29.77,East,87,0.0,0.0,60,0.00,,---,0.00,VWS V14.01,2013-03-25 03:40:00,
2013-03-24 23:41:00,37.0,24.4,29.77,East,86,0.0,0.0,60,0.00,,---,0.00,VWS V14.01,2013-03-25 03:41:00,
2013-03-24 23:42:00,37.0,24.8,29.77,East,86,0.0,0.0,61,0.00,,---,0.00,VWS V14.01,2013-03-25 03:42:00,
2013-03-24 23:43:00,36.9,24.7,29.77,East,86,0.0,0.0,61,0.00,,---,0.00,VWS V14.01,2013-03-25 03:43:00,
2013-03-24 23:44:00,36.9,24.7,29.77,East,87,0.0,0.0,61,0.00,,---,0.00,VWS V14.01,2013-03-25 03:44:00,
2013-03-24 23:45:00,36.9,24.7,29.77,East,86,0.0,0.0,61,0.00,,---,0.00,VWS V14.01,2013-03-25 03:45:00,
2013-03-24 23:46:00,36.9,24.7,29.77,East,87,0.0,0.0,61,0.00,,---,0.00,VWS V14.01,2013-03-25 03:46:00,
2013-03-24 23:47:00,36.8,25.0,29.77,East,86,0.0,0.0,62,0.00,,---,0.00,VWS V14.01,2013-03-25 03:47:00,
2013-03-24 23:48:00,36.8,25.0,29.77,East,86,0.0,0.0,62,0.00,,---,0.00,VWS V14.01,2013-03-25 03:48:00,
2013-03-24 23:49:00,36.8,25.0,29.77,East,87,0.0,0.0,62,0.00,,---,0.00,VWS V14.01,2013-03-25 03:49:00,
2013-03-24 23:50:00,36.6,25.2,29.77,East,86,0.0,0.0,63,0.00,,---,0.00,VWS V14.01,2013-03-25 03:50:00,
2013-03-24 23:51:00,36.6,25.2,29.77,East,86,0.0,0.0,63,0.00,,---,0.00,VWS V14.01,2013-03-25 03:51:00,
2013-03-24 23:52:00,36.6,25.2,29.77,East,86,0.0,0.0,63,0.00,,---,0.00,VWS V14.01,2013-03-25 03:52:00,
2013-03-24 23:53:00,36.5,25.1,29.77,East,86,0.0,0.0,63,0.00,,---,0.00,VWS V14.01,2013-03-25 03:53:00,
2013-03-24 23:54:00,36.5,25.1,29.77,East,87,0.0,0.0,63,0.00,,---,0.00,VWS V14.01,2013-03-25 03:54:00,
2013-03-24 23:55:00,36.5,25.5,29.77,East,86,0.0,0.0,64,0.00,,---,0.00,VWS V14.01,2013-03-25 03:55:00,
2013-03-24 23:56:00,36.5,25.5,29.77,East,87,0.0,0.0,64,0.00,,---,0.00,VWS V14.01,2013-03-25 03:56:00,
2013-03-24 23:57:00,36.3,25.3,29.77,East,86,0.0,0.0,64,0.00,,---,0.00,VWS V14.01,2013-03-25 03:57:00,
2013-03-24 23:58:00,36.3,25.3,29.77,East,86,0.0,0.0,64,0.00,,---,0.00,VWS V14.01,2013-03-25 03:58:00,
2013-03-24 23:59:00,36.3,25.3,29.77,East,86,0.0,0.0,64,0.00,,---,0.00,VWS V14.01,2013-03-25 03:59:00,